ftp/pub/palmer/observations_modified/2019/November/AR191122_AWS2.txt

Download

Sample DateTime	Unit Id	WS Avg 2min	WD Avg 2min	WGS 10min	WGD 10min	Air Temp	Rel Humidity	Dew Point	Pyranometer	Quantum	Air Pressure	Snow Level	Rainfall	PW Current	Visibility	CBase 1	CBase 2	CBase 3	Vert Vis
2019/11/22 00:00:00	AWS2	2.48	89	3.50	103	M	M	M	NA	NA	986.2	NA	NA		M	NA	NA	NA	NA
2019/11/22 00:01:00	AWS2	2.38	90	3.50	103	M	M	M	NA	NA	985.2	NA	NA		M	NA	NA	NA	NA
2019/11/22 00:02:00	AWS2	2.22	87	3.50	103	M	M	M	NA	NA	986.1	NA	NA		M	NA	NA	NA	NA
2019/11/22 00:03:00	AWS2	2.28	85	3.50	103	M	M	M	NA	NA	987.5	NA	NA		M	NA	NA	NA	NA
2019/11/22 00:04:00	AWS2	2.54	84	3.40	98	M	M	M	NA	NA	987.4	NA	NA		M	NA	NA	NA	NA
2019/11/22 00:05:00	AWS2	2.52	80	3.40	98	M	M	M	NA	NA	987.3	NA	NA		M	NA	NA	NA	NA
2019/11/22 00:06:00	AWS2	2.44	74	2.83	81	M	M	M	NA	NA	987.8	NA	NA		M	NA	NA	NA	NA
2019/11/22 00:07:00	AWS2	2.51	69	2.83	81	M	M	M	NA	NA	986.9	NA	NA		M	NA	NA	NA	NA
2019/11/22 00:08:00	AWS2	2.18	67	2.83	81	M	M	M	NA	NA	985.5	NA	NA		M	NA	NA	NA	NA
2019/11/22 00:09:01	AWS2	2.09	66	2.83	81	M	M	M	NA	NA	986.1	NA	NA		M	NA	NA	NA	NA
2019/11/22 00:10:00	AWS2	2.38	68	2.83	81	M	M	M	NA	NA	986.0	NA	NA		M	NA	NA	NA	NA
2019/11/22 00:11:00	AWS2	2.30	69	2.83	81	M	M	M	NA	NA	987.0	NA	NA		M	NA	NA	NA	NA
2019/11/22 00:12:00	AWS2	2.17	64	2.83	81	M	M	M	NA	NA	986.2	NA	NA		M	NA	NA	NA	NA
2019/11/22 00:13:00	AWS2	2.06	54	2.83	81	M	M	M	NA	NA	984.7	NA	NA		M	NA	NA	NA	NA
2019/11/22 00:14:00	AWS2	2.07	40	2.88	13	M	M	M	NA	NA	985.6	NA	NA		M	NA	NA	NA	NA
2019/11/22 00:15:00	AWS2	2.45	31	2.93	17	M	M	M	NA	NA	985.0	NA	NA		M	NA	NA	NA	NA
2019/11/22 00:16:00	AWS2	2.99	24	4.12	20	M	M	M	NA	NA	986.5	NA	NA		M	NA	NA	NA	NA
2019/11/22 00:17:00	AWS2	3.32	17	4.12	20	M	M	M	NA	NA	983.4	NA	NA		M	NA	NA	NA	NA
2019/11/22 00:18:00	AWS2	3.39	22	4.37	24	M	M	M	NA	NA	985.7	NA	NA		M	NA	NA	NA	NA
2019/11/22 00:19:00	AWS2	3.86	23	4.94	21	M	M	M	NA	NA	986.6	NA	NA		M	NA	NA	NA	NA
2019/11/22 00:20:00	AWS2	4.62	17	5.04	12	M	M	M	NA	NA	985.0	NA	NA		M	NA	NA	NA	NA
2019/11/22 00:21:00	AWS2	4.40	16	5.04	12	M	M	M	NA	NA	986.9	NA	NA		M	NA	NA	NA	NA
2019/11/22 00:22:00	AWS2	3.97	16	5.04	12	M	M	M	NA	NA	986.0	NA	NA		M	NA	NA	NA	NA
2019/11/22 00:23:00	AWS2	4.05	20	5.04	12	M	M	M	NA	NA	985.9	NA	NA		M	NA	NA	NA	NA
2019/11/22 00:24:00	AWS2	4.05	24	5.04	12	M	M	M	NA	NA	985.3	NA	NA		M	NA	NA	NA	NA
2019/11/22 00:25:00	AWS2	3.99	24	5.04	12	M	M	M	NA	NA	987.6	NA	NA		M	NA	NA	NA	NA
2019/11/22 00:26:00	AWS2	4.27	22	5.04	12	M	M	M	NA	NA	985.4	NA	NA		M	NA	NA	NA	NA
2019/11/22 00:27:00	AWS2	4.53	16	5.09	19	M	M	M	NA	NA	986.4	NA	NA		M	NA	NA	NA	NA
2019/11/22 00:28:00	AWS2	4.61	14	5.09	19	M	M	M	NA	NA	986.8	NA	NA		M	NA	NA	NA	NA
2019/11/22 00:29:00	AWS2	4.43	17	5.09	19	M	M	M	NA	NA	986.1	NA	NA		M	NA	NA	NA	NA
2019/11/22 00:30:00	AWS2	3.96	17	5.09	19	M	M	M	NA	NA	987.1	NA	NA		M	NA	NA	NA	NA
2019/11/22 00:31:00	AWS2	3.68	21	5.09	19	M	M	M	NA	NA	986.9	NA	NA		M	NA	NA	NA	NA
2019/11/22 00:32:00	AWS2	3.67	26	5.09	19	M	M	M	NA	NA	985.9	NA	NA		M	NA	NA	NA	NA
2019/11/22 00:33:00	AWS2	4.09	21	5.20	19	M	M	M	NA	NA	984.3	NA	NA		M	NA	NA	NA	NA
2019/11/22 00:34:00	AWS2	4.36	18	5.20	19	M	M	M	NA	NA	986.1	NA	NA		M	NA	NA	NA	NA
2019/11/22 00:35:00	AWS2	4.30	23	5.20	19	M	M	M	NA	NA	985.1	NA	NA		M	NA	NA	NA	NA
2019/11/22 00:36:00	AWS2	4.33	24	5.20	19	M	M	M	NA	NA	985.0	NA	NA		M	NA	NA	NA	NA
2019/11/22 00:37:00	AWS2	4.20	23	5.20	19	M	M	M	NA	NA	986.7	NA	NA		M	NA	NA	NA	NA
2019/11/22 00:38:00	AWS2	4.25	23	5.20	19	M	M	M	NA	NA	983.3	NA	NA		M	NA	NA	NA	NA
2019/11/22 00:39:00	AWS2	4.23	23	5.25	25	M	M	M	NA	NA	986.8	NA	NA		M	NA	NA	NA	NA
2019/11/22 00:40:00	AWS2	4.39	22	5.61	20	M	M	M	NA	NA	986.2	NA	NA		M	NA	NA	NA	NA
2019/11/22 00:41:00	AWS2	4.87	23	5.61	20	M	M	M	NA	NA	984.5	NA	NA		M	NA	NA	NA	NA
2019/11/22 00:42:00	AWS2	4.43	26	5.61	20	M	M	M	NA	NA	986.7	NA	NA		M	NA	NA	NA	NA
2019/11/22 00:43:00	AWS2	4.20	24	5.61	20	M	M	M	NA	NA	985.8	NA	NA		M	NA	NA	NA	NA
2019/11/22 00:44:00	AWS2	4.23	21	5.61	20	M	M	M	NA	NA	984.4	NA	NA		M	NA	NA	NA	NA
2019/11/22 00:45:00	AWS2	4.25	22	5.61	20	M	M	M	NA	NA	984.8	NA	NA		M	NA	NA	NA	NA
2019/11/22 00:46:00	AWS2	4.12	20	5.61	20	M	M	M	NA	NA	986.1	NA	NA		M	NA	NA	NA	NA
2019/11/22 00:47:00	AWS2	3.70	19	5.61	20	M	M	M	NA	NA	984.1	NA	NA		M	NA	NA	NA	NA
2019/11/22 00:48:00	AWS2	3.76	24	5.61	20	M	M	M	NA	NA	985.0	NA	NA		M	NA	NA	NA	NA
2019/11/22 00:49:00	AWS2	4.16	30	5.61	20	M	M	M	NA	NA	985.5	NA	NA		M	NA	NA	NA	NA
2019/11/22 00:50:00	AWS2	4.83	29	5.71	30	M	M	M	NA	NA	984.7	NA	NA		M	NA	NA	NA	NA
2019/11/22 00:51:00	AWS2	4.95	27	5.71	30	M	M	M	NA	NA	984.8	NA	NA		M	NA	NA	NA	NA
2019/11/22 00:52:00	AWS2	4.62	29	5.71	30	M	M	M	NA	NA	985.6	NA	NA		M	NA	NA	NA	NA
2019/11/22 00:53:00	AWS2	4.27	28	5.71	30	M	M	M	NA	NA	984.4	NA	NA		M	NA	NA	NA	NA
2019/11/22 00:54:00	AWS2	4.30	30	6.12	25	M	M	M	NA	NA	984.4	NA	NA		M	NA	NA	NA	NA
2019/11/22 00:55:00	AWS2	4.83	30	6.12	25	M	M	M	NA	NA	986.2	NA	NA		M	NA	NA	NA	NA
2019/11/22 00:56:00	AWS2	5.29	29	6.12	34	M	M	M	NA	NA	985.1	NA	NA		M	NA	NA	NA	NA
2019/11/22 00:57:00	AWS2	5.18	32	6.12	34	M	M	M	NA	NA	985.9	NA	NA		M	NA	NA	NA	NA
2019/11/22 00:58:00	AWS2	4.55	34	6.12	34	M	M	M	NA	NA	983.6	NA	NA		M	NA	NA	NA	NA
2019/11/22 00:59:00	AWS2	4.66	34	6.12	34	M	M	M	NA	NA	985.1	NA	NA		M	NA	NA	NA	NA
2019/11/22 01:00:00	AWS2	4.91	33	6.12	34	M	M	M	NA	NA	985.0	NA	NA		M	NA	NA	NA	NA
2019/11/22 01:01:00	AWS2	4.46	35	6.12	34	M	M	M	NA	NA	985.4	NA	NA		M	NA	NA	NA	NA
2019/11/22 01:02:00	AWS2	4.29	40	6.12	34	M	M	M	NA	NA	985.2	NA	NA		M	NA	NA	NA	NA
2019/11/22 01:03:00	AWS2	4.29	44	6.12	34	M	M	M	NA	NA	985.6	NA	NA		M	NA	NA	NA	NA
2019/11/22 01:04:00	AWS2	4.53	40	6.12	34	M	M	M	NA	NA	985.0	NA	NA		M	NA	NA	NA	NA
2019/11/22 01:05:00	AWS2	5.00	32	6.28	23	M	M	M	NA	NA	986.0	NA	NA		M	NA	NA	NA	NA
2019/11/22 01:06:00	AWS2	5.66	29	7.31	27	M	M	M	NA	NA	986.9	NA	NA		M	NA	NA	NA	NA
2019/11/22 01:07:00	AWS2	6.28	29	7.31	27	M	M	M	NA	NA	985.0	NA	NA		M	NA	NA	NA	NA
2019/11/22 01:08:00	AWS2	6.49	32	7.31	27	M	M	M	NA	NA	983.9	NA	NA		M	NA	NA	NA	NA
2019/11/22 01:09:00	AWS2	6.70	35	7.36	30	M	M	M	NA	NA	986.2	NA	NA		M	NA	NA	NA	NA
2019/11/22 01:10:00	AWS2	6.23	36	7.36	30	M	M	M	NA	NA	985.1	NA	NA		M	NA	NA	NA	NA
2019/11/22 01:11:00	AWS2	6.09	43	7.77	56	M	M	M	NA	NA	983.7	NA	NA		M	NA	NA	NA	NA
2019/11/22 01:12:00	AWS2	6.62	49	7.77	56	M	M	M	NA	NA	986.0	NA	NA		M	NA	NA	NA	NA
2019/11/22 01:13:00	AWS2	6.89	54	7.97	65	M	M	M	NA	NA	984.9	NA	NA		M	NA	NA	NA	NA
2019/11/22 01:14:00	AWS2	6.65	60	7.97	65	M	M	M	NA	NA	986.1	NA	NA		M	NA	NA	NA	NA
2019/11/22 01:15:00	AWS2	6.17	61	7.97	65	M	M	M	NA	NA	985.8	NA	NA		M	NA	NA	NA	NA
2019/11/22 01:16:00	AWS2	5.44	62	7.97	65	M	M	M	NA	NA	985.6	NA	NA		M	NA	NA	NA	NA
2019/11/22 01:17:00	AWS2	4.65	64	7.97	65	M	M	M	NA	NA	984.9	NA	NA		M	NA	NA	NA	NA
2019/11/22 01:18:00	AWS2	4.57	61	7.97	65	M	M	M	NA	NA	986.3	NA	NA		M	NA	NA	NA	NA
2019/11/22 01:19:00	AWS2	4.75	58	7.97	65	M	M	M	NA	NA	983.1	NA	NA		M	NA	NA	NA	NA
2019/11/22 01:20:00	AWS2	4.48	67	7.97	65	M	M	M	NA	NA	987.2	NA	NA		M	NA	NA	NA	NA
2019/11/22 01:21:00	AWS2	4.00	85	7.97	65	M	M	M	NA	NA	986.0	NA	NA		M	NA	NA	NA	NA
2019/11/22 01:22:00	AWS2	3.78	95	7.97	65	M	M	M	NA	NA	983.7	NA	NA		M	NA	NA	NA	NA
2019/11/22 01:23:00	AWS2	3.99	99	6.84	55	M	M	M	NA	NA	984.2	NA	NA		M	NA	NA	NA	NA
2019/11/22 01:24:00	AWS2	4.19	102	6.43	63	M	M	M	NA	NA	982.8	NA	NA		M	NA	NA	NA	NA
2019/11/22 01:25:00	AWS2	3.83	102	5.35	58	M	M	M	NA	NA	984.9	NA	NA		M	NA	NA	NA	NA
2019/11/22 01:26:00	AWS2	3.53	102	5.35	58	M	M	M	NA	NA	985.5	NA	NA		M	NA	NA	NA	NA
2019/11/22 01:27:00	AWS2	3.35	103	5.35	58	M	M	M	NA	NA	986.6	NA	NA		M	NA	NA	NA	NA
2019/11/22 01:28:00	AWS2	3.31	104	5.35	58	M	M	M	NA	NA	981.9	NA	NA		M	NA	NA	NA	NA
2019/11/22 01:29:00	AWS2	3.54	105	4.63	101	M	M	M	NA	NA	982.1	NA	NA		M	NA	NA	NA	NA
2019/11/22 01:30:00	AWS2	3.72	106	4.63	101	M	M	M	NA	NA	983.6	NA	NA		M	NA	NA	NA	NA
2019/11/22 01:31:00	AWS2	3.62	106	4.63	101	M	M	M	NA	NA	984.5	NA	NA		M	NA	NA	NA	NA
2019/11/22 01:32:00	AWS2	3.42	105	4.63	101	M	M	M	NA	NA	985.1	NA	NA		M	NA	NA	NA	NA
2019/11/22 01:33:00	AWS2	3.22	105	4.53	98	M	M	M	NA	NA	984.9	NA	NA		M	NA	NA	NA	NA
2019/11/22 01:34:00	AWS2	3.21	108	4.22	102	M	M	M	NA	NA	985.8	NA	NA		M	NA	NA	NA	NA
2019/11/22 01:35:00	AWS2	3.48	112	4.01	104	M	M	M	NA	NA	984.0	NA	NA		M	NA	NA	NA	NA
2019/11/22 01:36:00	AWS2	3.57	112	4.01	104	M	M	M	NA	NA	982.9	NA	NA		M	NA	NA	NA	NA
2019/11/22 01:37:00	AWS2	3.44	111	4.01	104	M	M	M	NA	NA	984.5	NA	NA		M	NA	NA	NA	NA
2019/11/22 01:38:00	AWS2	3.36	109	4.01	104	M	M	M	NA	NA	985.7	NA	NA		M	NA	NA	NA	NA
2019/11/22 01:39:00	AWS2	3.27	107	4.01	104	M	M	M	NA	NA	984.8	NA	NA		M	NA	NA	NA	NA
2019/11/22 01:40:00	AWS2	3.01	107	3.91	114	M	M	M	NA	NA	985.4	NA	NA		M	NA	NA	NA	NA
2019/11/22 01:41:00	AWS2	2.89	106	3.91	114	M	M	M	NA	NA	985.3	NA	NA		M	NA	NA	NA	NA
2019/11/22 01:42:00	AWS2	2.86	104	3.91	114	M	M	M	NA	NA	984.4	NA	NA		M	NA	NA	NA	NA
2019/11/22 01:43:00	AWS2	2.74	100	3.91	114	M	M	M	NA	NA	985.5	NA	NA		M	NA	NA	NA	NA
2019/11/22 01:44:00	AWS2	2.63	104	3.91	114	M	M	M	NA	NA	985.0	NA	NA		M	NA	NA	NA	NA
2019/11/22 01:45:00	AWS2	2.63	108	3.81	115	M	M	M	NA	NA	985.1	NA	NA		M	NA	NA	NA	NA
2019/11/22 01:46:00	AWS2	2.77	109	3.81	115	M	M	M	NA	NA	985.5	NA	NA		M	NA	NA	NA	NA
2019/11/22 01:47:00	AWS2	2.94	109	3.65	105	M	M	M	NA	NA	984.6	NA	NA		M	NA	NA	NA	NA
2019/11/22 01:48:00	AWS2	2.92	109	3.45	107	M	M	M	NA	NA	984.1	NA	NA		M	NA	NA	NA	NA
2019/11/22 01:49:00	AWS2	2.63	111	3.29	110	M	M	M	NA	NA	985.2	NA	NA		M	NA	NA	NA	NA
2019/11/22 01:50:00	AWS2	2.60	111	3.29	110	M	M	M	NA	NA	986.0	NA	NA		M	NA	NA	NA	NA
2019/11/22 01:51:00	AWS2	2.56	107	3.29	110	M	M	M	NA	NA	984.7	NA	NA		M	NA	NA	NA	NA
2019/11/22 01:52:00	AWS2	2.24	108	3.29	110	M	M	M	NA	NA	984.5	NA	NA		M	NA	NA	NA	NA
2019/11/22 01:53:00	AWS2	2.26	112	3.29	110	M	M	M	NA	NA	986.5	NA	NA		M	NA	NA	NA	NA
2019/11/22 01:54:00	AWS2	2.47	111	3.29	110	M	M	M	NA	NA	982.2	NA	NA		M	NA	NA	NA	NA
2019/11/22 01:55:00	AWS2	2.53	109	3.29	110	M	M	M	NA	NA	985.0	NA	NA		M	NA	NA	NA	NA
2019/11/22 01:56:00	AWS2	2.67	107	3.29	110	M	M	M	NA	NA	983.6	NA	NA		M	NA	NA	NA	NA
2019/11/22 01:57:00	AWS2	2.70	104	3.19	109	M	M	M	NA	NA	983.6	NA	NA		M	NA	NA	NA	NA
2019/11/22 01:58:00	AWS2	2.41	101	3.19	109	M	M	M	NA	NA	985.6	NA	NA		M	NA	NA	NA	NA
2019/11/22 01:59:00	AWS2	2.29	98	3.19	109	M	M	M	NA	NA	986.2	NA	NA		M	NA	NA	NA	NA
2019/11/22 02:00:00	AWS2	2.38	95	3.19	109	M	M	M	NA	NA	985.6	NA	NA		M	NA	NA	NA	NA
2019/11/22 02:01:00	AWS2	2.43	93	3.19	109	M	M	M	NA	NA	986.2	NA	NA		M	NA	NA	NA	NA
2019/11/22 02:02:00	AWS2	2.46	91	3.19	109	M	M	M	NA	NA	984.6	NA	NA		M	NA	NA	NA	NA
2019/11/22 02:03:00	AWS2	2.38	91	3.19	109	M	M	M	NA	NA	985.4	NA	NA		M	NA	NA	NA	NA
2019/11/22 02:04:00	AWS2	2.17	93	3.19	109	M	M	M	NA	NA	985.7	NA	NA		M	NA	NA	NA	NA
2019/11/22 02:05:00	AWS2	2.07	95	3.19	109	M	M	M	NA	NA	984.1	NA	NA		M	NA	NA	NA	NA
2019/11/22 02:06:00	AWS2	1.96	90	3.19	109	M	M	M	NA	NA	985.5	NA	NA		M	NA	NA	NA	NA
2019/11/22 02:07:00	AWS2	2.05	85	2.68	90	M	M	M	NA	NA	985.0	NA	NA		M	NA	NA	NA	NA
2019/11/22 02:08:00	AWS2	2.05	83	2.68	90	M	M	M	NA	NA	983.9	NA	NA		M	NA	NA	NA	NA
2019/11/22 02:09:00	AWS2	1.79	82	2.68	90	M	M	M	NA	NA	985.9	NA	NA		M	NA	NA	NA	NA
2019/11/22 02:10:00	AWS2	1.61	82	2.68	90	M	M	M	NA	NA	986.2	NA	NA		M	NA	NA	NA	NA
2019/11/22 02:11:00	AWS2	1.46	80	2.68	90	M	M	M	NA	NA	985.8	NA	NA		M	NA	NA	NA	NA
2019/11/22 02:12:00	AWS2	1.37	75	2.62	95	M	M	M	NA	NA	984.6	NA	NA		M	NA	NA	NA	NA
2019/11/22 02:13:00	AWS2	1.10	71	2.47	85	M	M	M	NA	NA	985.9	NA	NA		M	NA	NA	NA	NA
2019/11/22 02:14:00	AWS2	0.86	72	2.47	85	M	M	M	NA	NA	986.1	NA	NA		M	NA	NA	NA	NA
2019/11/22 02:15:00	AWS2	0.50	62	2.47	85	M	M	M	NA	NA	985.8	NA	NA		M	NA	NA	NA	NA
2019/11/22 02:16:00	AWS2	0.22	57	2.47	85	M	M	M	NA	NA	986.2	NA	NA		M	NA	NA	NA	NA
2019/11/22 02:17:00	AWS2	0.26	61	2.37	82	M	M	M	NA	NA	985.4	NA	NA		M	NA	NA	NA	NA
2019/11/22 02:18:00	AWS2	0.76	57	2.01	78	M	M	M	NA	NA	985.8	NA	NA		M	NA	NA	NA	NA
2019/11/22 02:19:00	AWS2	1.53	51	2.11	55	M	M	M	NA	NA	985.7	NA	NA		M	NA	NA	NA	NA
2019/11/22 02:20:00	AWS2	1.63	50	2.11	55	M	M	M	NA	NA	984.7	NA	NA		M	NA	NA	NA	NA
2019/11/22 02:21:00	AWS2	1.51	50	2.11	55	M	M	M	NA	NA	985.8	NA	NA		M	NA	NA	NA	NA
2019/11/22 02:22:00	AWS2	1.62	48	2.11	55	M	M	M	NA	NA	985.6	NA	NA		M	NA	NA	NA	NA
2019/11/22 02:23:00	AWS2	1.59	46	2.11	55	M	M	M	NA	NA	983.4	NA	NA		M	NA	NA	NA	NA
2019/11/22 02:24:00	AWS2	1.44	41	2.11	55	M	M	M	NA	NA	986.5	NA	NA		M	NA	NA	NA	NA
2019/11/22 02:25:00	AWS2	1.47	34	2.11	55	M	M	M	NA	NA	984.4	NA	NA		M	NA	NA	NA	NA
2019/11/22 02:26:00	AWS2	1.59	33	2.11	55	M	M	M	NA	NA	985.7	NA	NA		M	NA	NA	NA	NA
2019/11/22 02:27:00	AWS2	1.50	33	2.11	55	M	M	M	NA	NA	984.9	NA	NA		M	NA	NA	NA	NA
2019/11/22 02:28:00	AWS2	1.12	37	2.11	55	M	M	M	NA	NA	984.1	NA	NA		M	NA	NA	NA	NA
2019/11/22 02:29:00	AWS2	0.70	42	1.95	51	M	M	M	NA	NA	985.9	NA	NA		M	NA	NA	NA	NA
2019/11/22 02:30:00	AWS2	0.87	39	1.95	51	M	M	M	NA	NA	982.8	NA	NA		M	NA	NA	NA	NA
2019/11/22 02:31:00	AWS2	1.33	33	1.95	51	M	M	M	NA	NA	986.6	NA	NA		M	NA	NA	NA	NA
2019/11/22 02:32:00	AWS2	1.44	35	1.75	34	M	M	M	NA	NA	984.4	NA	NA		M	NA	NA	NA	NA
2019/11/22 02:33:00	AWS2	1.44	41	1.75	34	M	M	M	NA	NA	984.8	NA	NA		M	NA	NA	NA	NA
2019/11/22 02:34:00	AWS2	1.59	46	1.90	53	M	M	M	NA	NA	984.1	NA	NA		M	NA	NA	NA	NA
2019/11/22 02:35:00	AWS2	1.68	53	1.90	53	M	M	M	NA	NA	986.2	NA	NA		M	NA	NA	NA	NA
2019/11/22 02:36:00	AWS2	1.63	59	1.90	53	M	M	M	NA	NA	986.4	NA	NA		M	NA	NA	NA	NA
2019/11/22 02:37:00	AWS2	1.57	69	1.90	53	M	M	M	NA	NA	986.2	NA	NA		M	NA	NA	NA	NA
2019/11/22 02:38:00	AWS2	1.53	73	1.90	53	M	M	M	NA	NA	985.6	NA	NA		M	NA	NA	NA	NA
2019/11/22 02:39:00	AWS2	1.54	71	1.90	53	M	M	M	NA	NA	984.8	NA	NA		M	NA	NA	NA	NA
2019/11/22 02:40:00	AWS2	1.55	75	1.90	53	M	M	M	NA	NA	985.7	NA	NA		M	NA	NA	NA	NA
2019/11/22 02:41:00	AWS2	1.56	75	1.90	53	M	M	M	NA	NA	985.4	NA	NA		M	NA	NA	NA	NA
2019/11/22 02:42:00	AWS2	1.53	68	1.90	53	M	M	M	NA	NA	985.3	NA	NA		M	NA	NA	NA	NA
2019/11/22 02:43:00	AWS2	1.47	63	1.90	53	M	M	M	NA	NA	986.3	NA	NA		M	NA	NA	NA	NA
2019/11/22 02:44:00	AWS2	1.35	59	1.85	50	M	M	M	NA	NA	984.7	NA	NA		M	NA	NA	NA	NA
2019/11/22 02:45:00	AWS2	1.23	57	1.70	66	M	M	M	NA	NA	986.3	NA	NA		M	NA	NA	NA	NA
2019/11/22 02:46:00	AWS2	1.27	58	1.70	66	M	M	M	NA	NA	985.2	NA	NA		M	NA	NA	NA	NA
2019/11/22 02:47:00	AWS2	1.16	57	1.70	66	M	M	M	NA	NA	985.2	NA	NA		M	NA	NA	NA	NA
2019/11/22 02:48:00	AWS2	1.19	57	1.70	66	M	M	M	NA	NA	985.2	NA	NA		M	NA	NA	NA	NA
2019/11/22 02:49:00	AWS2	1.46	60	1.75	61	M	M	M	NA	NA	985.5	NA	NA		M	NA	NA	NA	NA
2019/11/22 02:50:00	AWS2	1.46	63	1.75	67	M	M	M	NA	NA	984.5	NA	NA		M	NA	NA	NA	NA
2019/11/22 02:51:00	AWS2	1.52	64	1.75	63	M	M	M	NA	NA	986.4	NA	NA		M	NA	NA	NA	NA
2019/11/22 02:52:00	AWS2	1.56	64	1.75	63	M	M	M	NA	NA	985.0	NA	NA		M	NA	NA	NA	NA
2019/11/22 02:53:00	AWS2	1.48	65	1.75	63	M	M	M	NA	NA	985.5	NA	NA		M	NA	NA	NA	NA
2019/11/22 02:54:00	AWS2	1.39	67	1.75	63	M	M	M	NA	NA	984.5	NA	NA		M	NA	NA	NA	NA
2019/11/22 02:55:00	AWS2	1.36	70	1.75	63	M	M	M	NA	NA	985.5	NA	NA		M	NA	NA	NA	NA
2019/11/22 02:56:00	AWS2	1.52	74	1.85	79	M	M	M	NA	NA	984.8	NA	NA		M	NA	NA	NA	NA
2019/11/22 02:57:00	AWS2	1.72	77	1.95	77	M	M	M	NA	NA	985.1	NA	NA		M	NA	NA	NA	NA
2019/11/22 02:58:00	AWS2	1.69	77	1.95	77	M	M	M	NA	NA	983.9	NA	NA		M	NA	NA	NA	NA
2019/11/22 02:59:01	AWS2	1.55	82	1.95	77	M	M	M	NA	NA	986.4	NA	NA		M	NA	NA	NA	NA
2019/11/22 03:00:00	AWS2	1.67	95	2.06	104	M	M	M	NA	NA	984.0	NA	NA		M	NA	NA	NA	NA
2019/11/22 03:01:00	AWS2	1.90	105	2.11	113	M	M	M	NA	NA	985.1	NA	NA		M	NA	NA	NA	NA
2019/11/22 03:02:00	AWS2	1.93	105	2.11	113	M	M	M	NA	NA	983.8	NA	NA		M	NA	NA	NA	NA
2019/11/22 03:03:00	AWS2	1.58	99	2.11	113	M	M	M	NA	NA	984.1	NA	NA		M	NA	NA	NA	NA
2019/11/22 03:04:00	AWS2	1.22	96	2.11	113	M	M	M	NA	NA	984.1	NA	NA		M	NA	NA	NA	NA
2019/11/22 03:05:00	AWS2	1.25	95	2.11	113	M	M	M	NA	NA	984.3	NA	NA		M	NA	NA	NA	NA
2019/11/22 03:06:00	AWS2	1.57	91	2.11	113	M	M	M	NA	NA	984.2	NA	NA		M	NA	NA	NA	NA
2019/11/22 03:07:00	AWS2	1.74	89	2.11	113	M	M	M	NA	NA	985.3	NA	NA		M	NA	NA	NA	NA
2019/11/22 03:08:00	AWS2	1.65	88	2.11	113	M	M	M	NA	NA	982.1	NA	NA		M	NA	NA	NA	NA
2019/11/22 03:09:00	AWS2	1.49	93	2.11	113	M	M	M	NA	NA	985.2	NA	NA		M	NA	NA	NA	NA
2019/11/22 03:10:00	AWS2	1.19	100	2.11	113	M	M	M	NA	NA	985.1	NA	NA		M	NA	NA	NA	NA
2019/11/22 03:11:00	AWS2	0.73	105	2.06	108	M	M	M	NA	NA	985.3	NA	NA		M	NA	NA	NA	NA
2019/11/22 03:12:00	AWS2	0.43	108	1.90	87	M	M	M	NA	NA	985.6	NA	NA		M	NA	NA	NA	NA
2019/11/22 03:13:00	AWS2	0.79	107	1.90	87	M	M	M	NA	NA	985.0	NA	NA		M	NA	NA	NA	NA
2019/11/22 03:14:00	AWS2	1.29	108	1.90	87	M	M	M	NA	NA	984.6	NA	NA		M	NA	NA	NA	NA
2019/11/22 03:15:00	AWS2	1.48	115	1.90	87	M	M	M	NA	NA	984.8	NA	NA		M	NA	NA	NA	NA
2019/11/22 03:16:00	AWS2	1.63	119	2.01	107	M	M	M	NA	NA	985.6	NA	NA		M	NA	NA	NA	NA
2019/11/22 03:17:00	AWS2	1.70	119	2.01	107	M	M	M	NA	NA	983.8	NA	NA		M	NA	NA	NA	NA
2019/11/22 03:18:00	AWS2	1.67	119	2.01	107	M	M	M	NA	NA	983.9	NA	NA		M	NA	NA	NA	NA
2019/11/22 03:19:00	AWS2	1.55	122	2.01	107	M	M	M	NA	NA	984.1	NA	NA		M	NA	NA	NA	NA
2019/11/22 03:20:00	AWS2	1.54	120	2.01	107	M	M	M	NA	NA	985.2	NA	NA		M	NA	NA	NA	NA
2019/11/22 03:21:00	AWS2	1.51	119	2.01	107	M	M	M	NA	NA	984.3	NA	NA		M	NA	NA	NA	NA
2019/11/22 03:22:00	AWS2	1.46	122	2.01	107	M	M	M	NA	NA	985.5	NA	NA		M	NA	NA	NA	NA
2019/11/22 03:23:00	AWS2	1.33	122	2.01	107	M	M	M	NA	NA	984.3	NA	NA		M	NA	NA	NA	NA
2019/11/22 03:24:00	AWS2	1.27	120	2.01	107	M	M	M	NA	NA	982.3	NA	NA		M	NA	NA	NA	NA
2019/11/22 03:25:00	AWS2	1.44	119	2.01	107	M	M	M	NA	NA	984.1	NA	NA		M	NA	NA	NA	NA
2019/11/22 03:26:00	AWS2	1.31	119	1.90	119	M	M	M	NA	NA	982.9	NA	NA		M	NA	NA	NA	NA
2019/11/22 03:27:00	AWS2	1.35	116	1.95	121	M	M	M	NA	NA	983.4	NA	NA		M	NA	NA	NA	NA
2019/11/22 03:28:00	AWS2	1.41	107	1.95	121	M	M	M	NA	NA	985.2	NA	NA		M	NA	NA	NA	NA
2019/11/22 03:29:00	AWS2	1.27	110	1.95	121	M	M	M	NA	NA	983.7	NA	NA		M	NA	NA	NA	NA
2019/11/22 03:30:00	AWS2	1.45	124	1.95	121	M	M	M	NA	NA	984.4	NA	NA		M	NA	NA	NA	NA
2019/11/22 03:31:00	AWS2	1.60	129	1.95	121	M	M	M	NA	NA	983.9	NA	NA		M	NA	NA	NA	NA
2019/11/22 03:32:00	AWS2	1.49	136	1.95	121	M	M	M	NA	NA	985.1	NA	NA		M	NA	NA	NA	NA
2019/11/22 03:33:00	AWS2	1.16	122	1.95	121	M	M	M	NA	NA	985.6	NA	NA		M	NA	NA	NA	NA
2019/11/22 03:34:00	AWS2	1.00	105	1.95	121	M	M	M	NA	NA	984.2	NA	NA		M	NA	NA	NA	NA
2019/11/22 03:35:00	AWS2	1.13	113	1.95	121	M	M	M	NA	NA	984.1	NA	NA		M	NA	NA	NA	NA
2019/11/22 03:36:00	AWS2	1.40	118	2.06	111	M	M	M	NA	NA	984.8	NA	NA		M	NA	NA	NA	NA
2019/11/22 03:37:00	AWS2	1.87	112	2.68	100	M	M	M	NA	NA	985.7	NA	NA		M	NA	NA	NA	NA
2019/11/22 03:38:00	AWS2	1.94	111	2.68	100	M	M	M	NA	NA	984.8	NA	NA		M	NA	NA	NA	NA
2019/11/22 03:39:00	AWS2	1.78	114	2.68	100	M	M	M	NA	NA	985.5	NA	NA		M	NA	NA	NA	NA
2019/11/22 03:40:00	AWS2	1.85	113	2.68	100	M	M	M	NA	NA	984.7	NA	NA		M	NA	NA	NA	NA
2019/11/22 03:41:00	AWS2	1.79	114	2.68	100	M	M	M	NA	NA	984.9	NA	NA		M	NA	NA	NA	NA
2019/11/22 03:42:00	AWS2	1.47	116	2.68	100	M	M	M	NA	NA	983.8	NA	NA		M	NA	NA	NA	NA
2019/11/22 03:43:00	AWS2	1.36	116	2.68	100	M	M	M	NA	NA	985.2	NA	NA		M	NA	NA	NA	NA
2019/11/22 03:44:00	AWS2	1.52	114	2.68	100	M	M	M	NA	NA	986.4	NA	NA		M	NA	NA	NA	NA
2019/11/22 03:45:00	AWS2	1.47	106	2.68	100	M	M	M	NA	NA	986.3	NA	NA		M	NA	NA	NA	NA
2019/11/22 03:46:00	AWS2	1.64	102	2.68	100	M	M	M	NA	NA	985.0	NA	NA		M	NA	NA	NA	NA
2019/11/22 03:47:00	AWS2	2.07	108	2.52	120	M	M	M	NA	NA	985.3	NA	NA		M	NA	NA	NA	NA
2019/11/22 03:48:00	AWS2	2.33	113	2.68	116	M	M	M	NA	NA	984.9	NA	NA		M	NA	NA	NA	NA
2019/11/22 03:49:00	AWS2	2.50	114	2.78	115	M	M	M	NA	NA	984.9	NA	NA		M	NA	NA	NA	NA
2019/11/22 03:50:00	AWS2	2.43	116	2.78	115	M	M	M	NA	NA	985.6	NA	NA		M	NA	NA	NA	NA
2019/11/22 03:51:00	AWS2	2.21	120	2.78	115	M	M	M	NA	NA	983.9	NA	NA		M	NA	NA	NA	NA
2019/11/22 03:52:00	AWS2	2.12	121	2.78	115	M	M	M	NA	NA	986.1	NA	NA		M	NA	NA	NA	NA
2019/11/22 03:53:00	AWS2	2.26	119	2.78	115	M	M	M	NA	NA	984.8	NA	NA		M	NA	NA	NA	NA
2019/11/22 03:54:00	AWS2	2.25	119	2.78	115	M	M	M	NA	NA	984.2	NA	NA		M	NA	NA	NA	NA
2019/11/22 03:55:00	AWS2	2.11	116	2.78	115	M	M	M	NA	NA	985.2	NA	NA		M	NA	NA	NA	NA
2019/11/22 03:56:00	AWS2	2.01	115	2.78	115	M	M	M	NA	NA	983.3	NA	NA		M	NA	NA	NA	NA
2019/11/22 03:57:00	AWS2	1.90	113	2.78	115	M	M	M	NA	NA	984.6	NA	NA		M	NA	NA	NA	NA
2019/11/22 03:58:00	AWS2	1.74	103	2.78	115	M	M	M	NA	NA	985.1	NA	NA		M	NA	NA	NA	NA
2019/11/22 03:59:00	AWS2	1.71	92	2.52	122	M	M	M	NA	NA	983.4	NA	NA		M	NA	NA	NA	NA
2019/11/22 04:00:00	AWS2	1.70	91	2.52	122	M	M	M	NA	NA	985.8	NA	NA		M	NA	NA	NA	NA
2019/11/22 04:01:00	AWS2	1.68	105	2.52	122	M	M	M	NA	NA	984.9	NA	NA		M	NA	NA	NA	NA
2019/11/22 04:02:00	AWS2	1.80	112	2.52	122	M	M	M	NA	NA	M	NA	NA		M	NA	NA	NA	NA
2019/11/22 04:03:00	AWS2	2.08	118	2.52	122	M	M	M	NA	NA	985.1	NA	NA		M	NA	NA	NA	NA
2019/11/22 04:04:00	AWS2	2.16	115	2.78	115	M	M	M	NA	NA	984.3	NA	NA		M	NA	NA	NA	NA
2019/11/22 04:05:00	AWS2	2.43	117	2.78	118	M	M	M	NA	NA	984.2	NA	NA		M	NA	NA	NA	NA
2019/11/22 04:06:00	AWS2	2.50	124	2.78	118	M	M	M	NA	NA	983.8	NA	NA		M	NA	NA	NA	NA
2019/11/22 04:07:00	AWS2	2.34	128	2.78	118	M	M	M	NA	NA	982.5	NA	NA		M	NA	NA	NA	NA
2019/11/22 04:08:00	AWS2	2.24	124	2.78	118	M	M	M	NA	NA	982.0	NA	NA		M	NA	NA	NA	NA
2019/11/22 04:09:00	AWS2	1.97	115	2.78	118	M	M	M	NA	NA	984.2	NA	NA		M	NA	NA	NA	NA
2019/11/22 04:10:00	AWS2	1.90	109	2.78	118	M	M	M	NA	NA	983.5	NA	NA		M	NA	NA	NA	NA
2019/11/22 04:11:00	AWS2	2.13	109	2.78	118	M	M	M	NA	NA	983.7	NA	NA		M	NA	NA	NA	NA
2019/11/22 04:12:00	AWS2	2.33	114	2.88	115	M	M	M	NA	NA	983.8	NA	NA		M	NA	NA	NA	NA
2019/11/22 04:13:00	AWS2	2.53	117	3.09	113	M	M	M	NA	NA	983.0	NA	NA		M	NA	NA	NA	NA
2019/11/22 04:14:00	AWS2	2.46	121	3.09	113	M	M	M	NA	NA	984.8	NA	NA		M	NA	NA	NA	NA
2019/11/22 04:15:00	AWS2	2.06	123	3.09	113	M	M	M	NA	NA	985.3	NA	NA		M	NA	NA	NA	NA
2019/11/22 04:16:00	AWS2	2.07	119	3.09	113	M	M	M	NA	NA	984.3	NA	NA		M	NA	NA	NA	NA
2019/11/22 04:17:00	AWS2	2.14	110	3.09	113	M	M	M	NA	NA	984.9	NA	NA		M	NA	NA	NA	NA
2019/11/22 04:18:00	AWS2	1.83	101	3.09	113	M	M	M	NA	NA	984.6	NA	NA		M	NA	NA	NA	NA
2019/11/22 04:19:00	AWS2	1.63	103	3.09	113	M	M	M	NA	NA	984.6	NA	NA		M	NA	NA	NA	NA
2019/11/22 04:20:00	AWS2	1.44	101	3.09	113	M	M	M	NA	NA	984.0	NA	NA		M	NA	NA	NA	NA
2019/11/22 04:21:00	AWS2	1.16	98	3.09	113	M	M	M	NA	NA	982.8	NA	NA		M	NA	NA	NA	NA
2019/11/22 04:22:00	AWS2	1.45	108	3.09	113	M	M	M	NA	NA	983.9	NA	NA		M	NA	NA	NA	NA
2019/11/22 04:23:00	AWS2	1.89	118	2.73	121	M	M	M	NA	NA	982.9	NA	NA		M	NA	NA	NA	NA
2019/11/22 04:24:00	AWS2	1.97	124	2.73	121	M	M	M	NA	NA	984.7	NA	NA		M	NA	NA	NA	NA
2019/11/22 04:25:00	AWS2	2.02	123	2.73	121	M	M	M	NA	NA	984.8	NA	NA		M	NA	NA	NA	NA
2019/11/22 04:26:00	AWS2	1.94	118	2.31	120	M	M	M	NA	NA	984.0	NA	NA		M	NA	NA	NA	NA
2019/11/22 04:27:00	AWS2	1.88	118	2.26	119	M	M	M	NA	NA	982.6	NA	NA		M	NA	NA	NA	NA
2019/11/22 04:28:00	AWS2	1.76	123	2.26	119	M	M	M	NA	NA	981.8	NA	NA		M	NA	NA	NA	NA
2019/11/22 04:29:00	AWS2	1.62	122	2.26	119	M	M	M	NA	NA	984.1	NA	NA		M	NA	NA	NA	NA
2019/11/22 04:30:00	AWS2	1.69	117	2.26	119	M	M	M	NA	NA	983.0	NA	NA		M	NA	NA	NA	NA
2019/11/22 04:31:00	AWS2	1.77	115	2.26	119	M	M	M	NA	NA	984.8	NA	NA		M	NA	NA	NA	NA
2019/11/22 04:32:00	AWS2	1.73	114	2.26	119	M	M	M	NA	NA	983.2	NA	NA		M	NA	NA	NA	NA
2019/11/22 04:33:00	AWS2	1.80	113	2.26	119	M	M	M	NA	NA	985.0	NA	NA		M	NA	NA	NA	NA
2019/11/22 04:34:00	AWS2	1.92	113	2.31	117	M	M	M	NA	NA	983.5	NA	NA		M	NA	NA	NA	NA
2019/11/22 04:35:00	AWS2	2.01	118	2.31	115	M	M	M	NA	NA	983.0	NA	NA		M	NA	NA	NA	NA
2019/11/22 04:36:00	AWS2	2.16	122	2.42	123	M	M	M	NA	NA	982.3	NA	NA		M	NA	NA	NA	NA
2019/11/22 04:37:00	AWS2	2.27	121	2.57	116	M	M	M	NA	NA	983.6	NA	NA		M	NA	NA	NA	NA
2019/11/22 04:38:00	AWS2	2.54	121	3.04	118	M	M	M	NA	NA	984.9	NA	NA		M	NA	NA	NA	NA
2019/11/22 04:39:00	AWS2	2.70	123	3.04	118	M	M	M	NA	NA	985.1	NA	NA		M	NA	NA	NA	NA
2019/11/22 04:40:00	AWS2	2.43	126	3.04	118	M	M	M	NA	NA	984.9	NA	NA		M	NA	NA	NA	NA
2019/11/22 04:41:00	AWS2	2.25	128	3.04	118	M	M	M	NA	NA	985.0	NA	NA		M	NA	NA	NA	NA
2019/11/22 04:42:00	AWS2	2.19	125	3.04	118	M	M	M	NA	NA	984.5	NA	NA		M	NA	NA	NA	NA
2019/11/22 04:43:00	AWS2	2.29	121	3.04	118	M	M	M	NA	NA	984.0	NA	NA		M	NA	NA	NA	NA
2019/11/22 04:44:00	AWS2	2.38	118	3.04	118	M	M	M	NA	NA	985.5	NA	NA		M	NA	NA	NA	NA
2019/11/22 04:45:00	AWS2	2.31	116	3.04	118	M	M	M	NA	NA	981.5	NA	NA		M	NA	NA	NA	NA
2019/11/22 04:46:00	AWS2	2.41	117	3.04	118	M	M	M	NA	NA	982.8	NA	NA		M	NA	NA	NA	NA
2019/11/22 04:47:00	AWS2	2.60	118	3.09	116	M	M	M	NA	NA	983.6	NA	NA		M	NA	NA	NA	NA
2019/11/22 04:48:00	AWS2	2.58	117	3.09	116	M	M	M	NA	NA	983.8	NA	NA		M	NA	NA	NA	NA
2019/11/22 04:49:01	AWS2	2.84	116	3.65	112	M	M	M	NA	NA	984.2	NA	NA		M	NA	NA	NA	NA
2019/11/22 04:50:00	AWS2	3.08	116	3.65	112	M	M	M	NA	NA	981.7	NA	NA		M	NA	NA	NA	NA
2019/11/22 04:51:01	AWS2	3.11	114	3.65	111	M	M	M	NA	NA	983.2	NA	NA		M	NA	NA	NA	NA
2019/11/22 04:52:00	AWS2	3.27	111	3.65	111	M	M	M	NA	NA	983.7	NA	NA		M	NA	NA	NA	NA
2019/11/22 04:53:00	AWS2	3.40	109	4.01	114	M	M	M	NA	NA	982.4	NA	NA		M	NA	NA	NA	NA
2019/11/22 04:54:01	AWS2	3.48	111	4.01	114	M	M	M	NA	NA	983.1	NA	NA		M	NA	NA	NA	NA
2019/11/22 04:55:00	AWS2	3.59	112	4.01	114	M	M	M	NA	NA	984.1	NA	NA		M	NA	NA	NA	NA
2019/11/22 04:56:00	AWS2	3.71	110	4.01	114	M	M	M	NA	NA	982.8	NA	NA		M	NA	NA	NA	NA
2019/11/22 04:57:00	AWS2	3.64	109	4.01	114	M	M	M	NA	NA	984.7	NA	NA		M	NA	NA	NA	NA
2019/11/22 04:58:00	AWS2	3.70	109	4.17	118	M	M	M	NA	NA	984.6	NA	NA		M	NA	NA	NA	NA
2019/11/22 04:59:00	AWS2	3.90	109	4.27	113	M	M	M	NA	NA	984.3	NA	NA		M	NA	NA	NA	NA
2019/11/22 05:00:00	AWS2	3.87	111	4.32	104	M	M	M	NA	NA	984.0	NA	NA		M	NA	NA	NA	NA
2019/11/22 05:01:00	AWS2	3.69	110	4.32	104	M	M	M	NA	NA	984.2	NA	NA		M	NA	NA	NA	NA
2019/11/22 05:02:00	AWS2	3.61	106	4.32	107	M	M	M	NA	NA	983.7	NA	NA		M	NA	NA	NA	NA
2019/11/22 05:03:00	AWS2	3.37	105	4.32	107	M	M	M	NA	NA	982.9	NA	NA		M	NA	NA	NA	NA
2019/11/22 05:04:00	AWS2	3.21	105	4.32	107	M	M	M	NA	NA	983.8	NA	NA		M	NA	NA	NA	NA
2019/11/22 05:05:01	AWS2	3.14	104	4.32	107	M	M	M	NA	NA	984.6	NA	NA		M	NA	NA	NA	NA
2019/11/22 05:06:01	AWS2	2.95	102	4.32	107	M	M	M	NA	NA	985.2	NA	NA		M	NA	NA	NA	NA
2019/11/22 05:07:01	AWS2	2.78	100	4.32	107	M	M	M	NA	NA	985.0	NA	NA		M	NA	NA	NA	NA
2019/11/22 05:08:01	AWS2	2.57	98	4.32	107	M	M	M	NA	NA	985.0	NA	NA		M	NA	NA	NA	NA
2019/11/22 05:09:01	AWS2	2.59	96	4.32	107	M	M	M	NA	NA	984.6	NA	NA		M	NA	NA	NA	NA
2019/11/22 05:10:01	AWS2	2.80	94	4.32	107	M	M	M	NA	NA	983.7	NA	NA		M	NA	NA	NA	NA
2019/11/22 05:11:01	AWS2	3.01	92	4.32	107	M	M	M	NA	NA	981.5	NA	NA		M	NA	NA	NA	NA
2019/11/22 05:12:01	AWS2	3.18	92	3.70	93	M	M	M	NA	NA	984.1	NA	NA		M	NA	NA	NA	NA
2019/11/22 05:13:01	AWS2	3.20	90	3.70	93	M	M	M	NA	NA	983.8	NA	NA		M	NA	NA	NA	NA
2019/11/22 05:14:01	AWS2	3.01	88	3.70	93	M	M	M	NA	NA	983.3	NA	NA		M	NA	NA	NA	NA
2019/11/22 05:15:00	AWS2	2.95	87	3.70	93	M	M	M	NA	NA	984.9	NA	NA		M	NA	NA	NA	NA
2019/11/22 05:16:00	AWS2	3.14	86	3.70	90	M	M	M	NA	NA	983.0	NA	NA		M	NA	NA	NA	NA
2019/11/22 05:17:00	AWS2	3.14	86	3.70	90	M	M	M	NA	NA	984.8	NA	NA		M	NA	NA	NA	NA
2019/11/22 05:18:00	AWS2	3.06	86	3.70	90	M	M	M	NA	NA	984.6	NA	NA		M	NA	NA	NA	NA
2019/11/22 05:19:00	AWS2	3.02	86	3.70	90	M	M	M	NA	NA	983.9	NA	NA		M	NA	NA	NA	NA
2019/11/22 05:20:00	AWS2	2.93	87	3.70	90	M	M	M	NA	NA	984.3	NA	NA		M	NA	NA	NA	NA
2019/11/22 05:21:00	AWS2	2.89	87	3.70	90	M	M	M	NA	NA	982.9	NA	NA		M	NA	NA	NA	NA
2019/11/22 05:22:00	AWS2	2.80	86	3.70	90	M	M	M	NA	NA	985.1	NA	NA		M	NA	NA	NA	NA
2019/11/22 05:23:00	AWS2	2.74	87	3.70	90	M	M	M	NA	NA	984.5	NA	NA		M	NA	NA	NA	NA
2019/11/22 05:24:00	AWS2	2.55	85	3.70	90	M	M	M	NA	NA	984.8	NA	NA		M	NA	NA	NA	NA
2019/11/22 05:25:00	AWS2	2.52	83	3.70	90	M	M	M	NA	NA	985.3	NA	NA		M	NA	NA	NA	NA
2019/11/22 05:26:00	AWS2	2.61	84	3.60	81	M	M	M	NA	NA	983.9	NA	NA		M	NA	NA	NA	NA
2019/11/22 05:27:00	AWS2	2.50	84	3.34	89	M	M	M	NA	NA	983.9	NA	NA		M	NA	NA	NA	NA
2019/11/22 05:28:00	AWS2	2.57	83	3.34	89	M	M	M	NA	NA	982.0	NA	NA		M	NA	NA	NA	NA
2019/11/22 05:29:00	AWS2	2.57	79	3.29	82	M	M	M	NA	NA	985.0	NA	NA		M	NA	NA	NA	NA
2019/11/22 05:30:00	AWS2	2.33	72	3.19	86	M	M	M	NA	NA	984.6	NA	NA		M	NA	NA	NA	NA
2019/11/22 05:31:00	AWS2	2.17	66	2.93	81	M	M	M	NA	NA	984.8	NA	NA		M	NA	NA	NA	NA
2019/11/22 05:32:00	AWS2	2.20	63	2.93	81	M	M	M	NA	NA	983.8	NA	NA		M	NA	NA	NA	NA
2019/11/22 05:33:00	AWS2	2.29	60	2.93	81	M	M	M	NA	NA	982.7	NA	NA		M	NA	NA	NA	NA
2019/11/22 05:34:00	AWS2	2.33	56	2.93	81	M	M	M	NA	NA	984.9	NA	NA		M	NA	NA	NA	NA
2019/11/22 05:35:00	AWS2	2.31	52	2.88	88	M	M	M	NA	NA	985.1	NA	NA		M	NA	NA	NA	NA
2019/11/22 05:36:00	AWS2	2.24	47	2.88	88	M	M	M	NA	NA	983.8	NA	NA		M	NA	NA	NA	NA
2019/11/22 05:37:00	AWS2	2.18	42	2.88	88	M	M	M	NA	NA	983.7	NA	NA		M	NA	NA	NA	NA
2019/11/22 05:38:00	AWS2	2.31	35	2.73	79	M	M	M	NA	NA	982.5	NA	NA		M	NA	NA	NA	NA
2019/11/22 05:39:00	AWS2	2.41	30	2.62	36	M	M	M	NA	NA	982.2	NA	NA		M	NA	NA	NA	NA
2019/11/22 05:40:00	AWS2	2.24	27	2.62	36	M	M	M	NA	NA	983.2	NA	NA		M	NA	NA	NA	NA
2019/11/22 05:41:00	AWS2	2.29	27	2.68	31	M	M	M	NA	NA	982.3	NA	NA		M	NA	NA	NA	NA
2019/11/22 05:42:00	AWS2	2.55	25	2.93	32	M	M	M	NA	NA	983.0	NA	NA		M	NA	NA	NA	NA
2019/11/22 05:43:00	AWS2	2.56	21	2.93	32	M	M	M	NA	NA	985.5	NA	NA		M	NA	NA	NA	NA
2019/11/22 05:44:00	AWS2	2.61	18	2.93	32	M	M	M	NA	NA	984.4	NA	NA		M	NA	NA	NA	NA
2019/11/22 05:45:00	AWS2	2.87	17	3.50	20	M	M	M	NA	NA	984.9	NA	NA		M	NA	NA	NA	NA
2019/11/22 05:46:00	AWS2	3.17	16	3.50	20	M	M	M	NA	NA	983.8	NA	NA		M	NA	NA	NA	NA
2019/11/22 05:47:00	AWS2	3.42	18	3.81	16	M	M	M	NA	NA	984.0	NA	NA		M	NA	NA	NA	NA
2019/11/22 05:48:00	AWS2	3.65	20	4.06	18	M	M	M	NA	NA	984.3	NA	NA		M	NA	NA	NA	NA
2019/11/22 05:49:00	AWS2	3.68	17	4.12	13	M	M	M	NA	NA	983.2	NA	NA		M	NA	NA	NA	NA
2019/11/22 05:50:00	AWS2	3.41	15	4.12	13	M	M	M	NA	NA	984.0	NA	NA		M	NA	NA	NA	NA
2019/11/22 05:51:00	AWS2	3.08	15	4.12	13	M	M	M	NA	NA	983.0	NA	NA		M	NA	NA	NA	NA
2019/11/22 05:52:00	AWS2	2.85	15	4.12	13	M	M	M	NA	NA	984.0	NA	NA		M	NA	NA	NA	NA
2019/11/22 05:53:00	AWS2	2.83	15	4.12	13	M	M	M	NA	NA	982.8	NA	NA		M	NA	NA	NA	NA
2019/11/22 05:54:00	AWS2	2.95	15	4.12	13	M	M	M	NA	NA	983.4	NA	NA		M	NA	NA	NA	NA
2019/11/22 05:55:00	AWS2	3.03	19	4.12	13	M	M	M	NA	NA	982.5	NA	NA		M	NA	NA	NA	NA
2019/11/22 05:56:00	AWS2	3.03	24	4.12	13	M	M	M	NA	NA	982.6	NA	NA		M	NA	NA	NA	NA
2019/11/22 05:57:00	AWS2	2.92	29	4.12	13	M	M	M	NA	NA	983.3	NA	NA		M	NA	NA	NA	NA
2019/11/22 05:58:00	AWS2	2.78	33	4.12	13	M	M	M	NA	NA	982.5	NA	NA		M	NA	NA	NA	NA
2019/11/22 05:59:00	AWS2	2.92	33	3.50	11	M	M	M	NA	NA	983.2	NA	NA		M	NA	NA	NA	NA
2019/11/22 06:00:00	AWS2	3.04	34	3.34	23	M	M	M	NA	NA	984.6	NA	NA		M	NA	NA	NA	NA
2019/11/22 06:01:00	AWS2	2.72	35	3.34	23	M	M	M	NA	NA	983.9	NA	NA		M	NA	NA	NA	NA
2019/11/22 06:02:00	AWS2	2.43	37	3.34	23	M	M	M	NA	NA	985.1	NA	NA		M	NA	NA	NA	NA
2019/11/22 06:03:00	AWS2	2.36	37	3.34	23	M	M	M	NA	NA	985.3	NA	NA		M	NA	NA	NA	NA
2019/11/22 06:04:00	AWS2	2.49	31	3.34	23	M	M	M	NA	NA	983.5	NA	NA		M	NA	NA	NA	NA
2019/11/22 06:05:00	AWS2	2.78	28	3.34	23	M	M	M	NA	NA	984.9	NA	NA		M	NA	NA	NA	NA
2019/11/22 06:06:00	AWS2	2.88	29	3.24	27	M	M	M	NA	NA	984.3	NA	NA		M	NA	NA	NA	NA
2019/11/22 06:07:00	AWS2	2.78	31	3.24	27	M	M	M	NA	NA	983.8	NA	NA		M	NA	NA	NA	NA
2019/11/22 06:08:00	AWS2	2.54	31	3.24	27	M	M	M	NA	NA	984.9	NA	NA		M	NA	NA	NA	NA
2019/11/22 06:09:00	AWS2	2.31	31	3.24	27	M	M	M	NA	NA	983.1	NA	NA		M	NA	NA	NA	NA
2019/11/22 06:10:00	AWS2	2.15	33	3.19	28	M	M	M	NA	NA	984.8	NA	NA		M	NA	NA	NA	NA
2019/11/22 06:11:00	AWS2	1.84	34	3.19	28	M	M	M	NA	NA	985.1	NA	NA		M	NA	NA	NA	NA
2019/11/22 06:12:00	AWS2	1.60	41	3.19	28	M	M	M	NA	NA	985.2	NA	NA		M	NA	NA	NA	NA
2019/11/22 06:13:00	AWS2	1.65	50	3.19	28	M	M	M	NA	NA	985.7	NA	NA		M	NA	NA	NA	NA
2019/11/22 06:14:00	AWS2	1.69	50	3.19	28	M	M	M	NA	NA	984.8	NA	NA		M	NA	NA	NA	NA
2019/11/22 06:15:00	AWS2	1.55	44	3.19	28	M	M	M	NA	NA	984.5	NA	NA		M	NA	NA	NA	NA
2019/11/22 06:16:00	AWS2	1.42	37	2.93	29	M	M	M	NA	NA	984.9	NA	NA		M	NA	NA	NA	NA
2019/11/22 06:17:00	AWS2	1.61	33	2.52	27	M	M	M	NA	NA	983.9	NA	NA		M	NA	NA	NA	NA
2019/11/22 06:18:00	AWS2	1.74	33	2.31	39	M	M	M	NA	NA	985.7	NA	NA		M	NA	NA	NA	NA
2019/11/22 06:19:00	AWS2	1.48	31	2.26	43	M	M	M	NA	NA	983.4	NA	NA		M	NA	NA	NA	NA
2019/11/22 06:20:00	AWS2	1.23	33	1.95	34	M	M	M	NA	NA	985.1	NA	NA		M	NA	NA	NA	NA
2019/11/22 06:21:00	AWS2	1.13	42	1.95	34	M	M	M	NA	NA	983.4	NA	NA		M	NA	NA	NA	NA
2019/11/22 06:22:00	AWS2	1.18	47	1.95	34	M	M	M	NA	NA	983.0	NA	NA		M	NA	NA	NA	NA
2019/11/22 06:23:00	AWS2	1.24	45	1.95	34	M	M	M	NA	NA	985.0	NA	NA		M	NA	NA	NA	NA
2019/11/22 06:24:00	AWS2	1.43	50	1.95	53	M	M	M	NA	NA	983.7	NA	NA		M	NA	NA	NA	NA
2019/11/22 06:25:00	AWS2	1.76	57	1.95	60	M	M	M	NA	NA	984.0	NA	NA		M	NA	NA	NA	NA
2019/11/22 06:26:00	AWS2	1.83	62	1.95	60	M	M	M	NA	NA	984.6	NA	NA		M	NA	NA	NA	NA
2019/11/22 06:27:00	AWS2	1.77	70	1.95	73	M	M	M	NA	NA	983.5	NA	NA		M	NA	NA	NA	NA
2019/11/22 06:28:00	AWS2	1.76	74	1.95	73	M	M	M	NA	NA	984.7	NA	NA		M	NA	NA	NA	NA
2019/11/22 06:29:00	AWS2	1.67	79	1.95	73	M	M	M	NA	NA	985.2	NA	NA		M	NA	NA	NA	NA
2019/11/22 06:30:00	AWS2	1.47	72	1.95	73	M	M	M	NA	NA	983.5	NA	NA		M	NA	NA	NA	NA
2019/11/22 06:31:00	AWS2	1.35	63	1.95	73	M	M	M	NA	NA	983.6	NA	NA		M	NA	NA	NA	NA
2019/11/22 06:32:00	AWS2	1.26	62	1.95	73	M	M	M	NA	NA	983.3	NA	NA		M	NA	NA	NA	NA
2019/11/22 06:33:00	AWS2	1.18	66	1.95	73	M	M	M	NA	NA	984.8	NA	NA		M	NA	NA	NA	NA
2019/11/22 06:34:00	AWS2	1.10	68	1.95	73	M	M	M	NA	NA	983.2	NA	NA		M	NA	NA	NA	NA
2019/11/22 06:35:00	AWS2	0.82	59	1.95	73	M	M	M	NA	NA	984.1	NA	NA		M	NA	NA	NA	NA
2019/11/22 06:36:00	AWS2	0.46	55	1.95	73	M	M	M	NA	NA	983.6	NA	NA		M	NA	NA	NA	NA
2019/11/22 06:37:00	AWS2	0.41	68	1.90	67	M	M	M	NA	NA	983.3	NA	NA		M	NA	NA	NA	NA
2019/11/22 06:38:00	AWS2	0.91	81	1.80	87	M	M	M	NA	NA	982.9	NA	NA		M	NA	NA	NA	NA
2019/11/22 06:39:00	AWS2	1.46	88	1.75	99	M	M	M	NA	NA	985.6	NA	NA		M	NA	NA	NA	NA
2019/11/22 06:40:00	AWS2	1.62	96	1.75	104	M	M	M	NA	NA	984.2	NA	NA		M	NA	NA	NA	NA
2019/11/22 06:41:00	AWS2	1.71	106	1.95	119	M	M	M	NA	NA	983.6	NA	NA		M	NA	NA	NA	NA
2019/11/22 06:42:00	AWS2	1.75	114	1.95	119	M	M	M	NA	NA	983.3	NA	NA		M	NA	NA	NA	NA
2019/11/22 06:43:00	AWS2	1.66	118	1.95	119	M	M	M	NA	NA	984.1	NA	NA		M	NA	NA	NA	NA
2019/11/22 06:44:01	AWS2	1.60	118	1.95	119	M	M	M	NA	NA	982.6	NA	NA		M	NA	NA	NA	NA
2019/11/22 06:45:00	AWS2	1.57	115	1.95	119	M	M	M	NA	NA	984.5	NA	NA		M	NA	NA	NA	NA
2019/11/22 06:46:00	AWS2	1.45	111	1.95	119	M	M	M	NA	NA	985.0	NA	NA		M	NA	NA	NA	NA
2019/11/22 06:47:00	AWS2	1.29	110	1.95	119	M	M	M	NA	NA	983.0	NA	NA		M	NA	NA	NA	NA
2019/11/22 06:48:00	AWS2	1.23	116	1.95	119	M	M	M	NA	NA	982.6	NA	NA		M	NA	NA	NA	NA
2019/11/22 06:49:00	AWS2	1.32	133	1.95	119	M	M	M	NA	NA	983.4	NA	NA		M	NA	NA	NA	NA
2019/11/22 06:50:00	AWS2	1.39	141	1.95	119	M	M	M	NA	NA	983.9	NA	NA		M	NA	NA	NA	NA
2019/11/22 06:51:00	AWS2	1.35	131	1.90	112	M	M	M	NA	NA	984.3	NA	NA		M	NA	NA	NA	NA
2019/11/22 06:52:00	AWS2	1.27	119	1.90	112	M	M	M	NA	NA	983.4	NA	NA		M	NA	NA	NA	NA
2019/11/22 06:53:00	AWS2	0.99	117	1.80	146	M	M	M	NA	NA	983.1	NA	NA		M	NA	NA	NA	NA
2019/11/22 06:54:00	AWS2	0.52	122	1.80	146	M	M	M	NA	NA	984.8	NA	NA		M	NA	NA	NA	NA
2019/11/22 06:55:00	AWS2	0.31	125	1.80	146	M	M	M	NA	NA	983.6	NA	NA		M	NA	NA	NA	NA
2019/11/22 06:56:00	AWS2	0.41	126	1.80	146	M	M	M	NA	NA	984.4	NA	NA		M	NA	NA	NA	NA
2019/11/22 06:57:00	AWS2	0.87	127	1.80	146	M	M	M	NA	NA	984.1	NA	NA		M	NA	NA	NA	NA
2019/11/22 06:58:00	AWS2	1.44	133	2.01	132	M	M	M	NA	NA	983.8	NA	NA		M	NA	NA	NA	NA
2019/11/22 06:59:00	AWS2	1.71	138	2.01	132	M	M	M	NA	NA	983.6	NA	NA		M	NA	NA	NA	NA
2019/11/22 07:00:00	AWS2	1.84	141	2.06	142	M	M	M	NA	NA	982.3	NA	NA		M	NA	NA	NA	NA
2019/11/22 07:01:00	AWS2	1.93	146	2.21	136	M	M	M	NA	NA	983.5	NA	NA		M	NA	NA	NA	NA
2019/11/22 07:02:00	AWS2	1.95	148	2.21	136	M	M	M	NA	NA	983.4	NA	NA		M	NA	NA	NA	NA
2019/11/22 07:03:00	AWS2	1.87	150	2.21	149	M	M	M	NA	NA	982.5	NA	NA		M	NA	NA	NA	NA
2019/11/22 07:04:00	AWS2	1.99	146	2.62	132	M	M	M	NA	NA	984.2	NA	NA		M	NA	NA	NA	NA
2019/11/22 07:05:00	AWS2	2.11	139	2.62	132	M	M	M	NA	NA	984.3	NA	NA		M	NA	NA	NA	NA
2019/11/22 07:06:00	AWS2	2.00	138	2.62	132	M	M	M	NA	NA	982.9	NA	NA		M	NA	NA	NA	NA
2019/11/22 07:07:00	AWS2	1.77	143	2.62	132	M	M	M	NA	NA	984.0	NA	NA		M	NA	NA	NA	NA
2019/11/22 07:08:00	AWS2	1.67	147	2.62	132	M	M	M	NA	NA	982.8	NA	NA		M	NA	NA	NA	NA
2019/11/22 07:09:00	AWS2	1.71	146	2.62	132	M	M	M	NA	NA	983.6	NA	NA		M	NA	NA	NA	NA
2019/11/22 07:10:00	AWS2	1.88	144	2.62	132	M	M	M	NA	NA	984.7	NA	NA		M	NA	NA	NA	NA
2019/11/22 07:11:00	AWS2	2.23	143	2.62	142	M	M	M	NA	NA	983.5	NA	NA		M	NA	NA	NA	NA
2019/11/22 07:12:00	AWS2	2.26	140	2.62	142	M	M	M	NA	NA	983.7	NA	NA		M	NA	NA	NA	NA
2019/11/22 07:13:00	AWS2	2.16	134	2.62	142	M	M	M	NA	NA	984.5	NA	NA		M	NA	NA	NA	NA
2019/11/22 07:14:00	AWS2	2.19	131	2.62	142	M	M	M	NA	NA	982.6	NA	NA		M	NA	NA	NA	NA
2019/11/22 07:15:00	AWS2	2.08	138	2.62	142	M	M	M	NA	NA	983.9	NA	NA		M	NA	NA	NA	NA
2019/11/22 07:16:00	AWS2	2.01	142	2.62	142	M	M	M	NA	NA	984.0	NA	NA		M	NA	NA	NA	NA
2019/11/22 07:17:00	AWS2	2.00	141	2.62	142	M	M	M	NA	NA	984.7	NA	NA		M	NA	NA	NA	NA
2019/11/22 07:18:00	AWS2	2.09	139	2.62	142	M	M	M	NA	NA	984.5	NA	NA		M	NA	NA	NA	NA
2019/11/22 07:19:00	AWS2	2.31	137	2.62	137	M	M	M	NA	NA	983.5	NA	NA		M	NA	NA	NA	NA
2019/11/22 07:20:00	AWS2	2.42	138	2.73	135	M	M	M	NA	NA	983.5	NA	NA		M	NA	NA	NA	NA
2019/11/22 07:21:00	AWS2	2.53	137	2.98	138	M	M	M	NA	NA	983.2	NA	NA		M	NA	NA	NA	NA
2019/11/22 07:22:00	AWS2	2.53	131	3.04	122	M	M	M	NA	NA	984.5	NA	NA		M	NA	NA	NA	NA
2019/11/22 07:23:00	AWS2	2.52	126	3.04	122	M	M	M	NA	NA	984.8	NA	NA		M	NA	NA	NA	NA
2019/11/22 07:24:00	AWS2	2.62	124	3.04	122	M	M	M	NA	NA	983.6	NA	NA		M	NA	NA	NA	NA
2019/11/22 07:25:00	AWS2	2.34	118	3.04	122	M	M	M	NA	NA	984.2	NA	NA		M	NA	NA	NA	NA
2019/11/22 07:26:00	AWS2	2.02	114	3.04	122	M	M	M	NA	NA	983.9	NA	NA		M	NA	NA	NA	NA
2019/11/22 07:27:00	AWS2	2.10	111	3.04	122	M	M	M	NA	NA	984.6	NA	NA		M	NA	NA	NA	NA
2019/11/22 07:28:00	AWS2	2.54	111	3.60	123	M	M	M	NA	NA	982.9	NA	NA		M	NA	NA	NA	NA
2019/11/22 07:29:00	AWS2	2.98	116	3.65	115	M	M	M	NA	NA	984.7	NA	NA		M	NA	NA	NA	NA
2019/11/22 07:30:00	AWS2	3.51	119	4.68	131	M	M	M	NA	NA	984.1	NA	NA		M	NA	NA	NA	NA
2019/11/22 07:31:00	AWS2	4.23	115	4.99	104	M	M	M	NA	NA	984.3	NA	NA		M	NA	NA	NA	NA
2019/11/22 07:32:00	AWS2	4.45	110	4.99	110	M	M	M	NA	NA	984.4	NA	NA		M	NA	NA	NA	NA
2019/11/22 07:33:00	AWS2	4.38	108	4.99	110	M	M	M	NA	NA	983.7	NA	NA		M	NA	NA	NA	NA
2019/11/22 07:34:00	AWS2	4.30	108	4.99	110	M	M	M	NA	NA	983.9	NA	NA		M	NA	NA	NA	NA
2019/11/22 07:35:00	AWS2	4.33	106	5.35	101	M	M	M	NA	NA	984.5	NA	NA		M	NA	NA	NA	NA
2019/11/22 07:36:00	AWS2	4.40	106	5.35	101	M	M	M	NA	NA	984.5	NA	NA		M	NA	NA	NA	NA
2019/11/22 07:37:00	AWS2	4.28	110	5.35	101	M	M	M	NA	NA	984.5	NA	NA		M	NA	NA	NA	NA
2019/11/22 07:38:00	AWS2	4.71	110	5.61	106	M	M	M	NA	NA	983.2	NA	NA		M	NA	NA	NA	NA
2019/11/22 07:39:00	AWS2	4.91	108	5.61	106	M	M	M	NA	NA	983.4	NA	NA		M	NA	NA	NA	NA
2019/11/22 07:40:00	AWS2	4.79	107	5.61	117	M	M	M	NA	NA	983.4	NA	NA		M	NA	NA	NA	NA
2019/11/22 07:41:00	AWS2	4.80	107	5.61	117	M	M	M	NA	NA	984.4	NA	NA		M	NA	NA	NA	NA
2019/11/22 07:42:00	AWS2	4.78	107	5.61	117	M	M	M	NA	NA	984.4	NA	NA		M	NA	NA	NA	NA
2019/11/22 07:43:00	AWS2	4.88	104	5.61	117	M	M	M	NA	NA	984.5	NA	NA		M	NA	NA	NA	NA
2019/11/22 07:44:00	AWS2	4.53	102	5.61	117	M	M	M	NA	NA	984.6	NA	NA		M	NA	NA	NA	NA
2019/11/22 07:45:00	AWS2	4.40	102	5.61	117	M	M	M	NA	NA	983.2	NA	NA		M	NA	NA	NA	NA
2019/11/22 07:46:00	AWS2	4.24	100	5.61	117	M	M	M	NA	NA	983.2	NA	NA		M	NA	NA	NA	NA
2019/11/22 07:47:00	AWS2	4.19	101	5.61	117	M	M	M	NA	NA	984.5	NA	NA		M	NA	NA	NA	NA
2019/11/22 07:48:00	AWS2	4.34	102	5.61	117	M	M	M	NA	NA	983.4	NA	NA		M	NA	NA	NA	NA
2019/11/22 07:49:00	AWS2	4.08	99	5.61	117	M	M	M	NA	NA	984.6	NA	NA		M	NA	NA	NA	NA
2019/11/22 07:50:00	AWS2	4.12	96	5.50	106	M	M	M	NA	NA	983.5	NA	NA		M	NA	NA	NA	NA
2019/11/22 07:51:00	AWS2	3.87	95	5.35	94	M	M	M	NA	NA	984.4	NA	NA		M	NA	NA	NA	NA
2019/11/22 07:52:00	AWS2	3.39	95	5.35	94	M	M	M	NA	NA	984.1	NA	NA		M	NA	NA	NA	NA
2019/11/22 07:53:00	AWS2	3.28	95	5.25	104	M	M	M	NA	NA	984.8	NA	NA		M	NA	NA	NA	NA
2019/11/22 07:54:00	AWS2	3.45	96	5.25	104	M	M	M	NA	NA	983.8	NA	NA		M	NA	NA	NA	NA
2019/11/22 07:55:00	AWS2	3.49	99	4.78	99	M	M	M	NA	NA	984.1	NA	NA		M	NA	NA	NA	NA
2019/11/22 07:56:00	AWS2	3.46	105	4.78	99	M	M	M	NA	NA	984.3	NA	NA		M	NA	NA	NA	NA
2019/11/22 07:57:00	AWS2	3.85	110	4.78	99	M	M	M	NA	NA	983.9	NA	NA		M	NA	NA	NA	NA
2019/11/22 07:58:00	AWS2	3.99	111	4.68	99	M	M	M	NA	NA	984.1	NA	NA		M	NA	NA	NA	NA
2019/11/22 07:59:00	AWS2	3.70	108	4.68	99	M	M	M	NA	NA	984.6	NA	NA		M	NA	NA	NA	NA
2019/11/22 08:00:00	AWS2	3.73	104	4.58	112	M	M	M	NA	NA	984.2	NA	NA		M	NA	NA	NA	NA
2019/11/22 08:01:00	AWS2	3.81	105	4.58	112	M	M	M	NA	NA	984.3	NA	NA		M	NA	NA	NA	NA
2019/11/22 08:02:00	AWS2	3.64	107	4.58	112	M	M	M	NA	NA	984.5	NA	NA		M	NA	NA	NA	NA
2019/11/22 08:03:00	AWS2	3.69	109	4.58	112	M	M	M	NA	NA	984.2	NA	NA		M	NA	NA	NA	NA
2019/11/22 08:04:00	AWS2	3.83	109	4.58	112	M	M	M	NA	NA	984.3	NA	NA		M	NA	NA	NA	NA
2019/11/22 08:05:00	AWS2	3.98	108	4.89	103	M	M	M	NA	NA	984.2	NA	NA		M	NA	NA	NA	NA
2019/11/22 08:06:00	AWS2	4.23	106	4.89	103	M	M	M	NA	NA	984.5	NA	NA		M	NA	NA	NA	NA
2019/11/22 08:07:00	AWS2	4.36	108	4.89	103	M	M	M	NA	NA	984.8	NA	NA		M	NA	NA	NA	NA
2019/11/22 08:08:00	AWS2	4.26	108	5.14	108	M	M	M	NA	NA	985.1	NA	NA		M	NA	NA	NA	NA
2019/11/22 08:09:00	AWS2	3.91	107	5.14	108	M	M	M	NA	NA	984.5	NA	NA		M	NA	NA	NA	NA
2019/11/22 08:10:00	AWS2	3.63	109	5.14	108	M	M	M	NA	NA	984.6	NA	NA		M	NA	NA	NA	NA
2019/11/22 08:11:00	AWS2	3.59	110	5.14	108	M	M	M	NA	NA	984.5	NA	NA		M	NA	NA	NA	NA
2019/11/22 08:12:00	AWS2	3.67	109	5.14	108	M	M	M	NA	NA	984.3	NA	NA		M	NA	NA	NA	NA
2019/11/22 08:13:00	AWS2	3.82	107	5.14	108	M	M	M	NA	NA	983.8	NA	NA		M	NA	NA	NA	NA
2019/11/22 08:14:00	AWS2	3.88	109	5.14	108	M	M	M	NA	NA	984.8	NA	NA		M	NA	NA	NA	NA
2019/11/22 08:15:00	AWS2	3.87	114	5.14	108	M	M	M	NA	NA	985.2	NA	NA		M	NA	NA	NA	NA
2019/11/22 08:16:00	AWS2	4.15	112	5.14	108	M	M	M	NA	NA	984.8	NA	NA		M	NA	NA	NA	NA
2019/11/22 08:17:00	AWS2	4.65	112	5.30	121	M	M	M	NA	NA	984.3	NA	NA		M	NA	NA	NA	NA
2019/11/22 08:18:00	AWS2	4.91	113	5.71	109	M	M	M	NA	NA	984.6	NA	NA		M	NA	NA	NA	NA
2019/11/22 08:19:00	AWS2	4.61	112	5.71	109	M	M	M	NA	NA	984.5	NA	NA		M	NA	NA	NA	NA
2019/11/22 08:20:00	AWS2	4.00	108	5.71	109	M	M	M	NA	NA	984.0	NA	NA		M	NA	NA	NA	NA
2019/11/22 08:21:00	AWS2	3.66	102	5.71	109	M	M	M	NA	NA	984.6	NA	NA		M	NA	NA	NA	NA
2019/11/22 08:22:00	AWS2	3.68	97	5.71	109	M	M	M	NA	NA	984.8	NA	NA		M	NA	NA	NA	NA
2019/11/22 08:23:00	AWS2	3.95	93	5.71	109	M	M	M	NA	NA	984.4	NA	NA		M	NA	NA	NA	NA
2019/11/22 08:24:00	AWS2	4.18	90	5.71	109	M	M	M	NA	NA	984.2	NA	NA		M	NA	NA	NA	NA
2019/11/22 08:25:00	AWS2	4.01	89	5.71	109	M	M	M	NA	NA	984.3	NA	NA		M	NA	NA	NA	NA
2019/11/22 08:26:00	AWS2	3.86	88	5.71	109	M	M	M	NA	NA	984.2	NA	NA		M	NA	NA	NA	NA
2019/11/22 08:27:00	AWS2	4.10	92	5.71	109	M	M	M	NA	NA	984.5	NA	NA		M	NA	NA	NA	NA
2019/11/22 08:28:00	AWS2	4.21	99	5.14	87	M	M	M	NA	NA	984.1	NA	NA		M	NA	NA	NA	NA
2019/11/22 08:29:00	AWS2	4.40	106	5.14	87	M	M	M	NA	NA	984.9	NA	NA		M	NA	NA	NA	NA
2019/11/22 08:30:00	AWS2	4.73	110	5.14	87	M	M	M	NA	NA	984.7	NA	NA		M	NA	NA	NA	NA
2019/11/22 08:31:00	AWS2	4.64	111	5.14	87	M	M	M	NA	NA	985.1	NA	NA		M	NA	NA	NA	NA
2019/11/22 08:32:00	AWS2	4.73	111	5.66	108	M	M	M	NA	NA	983.4	NA	NA		M	NA	NA	NA	NA
2019/11/22 08:33:00	AWS2	4.74	110	5.66	108	M	M	M	NA	NA	983.6	NA	NA		M	NA	NA	NA	NA
2019/11/22 08:34:00	AWS2	4.56	107	5.66	108	M	M	M	NA	NA	985.0	NA	NA		M	NA	NA	NA	NA
2019/11/22 08:35:00	AWS2	4.33	105	5.66	108	M	M	M	NA	NA	984.7	NA	NA		M	NA	NA	NA	NA
2019/11/22 08:36:00	AWS2	4.06	104	5.66	108	M	M	M	NA	NA	984.7	NA	NA		M	NA	NA	NA	NA
2019/11/22 08:37:00	AWS2	3.97	100	5.66	108	M	M	M	NA	NA	984.6	NA	NA		M	NA	NA	NA	NA
2019/11/22 08:38:00	AWS2	3.88	96	5.66	108	M	M	M	NA	NA	983.8	NA	NA		M	NA	NA	NA	NA
2019/11/22 08:39:00	AWS2	4.24	94	5.66	108	M	M	M	NA	NA	984.0	NA	NA		M	NA	NA	NA	NA
2019/11/22 08:40:00	AWS2	4.52	96	5.66	108	M	M	M	NA	NA	984.7	NA	NA		M	NA	NA	NA	NA
2019/11/22 08:41:00	AWS2	4.30	101	5.66	108	M	M	M	NA	NA	984.8	NA	NA		M	NA	NA	NA	NA
2019/11/22 08:42:00	AWS2	3.94	106	5.45	93	M	M	M	NA	NA	985.0	NA	NA		M	NA	NA	NA	NA
2019/11/22 08:43:00	AWS2	3.58	107	5.45	93	M	M	M	NA	NA	984.0	NA	NA		M	NA	NA	NA	NA
2019/11/22 08:44:00	AWS2	3.76	103	5.45	93	M	M	M	NA	NA	983.9	NA	NA		M	NA	NA	NA	NA
2019/11/22 08:45:00	AWS2	4.55	95	5.92	91	M	M	M	NA	NA	984.2	NA	NA		M	NA	NA	NA	NA
2019/11/22 08:46:00	AWS2	4.90	94	5.92	91	M	M	M	NA	NA	985.2	NA	NA		M	NA	NA	NA	NA
2019/11/22 08:47:00	AWS2	4.77	99	5.92	91	M	M	M	NA	NA	984.8	NA	NA		M	NA	NA	NA	NA
2019/11/22 08:48:00	AWS2	4.84	102	5.92	91	M	M	M	NA	NA	984.5	NA	NA		M	NA	NA	NA	NA
2019/11/22 08:49:00	AWS2	4.87	104	5.92	91	M	M	M	NA	NA	985.4	NA	NA		M	NA	NA	NA	NA
2019/11/22 08:50:00	AWS2	4.80	106	5.92	91	M	M	M	NA	NA	984.2	NA	NA		M	NA	NA	NA	NA
2019/11/22 08:51:00	AWS2	4.90	105	5.92	91	M	M	M	NA	NA	984.4	NA	NA		M	NA	NA	NA	NA
2019/11/22 08:52:00	AWS2	5.02	106	5.92	91	M	M	M	NA	NA	984.7	NA	NA		M	NA	NA	NA	NA
2019/11/22 08:53:00	AWS2	5.21	105	5.92	105	M	M	M	NA	NA	984.2	NA	NA		M	NA	NA	NA	NA
2019/11/22 08:54:00	AWS2	4.98	106	5.92	105	M	M	M	NA	NA	984.2	NA	NA		M	NA	NA	NA	NA
2019/11/22 08:55:00	AWS2	4.60	106	5.92	105	M	M	M	NA	NA	983.8	NA	NA		M	NA	NA	NA	NA
2019/11/22 08:56:00	AWS2	4.11	98	5.92	105	M	M	M	NA	NA	983.7	NA	NA		M	NA	NA	NA	NA
2019/11/22 08:57:00	AWS2	3.51	88	5.92	105	M	M	M	NA	NA	984.3	NA	NA		M	NA	NA	NA	NA
2019/11/22 08:58:00	AWS2	3.30	84	5.92	105	M	M	M	NA	NA	983.6	NA	NA		M	NA	NA	NA	NA
2019/11/22 08:59:00	AWS2	2.93	90	5.92	105	M	M	M	NA	NA	984.2	NA	NA		M	NA	NA	NA	NA
2019/11/22 09:00:00	AWS2	2.60	91	5.92	105	M	M	M	NA	NA	983.9	NA	NA		M	NA	NA	NA	NA
2019/11/22 09:01:00	AWS2	3.57	87	6.48	94	M	M	M	NA	NA	984.4	NA	NA		M	NA	NA	NA	NA
2019/11/22 09:02:00	AWS2	5.55	99	7.05	112	M	M	M	NA	NA	984.4	NA	NA		M	NA	NA	NA	NA
2019/11/22 09:03:00	AWS2	6.25	108	7.15	110	M	M	M	NA	NA	984.7	NA	NA		M	NA	NA	NA	NA
2019/11/22 09:04:00	AWS2	5.59	108	7.15	110	M	M	M	NA	NA	984.0	NA	NA		M	NA	NA	NA	NA
2019/11/22 09:05:00	AWS2	5.29	110	7.15	110	M	M	M	NA	NA	983.9	NA	NA		M	NA	NA	NA	NA
2019/11/22 09:06:00	AWS2	5.71	107	7.15	110	M	M	M	NA	NA	984.5	NA	NA		M	NA	NA	NA	NA
2019/11/22 09:07:00	AWS2	5.86	102	7.15	110	M	M	M	NA	NA	984.6	NA	NA		M	NA	NA	NA	NA
2019/11/22 09:08:00	AWS2	5.84	103	7.25	98	M	M	M	NA	NA	984.5	NA	NA		M	NA	NA	NA	NA
2019/11/22 09:09:00	AWS2	6.09	104	7.25	98	M	M	M	NA	NA	984.2	NA	NA		M	NA	NA	NA	NA
2019/11/22 09:10:00	AWS2	5.64	104	7.25	98	M	M	M	NA	NA	983.4	NA	NA		M	NA	NA	NA	NA
2019/11/22 09:11:00	AWS2	5.15	96	7.25	98	M	M	M	NA	NA	984.3	NA	NA		M	NA	NA	NA	NA
2019/11/22 09:12:00	AWS2	5.72	90	7.25	98	M	M	M	NA	NA	984.5	NA	NA		M	NA	NA	NA	NA
2019/11/22 09:13:00	AWS2	6.09	91	7.25	98	M	M	M	NA	NA	984.6	NA	NA		M	NA	NA	NA	NA
2019/11/22 09:14:00	AWS2	5.83	95	7.25	98	M	M	M	NA	NA	984.6	NA	NA		M	NA	NA	NA	NA
2019/11/22 09:15:00	AWS2	5.98	100	7.51	95	M	M	M	NA	NA	984.0	NA	NA		M	NA	NA	NA	NA
2019/11/22 09:16:00	AWS2	6.51	106	7.51	95	M	M	M	NA	NA	983.5	NA	NA		M	NA	NA	NA	NA
2019/11/22 09:17:00	AWS2	6.61	108	7.51	95	M	M	M	NA	NA	984.6	NA	NA		M	NA	NA	NA	NA
2019/11/22 09:18:00	AWS2	7.02	108	8.69	113	M	M	M	NA	NA	983.7	NA	NA		M	NA	NA	NA	NA
2019/11/22 09:19:00	AWS2	7.74	109	8.85	105	M	M	M	NA	NA	984.5	NA	NA		M	NA	NA	NA	NA
2019/11/22 09:20:00	AWS2	7.54	108	8.85	105	M	M	M	NA	NA	983.7	NA	NA		M	NA	NA	NA	NA
2019/11/22 09:21:00	AWS2	7.15	109	8.85	105	M	M	M	NA	NA	984.3	NA	NA		M	NA	NA	NA	NA
2019/11/22 09:22:00	AWS2	7.03	108	8.85	105	M	M	M	NA	NA	984.8	NA	NA		M	NA	NA	NA	NA
2019/11/22 09:23:00	AWS2	7.17	108	8.85	105	M	M	M	NA	NA	984.1	NA	NA		M	NA	NA	NA	NA
2019/11/22 09:24:00	AWS2	7.39	111	8.85	105	M	M	M	NA	NA	984.0	NA	NA		M	NA	NA	NA	NA
2019/11/22 09:25:00	AWS2	7.72	111	8.85	105	M	M	M	NA	NA	983.6	NA	NA		M	NA	NA	NA	NA
2019/11/22 09:26:00	AWS2	7.79	112	8.85	105	M	M	M	NA	NA	984.6	NA	NA		M	NA	NA	NA	NA
2019/11/22 09:27:00	AWS2	7.64	113	8.85	105	M	M	M	NA	NA	983.0	NA	NA		M	NA	NA	NA	NA
2019/11/22 09:28:00	AWS2	7.77	113	8.85	105	M	M	M	NA	NA	984.2	NA	NA		M	NA	NA	NA	NA
2019/11/22 09:29:00	AWS2	7.35	113	8.75	112	M	M	M	NA	NA	984.2	NA	NA		M	NA	NA	NA	NA
2019/11/22 09:30:00	AWS2	7.35	113	8.64	120	M	M	M	NA	NA	984.7	NA	NA		M	NA	NA	NA	NA
2019/11/22 09:31:00	AWS2	7.77	112	8.64	120	M	M	M	NA	NA	983.6	NA	NA		M	NA	NA	NA	NA
2019/11/22 09:32:00	AWS2	7.63	112	8.64	120	M	M	M	NA	NA	983.9	NA	NA		M	NA	NA	NA	NA
2019/11/22 09:33:00	AWS2	7.43	111	8.64	120	M	M	M	NA	NA	983.9	NA	NA		M	NA	NA	NA	NA
2019/11/22 09:34:00	AWS2	7.07	111	8.64	120	M	M	M	NA	NA	983.3	NA	NA		M	NA	NA	NA	NA
2019/11/22 09:35:00	AWS2	6.85	111	8.64	120	M	M	M	NA	NA	984.2	NA	NA		M	NA	NA	NA	NA
2019/11/22 09:36:00	AWS2	6.93	110	8.64	120	M	M	M	NA	NA	984.7	NA	NA		M	NA	NA	NA	NA
2019/11/22 09:37:00	AWS2	6.99	110	8.54	111	M	M	M	NA	NA	983.1	NA	NA		M	NA	NA	NA	NA
2019/11/22 09:38:00	AWS2	6.91	113	8.44	112	M	M	M	NA	NA	984.4	NA	NA		M	NA	NA	NA	NA
2019/11/22 09:39:00	AWS2	6.69	112	8.44	112	M	M	M	NA	NA	983.6	NA	NA		M	NA	NA	NA	NA
2019/11/22 09:40:00	AWS2	6.81	113	8.28	112	M	M	M	NA	NA	983.6	NA	NA		M	NA	NA	NA	NA
2019/11/22 09:41:00	AWS2	7.46	115	9.11	113	M	M	M	NA	NA	983.7	NA	NA		M	NA	NA	NA	NA
2019/11/22 09:42:00	AWS2	7.43	114	9.11	113	M	M	M	NA	NA	983.8	NA	NA		M	NA	NA	NA	NA
2019/11/22 09:43:00	AWS2	5.98	112	9.11	113	M	M	M	NA	NA	984.3	NA	NA		M	NA	NA	NA	NA
2019/11/22 09:44:00	AWS2	5.28	109	9.11	113	M	M	M	NA	NA	984.5	NA	NA		M	NA	NA	NA	NA
2019/11/22 09:45:00	AWS2	5.70	109	9.11	113	M	M	M	NA	NA	984.8	NA	NA		M	NA	NA	NA	NA
2019/11/22 09:46:00	AWS2	5.99	112	9.11	113	M	M	M	NA	NA	984.4	NA	NA		M	NA	NA	NA	NA
2019/11/22 09:47:00	AWS2	6.13	114	9.11	113	M	M	M	NA	NA	984.2	NA	NA		M	NA	NA	NA	NA
2019/11/22 09:48:00	AWS2	6.30	114	9.11	113	M	M	M	NA	NA	984.5	NA	NA		M	NA	NA	NA	NA
2019/11/22 09:49:00	AWS2	6.27	113	9.11	113	M	M	M	NA	NA	984.8	NA	NA		M	NA	NA	NA	NA
2019/11/22 09:50:00	AWS2	6.61	114	9.11	113	M	M	M	NA	NA	984.0	NA	NA		M	NA	NA	NA	NA
2019/11/22 09:51:00	AWS2	6.79	115	9.11	113	M	M	M	NA	NA	984.6	NA	NA		M	NA	NA	NA	NA
2019/11/22 09:52:00	AWS2	6.78	115	8.28	113	M	M	M	NA	NA	984.3	NA	NA		M	NA	NA	NA	NA
2019/11/22 09:53:00	AWS2	7.20	117	8.28	113	M	M	M	NA	NA	984.5	NA	NA		M	NA	NA	NA	NA
2019/11/22 09:54:00	AWS2	6.74	116	8.28	113	M	M	M	NA	NA	984.1	NA	NA		M	NA	NA	NA	NA
2019/11/22 09:55:00	AWS2	5.64	115	8.28	113	M	M	M	NA	NA	983.7	NA	NA		M	NA	NA	NA	NA
2019/11/22 09:56:00	AWS2	4.89	110	8.28	113	M	M	M	NA	NA	984.6	NA	NA		M	NA	NA	NA	NA
2019/11/22 09:57:00	AWS2	5.52	105	8.28	113	M	M	M	NA	NA	984.3	NA	NA		M	NA	NA	NA	NA
2019/11/22 09:58:00	AWS2	6.30	107	8.28	113	M	M	M	NA	NA	984.8	NA	NA		M	NA	NA	NA	NA
2019/11/22 09:59:00	AWS2	6.74	110	8.28	113	M	M	M	NA	NA	984.0	NA	NA		M	NA	NA	NA	NA
2019/11/22 10:00:00	AWS2	6.89	109	8.13	129	M	M	M	NA	NA	984.6	NA	NA		M	NA	NA	NA	NA
2019/11/22 10:01:00	AWS2	6.22	108	8.13	129	M	M	M	NA	NA	984.7	NA	NA		M	NA	NA	NA	NA
2019/11/22 10:02:00	AWS2	5.41	104	8.13	129	M	M	M	NA	NA	984.7	NA	NA		M	NA	NA	NA	NA
2019/11/22 10:03:00	AWS2	5.37	100	7.72	105	M	M	M	NA	NA	983.7	NA	NA		M	NA	NA	NA	NA
2019/11/22 10:04:00	AWS2	6.19	103	7.72	105	M	M	M	NA	NA	983.4	NA	NA		M	NA	NA	NA	NA
2019/11/22 10:05:00	AWS2	6.51	109	7.72	105	M	M	M	NA	NA	984.1	NA	NA		M	NA	NA	NA	NA
2019/11/22 10:06:00	AWS2	6.30	111	7.72	105	M	M	M	NA	NA	984.7	NA	NA		M	NA	NA	NA	NA
2019/11/22 10:07:00	AWS2	6.39	110	7.77	108	M	M	M	NA	NA	984.0	NA	NA		M	NA	NA	NA	NA
2019/11/22 10:08:00	AWS2	6.48	110	7.77	108	M	M	M	NA	NA	983.9	NA	NA		M	NA	NA	NA	NA
2019/11/22 10:09:00	AWS2	6.82	107	7.77	108	M	M	M	NA	NA	982.9	NA	NA		M	NA	NA	NA	NA
2019/11/22 10:10:00	AWS2	6.80	109	7.77	108	M	M	M	NA	NA	983.8	NA	NA		M	NA	NA	NA	NA
2019/11/22 10:11:00	AWS2	6.15	116	7.77	108	M	M	M	NA	NA	985.0	NA	NA		M	NA	NA	NA	NA
2019/11/22 10:12:00	AWS2	6.09	117	7.77	108	M	M	M	NA	NA	984.4	NA	NA		M	NA	NA	NA	NA
2019/11/22 10:13:00	AWS2	6.11	114	7.77	108	M	M	M	NA	NA	983.9	NA	NA		M	NA	NA	NA	NA
2019/11/22 10:14:00	AWS2	5.50	110	7.77	108	M	M	M	NA	NA	983.8	NA	NA		M	NA	NA	NA	NA
2019/11/22 10:15:00	AWS2	5.47	112	7.77	108	M	M	M	NA	NA	984.0	NA	NA		M	NA	NA	NA	NA
2019/11/22 10:16:00	AWS2	6.17	110	7.77	108	M	M	M	NA	NA	983.8	NA	NA		M	NA	NA	NA	NA
2019/11/22 10:17:00	AWS2	6.01	105	7.77	108	M	M	M	NA	NA	983.6	NA	NA		M	NA	NA	NA	NA
2019/11/22 10:18:00	AWS2	5.66	103	7.72	98	M	M	M	NA	NA	983.4	NA	NA		M	NA	NA	NA	NA
2019/11/22 10:19:00	AWS2	5.58	102	7.36	113	M	M	M	NA	NA	983.8	NA	NA		M	NA	NA	NA	NA
2019/11/22 10:20:00	AWS2	4.77	101	7.36	113	M	M	M	NA	NA	983.7	NA	NA		M	NA	NA	NA	NA
2019/11/22 10:21:00	AWS2	4.62	93	7.36	113	M	M	M	NA	NA	984.9	NA	NA		M	NA	NA	NA	NA
2019/11/22 10:22:00	AWS2	4.72	88	7.36	113	M	M	M	NA	NA	985.1	NA	NA		M	NA	NA	NA	NA
2019/11/22 10:23:00	AWS2	4.68	101	7.36	113	M	M	M	NA	NA	985.2	NA	NA		M	NA	NA	NA	NA
2019/11/22 10:24:00	AWS2	5.73	115	7.41	118	M	M	M	NA	NA	984.5	NA	NA		M	NA	NA	NA	NA
2019/11/22 10:25:00	AWS2	6.47	118	7.41	118	M	M	M	NA	NA	984.1	NA	NA		M	NA	NA	NA	NA
2019/11/22 10:26:00	AWS2	6.42	121	7.41	118	M	M	M	NA	NA	984.4	NA	NA		M	NA	NA	NA	NA
2019/11/22 10:27:00	AWS2	5.69	119	7.41	118	M	M	M	NA	NA	983.4	NA	NA		M	NA	NA	NA	NA
2019/11/22 10:28:00	AWS2	5.23	115	7.41	118	M	M	M	NA	NA	984.0	NA	NA		M	NA	NA	NA	NA
2019/11/22 10:29:00	AWS2	5.27	112	7.41	118	M	M	M	NA	NA	983.8	NA	NA		M	NA	NA	NA	NA
2019/11/22 10:30:00	AWS2	5.25	115	7.41	118	M	M	M	NA	NA	983.8	NA	NA		M	NA	NA	NA	NA
2019/11/22 10:31:00	AWS2	5.86	119	7.41	118	M	M	M	NA	NA	984.0	NA	NA		M	NA	NA	NA	NA
2019/11/22 10:32:00	AWS2	6.29	118	7.41	118	M	M	M	NA	NA	983.8	NA	NA		M	NA	NA	NA	NA
2019/11/22 10:33:00	AWS2	6.17	113	7.41	118	M	M	M	NA	NA	983.4	NA	NA		M	NA	NA	NA	NA
2019/11/22 10:34:00	AWS2	5.60	109	7.25	129	M	M	M	NA	NA	984.5	NA	NA		M	NA	NA	NA	NA
2019/11/22 10:35:00	AWS2	5.07	107	6.94	117	M	M	M	NA	NA	984.7	NA	NA		M	NA	NA	NA	NA
2019/11/22 10:36:00	AWS2	5.74	112	7.15	116	M	M	M	NA	NA	984.3	NA	NA		M	NA	NA	NA	NA
2019/11/22 10:37:00	AWS2	6.35	118	7.15	116	M	M	M	NA	NA	983.6	NA	NA		M	NA	NA	NA	NA
2019/11/22 10:38:00	AWS2	6.39	118	7.25	123	M	M	M	NA	NA	983.7	NA	NA		M	NA	NA	NA	NA
2019/11/22 10:39:00	AWS2	6.18	119	7.25	123	M	M	M	NA	NA	984.3	NA	NA		M	NA	NA	NA	NA
2019/11/22 10:40:00	AWS2	5.90	122	7.25	123	M	M	M	NA	NA	984.4	NA	NA		M	NA	NA	NA	NA
2019/11/22 10:41:00	AWS2	5.80	123	7.25	123	M	M	M	NA	NA	983.6	NA	NA		M	NA	NA	NA	NA
2019/11/22 10:42:00	AWS2	5.83	120	7.25	123	M	M	M	NA	NA	983.1	NA	NA		M	NA	NA	NA	NA
2019/11/22 10:43:00	AWS2	6.01	117	7.25	123	M	M	M	NA	NA	984.6	NA	NA		M	NA	NA	NA	NA
2019/11/22 10:44:00	AWS2	5.50	112	7.25	123	M	M	M	NA	NA	984.4	NA	NA		M	NA	NA	NA	NA
2019/11/22 10:45:00	AWS2	4.22	104	7.25	123	M	M	M	NA	NA	984.1	NA	NA		M	NA	NA	NA	NA
2019/11/22 10:46:00	AWS2	4.29	102	7.25	123	M	M	M	NA	NA	984.2	NA	NA		M	NA	NA	NA	NA
2019/11/22 10:47:00	AWS2	5.22	105	7.25	123	M	M	M	NA	NA	983.9	NA	NA		M	NA	NA	NA	NA
2019/11/22 10:48:00	AWS2	5.29	113	6.79	124	M	M	M	NA	NA	984.1	NA	NA		M	NA	NA	NA	NA
2019/11/22 10:49:00	AWS2	5.03	117	6.79	124	M	M	M	NA	NA	984.1	NA	NA		M	NA	NA	NA	NA
2019/11/22 10:50:00	AWS2	5.15	114	6.74	119	M	M	M	NA	NA	984.0	NA	NA		M	NA	NA	NA	NA
2019/11/22 10:51:00	AWS2	5.75	112	6.74	119	M	M	M	NA	NA	983.4	NA	NA		M	NA	NA	NA	NA
2019/11/22 10:52:00	AWS2	6.03	110	6.69	108	M	M	M	NA	NA	983.0	NA	NA		M	NA	NA	NA	NA
2019/11/22 10:53:00	AWS2	6.25	108	7.25	107	M	M	M	NA	NA	983.6	NA	NA		M	NA	NA	NA	NA
2019/11/22 10:54:00	AWS2	6.37	109	7.31	113	M	M	M	NA	NA	984.5	NA	NA		M	NA	NA	NA	NA
2019/11/22 10:55:00	AWS2	6.21	112	7.31	113	M	M	M	NA	NA	983.8	NA	NA		M	NA	NA	NA	NA
2019/11/22 10:56:00	AWS2	6.02	114	7.31	113	M	M	M	NA	NA	982.7	NA	NA		M	NA	NA	NA	NA
2019/11/22 10:57:00	AWS2	5.92	114	7.31	113	M	M	M	NA	NA	982.3	NA	NA		M	NA	NA	NA	NA
2019/11/22 10:58:00	AWS2	6.00	118	7.31	113	M	M	M	NA	NA	984.3	NA	NA		M	NA	NA	NA	NA
2019/11/22 10:59:00	AWS2	6.14	121	7.31	113	M	M	M	NA	NA	983.1	NA	NA		M	NA	NA	NA	NA
2019/11/22 11:00:00	AWS2	5.91	119	7.31	113	M	M	M	NA	NA	983.2	NA	NA		M	NA	NA	NA	NA
2019/11/22 11:01:00	AWS2	5.63	118	7.31	113	M	M	M	NA	NA	984.0	NA	NA		M	NA	NA	NA	NA
2019/11/22 11:02:00	AWS2	5.40	116	7.31	113	M	M	M	NA	NA	984.0	NA	NA		M	NA	NA	NA	NA
2019/11/22 11:03:00	AWS2	5.39	113	7.31	113	M	M	M	NA	NA	984.1	NA	NA		M	NA	NA	NA	NA
2019/11/22 11:04:00	AWS2	5.24	111	7.10	119	M	M	M	NA	NA	982.6	NA	NA		M	NA	NA	NA	NA
2019/11/22 11:05:00	AWS2	5.24	113	7.10	119	M	M	M	NA	NA	983.3	NA	NA		M	NA	NA	NA	NA
2019/11/22 11:06:00	AWS2	5.75	115	7.10	119	M	M	M	NA	NA	983.2	NA	NA		M	NA	NA	NA	NA
2019/11/22 11:07:00	AWS2	5.56	116	7.10	119	M	M	M	NA	NA	983.5	NA	NA		M	NA	NA	NA	NA
2019/11/22 11:08:00	AWS2	5.29	116	7.05	126	M	M	M	NA	NA	982.8	NA	NA		M	NA	NA	NA	NA
2019/11/22 11:09:00	AWS2	5.20	113	6.64	116	M	M	M	NA	NA	983.2	NA	NA		M	NA	NA	NA	NA
2019/11/22 11:10:00	AWS2	5.19	111	6.64	116	M	M	M	NA	NA	982.9	NA	NA		M	NA	NA	NA	NA
2019/11/22 11:11:00	AWS2	5.50	109	6.89	110	M	M	M	NA	NA	983.0	NA	NA		M	NA	NA	NA	NA
2019/11/22 11:12:00	AWS2	5.53	108	6.89	110	M	M	M	NA	NA	982.3	NA	NA		M	NA	NA	NA	NA
2019/11/22 11:13:00	AWS2	5.12	110	6.89	110	M	M	M	NA	NA	982.4	NA	NA		M	NA	NA	NA	NA
2019/11/22 11:14:00	AWS2	4.73	112	6.89	110	M	M	M	NA	NA	983.1	NA	NA		M	NA	NA	NA	NA
2019/11/22 11:15:00	AWS2	4.52	113	6.89	110	M	M	M	NA	NA	982.7	NA	NA		M	NA	NA	NA	NA
2019/11/22 11:16:00	AWS2	4.45	111	6.89	110	M	M	M	NA	NA	982.8	NA	NA		M	NA	NA	NA	NA
2019/11/22 11:17:00	AWS2	4.52	111	6.89	110	M	M	M	NA	NA	982.9	NA	NA		M	NA	NA	NA	NA
2019/11/22 11:18:00	AWS2	4.90	114	6.89	110	M	M	M	NA	NA	982.0	NA	NA		M	NA	NA	NA	NA
2019/11/22 11:19:00	AWS2	4.96	117	6.89	110	M	M	M	NA	NA	982.7	NA	NA		M	NA	NA	NA	NA
2019/11/22 11:20:00	AWS2	4.52	116	6.89	110	M	M	M	NA	NA	983.0	NA	NA		M	NA	NA	NA	NA
2019/11/22 11:21:00	AWS2	4.97	116	6.28	117	M	M	M	NA	NA	983.9	NA	NA		M	NA	NA	NA	NA
2019/11/22 11:22:00	AWS2	5.39	114	6.28	117	M	M	M	NA	NA	982.4	NA	NA		M	NA	NA	NA	NA
2019/11/22 11:23:00	AWS2	5.20	109	6.28	117	M	M	M	NA	NA	983.3	NA	NA		M	NA	NA	NA	NA
2019/11/22 11:24:00	AWS2	5.13	105	6.28	117	M	M	M	NA	NA	983.0	NA	NA		M	NA	NA	NA	NA
2019/11/22 11:25:00	AWS2	5.29	108	6.64	120	M	M	M	NA	NA	983.0	NA	NA		M	NA	NA	NA	NA
2019/11/22 11:26:00	AWS2	6.36	114	7.61	110	M	M	M	NA	NA	982.5	NA	NA		M	NA	NA	NA	NA
2019/11/22 11:27:00	AWS2	6.80	113	7.61	110	M	M	M	NA	NA	983.4	NA	NA		M	NA	NA	NA	NA
2019/11/22 11:28:00	AWS2	6.24	108	7.61	110	M	M	M	NA	NA	983.4	NA	NA		M	NA	NA	NA	NA
2019/11/22 11:29:00	AWS2	5.71	106	7.61	110	M	M	M	NA	NA	982.5	NA	NA		M	NA	NA	NA	NA
2019/11/22 11:30:00	AWS2	4.50	105	7.61	110	M	M	M	NA	NA	984.1	NA	NA		M	NA	NA	NA	NA
2019/11/22 11:31:00	AWS2	4.16	102	7.61	110	M	M	M	NA	NA	983.4	NA	NA		M	NA	NA	NA	NA
2019/11/22 11:32:00	AWS2	5.09	103	7.61	110	M	M	M	NA	NA	983.1	NA	NA		M	NA	NA	NA	NA
2019/11/22 11:33:00	AWS2	5.38	103	7.61	110	M	M	M	NA	NA	983.4	NA	NA		M	NA	NA	NA	NA
2019/11/22 11:34:00	AWS2	5.74	104	7.61	110	M	M	M	NA	NA	983.1	NA	NA		M	NA	NA	NA	NA
2019/11/22 11:35:00	AWS2	5.80	104	7.61	110	M	M	M	NA	NA	983.7	NA	NA		M	NA	NA	NA	NA
2019/11/22 11:36:00	AWS2	5.23	102	7.20	115	M	M	M	NA	NA	983.2	NA	NA		M	NA	NA	NA	NA
2019/11/22 11:37:00	AWS2	5.42	106	7.20	103	M	M	M	NA	NA	982.4	NA	NA		M	NA	NA	NA	NA
2019/11/22 11:38:00	AWS2	6.10	109	7.72	109	M	M	M	NA	NA	982.9	NA	NA		M	NA	NA	NA	NA
2019/11/22 11:39:00	AWS2	5.66	109	7.72	109	M	M	M	NA	NA	984.2	NA	NA		M	NA	NA	NA	NA
2019/11/22 11:40:00	AWS2	5.22	111	7.72	109	M	M	M	NA	NA	983.5	NA	NA		M	NA	NA	NA	NA
2019/11/22 11:41:00	AWS2	6.01	113	7.72	109	M	M	M	NA	NA	983.9	NA	NA		M	NA	NA	NA	NA
2019/11/22 11:42:00	AWS2	5.95	114	7.72	109	M	M	M	NA	NA	982.6	NA	NA		M	NA	NA	NA	NA
2019/11/22 11:43:00	AWS2	5.63	113	7.72	109	M	M	M	NA	NA	983.6	NA	NA		M	NA	NA	NA	NA
2019/11/22 11:44:00	AWS2	6.10	113	7.72	109	M	M	M	NA	NA	982.7	NA	NA		M	NA	NA	NA	NA
2019/11/22 11:45:00	AWS2	6.04	113	7.72	109	M	M	M	NA	NA	983.7	NA	NA		M	NA	NA	NA	NA
2019/11/22 11:46:00	AWS2	5.35	109	7.72	109	M	M	M	NA	NA	983.4	NA	NA		M	NA	NA	NA	NA
2019/11/22 11:47:00	AWS2	4.41	105	7.72	109	M	M	M	NA	NA	983.8	NA	NA		M	NA	NA	NA	NA
2019/11/22 11:48:00	AWS2	4.19	105	7.61	110	M	M	M	NA	NA	984.0	NA	NA		M	NA	NA	NA	NA
2019/11/22 11:49:00	AWS2	4.57	107	7.61	110	M	M	M	NA	NA	983.3	NA	NA		M	NA	NA	NA	NA
2019/11/22 11:50:00	AWS2	5.10	105	7.61	110	M	M	M	NA	NA	982.6	NA	NA		M	NA	NA	NA	NA
2019/11/22 11:51:00	AWS2	5.69	107	6.94	110	M	M	M	NA	NA	984.3	NA	NA		M	NA	NA	NA	NA
2019/11/22 11:52:00	AWS2	5.99	109	7.05	111	M	M	M	NA	NA	982.6	NA	NA		M	NA	NA	NA	NA
2019/11/22 11:53:00	AWS2	6.16	112	7.05	113	M	M	M	NA	NA	983.2	NA	NA		M	NA	NA	NA	NA
2019/11/22 11:54:00	AWS2	6.11	116	7.05	113	M	M	M	NA	NA	982.2	NA	NA		M	NA	NA	NA	NA
2019/11/22 11:55:00	AWS2	6.00	117	7.05	113	M	M	M	NA	NA	984.0	NA	NA		M	NA	NA	NA	NA
2019/11/22 11:56:00	AWS2	6.03	117	7.05	113	M	M	M	NA	NA	982.3	NA	NA		M	NA	NA	NA	NA
2019/11/22 11:57:00	AWS2	5.54	119	7.05	113	M	M	M	NA	NA	981.8	NA	NA		M	NA	NA	NA	NA
2019/11/22 11:58:00	AWS2	4.69	117	7.05	113	M	M	M	NA	NA	983.3	NA	NA		M	NA	NA	NA	NA
2019/11/22 11:59:00	AWS2	4.12	109	7.05	113	M	M	M	NA	NA	982.8	NA	NA		M	NA	NA	NA	NA
2019/11/22 12:00:00	AWS2	4.21	101	7.05	113	M	M	M	NA	NA	982.9	NA	NA		M	NA	NA	NA	NA
2019/11/22 12:01:00	AWS2	4.71	99	7.05	113	M	M	M	NA	NA	983.1	NA	NA		M	NA	NA	NA	NA
2019/11/22 12:02:00	AWS2	5.04	105	7.05	113	M	M	M	NA	NA	981.6	NA	NA		M	NA	NA	NA	NA
2019/11/22 12:03:00	AWS2	4.88	113	6.94	120	M	M	M	NA	NA	982.0	NA	NA		M	NA	NA	NA	NA
2019/11/22 12:04:00	AWS2	4.56	111	6.94	120	M	M	M	NA	NA	982.6	NA	NA		M	NA	NA	NA	NA
2019/11/22 12:05:00	AWS2	5.21	112	6.94	120	M	M	M	NA	NA	982.8	NA	NA		M	NA	NA	NA	NA
2019/11/22 12:06:00	AWS2	5.96	117	6.69	115	M	M	M	NA	NA	982.7	NA	NA		M	NA	NA	NA	NA
2019/11/22 12:07:00	AWS2	5.83	114	6.69	115	M	M	M	NA	NA	981.9	NA	NA		M	NA	NA	NA	NA
2019/11/22 12:08:00	AWS2	5.55	109	6.69	115	M	M	M	NA	NA	980.4	NA	NA		M	NA	NA	NA	NA
2019/11/22 12:09:00	AWS2	5.18	107	6.69	115	M	M	M	NA	NA	981.5	NA	NA		M	NA	NA	NA	NA
2019/11/22 12:10:00	AWS2	4.85	111	6.69	115	M	M	M	NA	NA	979.8	NA	NA		M	NA	NA	NA	NA
2019/11/22 12:11:00	AWS2	4.93	115	6.69	115	M	M	M	NA	NA	982.2	NA	NA		M	NA	NA	NA	NA
2019/11/22 12:12:00	AWS2	4.70	112	6.69	115	M	M	M	NA	NA	982.8	NA	NA		M	NA	NA	NA	NA
2019/11/22 12:13:00	AWS2	4.25	103	6.69	115	M	M	M	NA	NA	982.1	NA	NA		M	NA	NA	NA	NA
2019/11/22 12:14:00	AWS2	4.80	103	6.69	115	M	M	M	NA	NA	983.6	NA	NA		M	NA	NA	NA	NA
2019/11/22 12:15:00	AWS2	5.08	110	6.69	115	M	M	M	NA	NA	983.9	NA	NA		M	NA	NA	NA	NA
2019/11/22 12:16:00	AWS2	4.73	108	6.17	109	M	M	M	NA	NA	984.8	NA	NA		M	NA	NA	NA	NA
2019/11/22 12:17:00	AWS2	5.61	105	7.15	98	M	M	M	NA	NA	984.5	NA	NA		M	NA	NA	NA	NA
2019/11/22 12:18:00	AWS2	6.64	108	7.92	114	M	M	M	NA	NA	984.5	NA	NA		M	NA	NA	NA	NA
2019/11/22 12:19:00	AWS2	6.87	116	7.92	114	M	M	M	NA	NA	983.7	NA	NA		M	NA	NA	NA	NA
2019/11/22 12:20:00	AWS2	6.28	120	7.92	114	M	M	M	NA	NA	984.5	NA	NA		M	NA	NA	NA	NA
2019/11/22 12:21:00	AWS2	5.44	124	7.92	114	M	M	M	NA	NA	984.6	NA	NA		M	NA	NA	NA	NA
2019/11/22 12:22:00	AWS2	5.59	122	7.92	114	M	M	M	NA	NA	984.9	NA	NA		M	NA	NA	NA	NA
2019/11/22 12:23:00	AWS2	5.62	115	7.92	114	M	M	M	NA	NA	984.6	NA	NA		M	NA	NA	NA	NA
2019/11/22 12:24:00	AWS2	5.22	109	7.92	114	M	M	M	NA	NA	984.2	NA	NA		M	NA	NA	NA	NA
2019/11/22 12:25:00	AWS2	5.07	105	7.92	114	M	M	M	NA	NA	984.9	NA	NA		M	NA	NA	NA	NA
2019/11/22 12:26:00	AWS2	4.98	103	7.92	114	M	M	M	NA	NA	984.6	NA	NA		M	NA	NA	NA	NA
2019/11/22 12:27:00	AWS2	5.09	104	7.92	114	M	M	M	NA	NA	984.7	NA	NA		M	NA	NA	NA	NA
2019/11/22 12:28:00	AWS2	4.96	102	7.41	115	M	M	M	NA	NA	984.7	NA	NA		M	NA	NA	NA	NA
2019/11/22 12:29:00	AWS2	4.18	99	7.15	120	M	M	M	NA	NA	984.7	NA	NA		M	NA	NA	NA	NA
2019/11/22 12:30:00	AWS2	3.70	97	6.69	121	M	M	M	NA	NA	984.7	NA	NA		M	NA	NA	NA	NA
2019/11/22 12:31:00	AWS2	4.24	100	6.69	121	M	M	M	NA	NA	984.6	NA	NA		M	NA	NA	NA	NA
2019/11/22 12:32:00	AWS2	3.94	104	6.28	116	M	M	M	NA	NA	984.5	NA	NA		M	NA	NA	NA	NA
2019/11/22 12:33:00	AWS2	2.76	90	5.76	97	M	M	M	NA	NA	984.0	NA	NA		M	NA	NA	NA	NA
2019/11/22 12:34:00	AWS2	2.24	76	5.76	97	M	M	M	NA	NA	984.3	NA	NA		M	NA	NA	NA	NA
2019/11/22 12:35:00	AWS2	2.45	77	5.76	97	M	M	M	NA	NA	983.6	NA	NA		M	NA	NA	NA	NA
2019/11/22 12:36:00	AWS2	3.67	91	6.17	102	M	M	M	NA	NA	983.4	NA	NA		M	NA	NA	NA	NA
2019/11/22 12:37:00	AWS2	4.63	96	6.17	102	M	M	M	NA	NA	984.1	NA	NA		M	NA	NA	NA	NA
2019/11/22 12:38:00	AWS2	4.23	91	6.17	102	M	M	M	NA	NA	984.7	NA	NA		M	NA	NA	NA	NA
2019/11/22 12:39:00	AWS2	3.68	101	6.17	102	M	M	M	NA	NA	983.0	NA	NA		M	NA	NA	NA	NA
2019/11/22 12:40:00	AWS2	3.94	107	6.17	102	M	M	M	NA	NA	984.3	NA	NA		M	NA	NA	NA	NA
2019/11/22 12:41:00	AWS2	4.33	107	6.17	102	M	M	M	NA	NA	982.4	NA	NA		M	NA	NA	NA	NA
2019/11/22 12:42:00	AWS2	4.05	106	6.17	102	M	M	M	NA	NA	983.0	NA	NA		M	NA	NA	NA	NA
2019/11/22 12:43:00	AWS2	3.74	102	6.17	102	M	M	M	NA	NA	984.2	NA	NA		M	NA	NA	NA	NA
2019/11/22 12:44:00	AWS2	4.24	98	6.17	102	M	M	M	NA	NA	983.3	NA	NA		M	NA	NA	NA	NA
2019/11/22 12:45:00	AWS2	4.21	95	6.17	102	M	M	M	NA	NA	983.7	NA	NA		M	NA	NA	NA	NA
2019/11/22 12:46:00	AWS2	3.75	100	5.56	101	M	M	M	NA	NA	983.1	NA	NA		M	NA	NA	NA	NA
2019/11/22 12:47:00	AWS2	4.17	113	5.56	119	M	M	M	NA	NA	983.1	NA	NA		M	NA	NA	NA	NA
2019/11/22 12:48:00	AWS2	4.87	119	5.97	129	M	M	M	NA	NA	983.6	NA	NA		M	NA	NA	NA	NA
2019/11/22 12:49:00	AWS2	5.00	119	5.97	129	M	M	M	NA	NA	985.1	NA	NA		M	NA	NA	NA	NA
2019/11/22 12:50:00	AWS2	4.76	118	5.97	129	M	M	M	NA	NA	984.5	NA	NA		M	NA	NA	NA	NA
2019/11/22 12:51:00	AWS2	4.55	119	5.97	129	M	M	M	NA	NA	983.9	NA	NA		M	NA	NA	NA	NA
2019/11/22 12:52:00	AWS2	4.30	119	5.97	129	M	M	M	NA	NA	984.6	NA	NA		M	NA	NA	NA	NA
2019/11/22 12:53:00	AWS2	4.43	119	5.97	129	M	M	M	NA	NA	983.7	NA	NA		M	NA	NA	NA	NA
2019/11/22 12:54:00	AWS2	4.76	122	5.97	129	M	M	M	NA	NA	983.7	NA	NA		M	NA	NA	NA	NA
2019/11/22 12:55:00	AWS2	4.91	126	5.97	129	M	M	M	NA	NA	983.8	NA	NA		M	NA	NA	NA	NA
2019/11/22 12:56:00	AWS2	5.07	125	6.12	127	M	M	M	NA	NA	984.1	NA	NA		M	NA	NA	NA	NA
2019/11/22 12:57:00	AWS2	4.76	113	6.12	127	M	M	M	NA	NA	984.4	NA	NA		M	NA	NA	NA	NA
2019/11/22 12:58:00	AWS2	3.99	106	6.12	127	M	M	M	NA	NA	984.3	NA	NA		M	NA	NA	NA	NA
2019/11/22 12:59:00	AWS2	3.91	109	6.12	127	M	M	M	NA	NA	983.8	NA	NA		M	NA	NA	NA	NA
2019/11/22 13:00:00	AWS2	3.72	109	6.12	127	M	M	M	NA	NA	983.9	NA	NA		M	NA	NA	NA	NA
2019/11/22 13:01:00	AWS2	3.09	110	6.12	127	M	M	M	NA	NA	984.8	NA	NA		M	NA	NA	NA	NA
2019/11/22 13:02:00	AWS2	3.13	111	6.12	127	M	M	M	NA	NA	984.7	NA	NA		M	NA	NA	NA	NA
2019/11/22 13:03:00	AWS2	3.42	110	6.12	127	M	M	M	NA	NA	984.1	NA	NA		M	NA	NA	NA	NA
2019/11/22 13:04:00	AWS2	3.36	105	6.12	127	M	M	M	NA	NA	983.9	NA	NA		M	NA	NA	NA	NA
2019/11/22 13:05:00	AWS2	3.17	99	6.12	127	M	M	M	NA	NA	984.7	NA	NA		M	NA	NA	NA	NA
2019/11/22 13:06:00	AWS2	3.15	98	5.45	111	M	M	M	NA	NA	985.4	NA	NA		M	NA	NA	NA	NA
2019/11/22 13:07:00	AWS2	3.31	103	4.68	107	M	M	M	NA	NA	983.8	NA	NA		M	NA	NA	NA	NA
2019/11/22 13:08:00	AWS2	3.48	110	4.68	107	M	M	M	NA	NA	985.2	NA	NA		M	NA	NA	NA	NA
2019/11/22 13:09:00	AWS2	3.52	114	4.12	103	M	M	M	NA	NA	984.4	NA	NA		M	NA	NA	NA	NA
2019/11/22 13:10:00	AWS2	3.45	114	4.12	103	M	M	M	NA	NA	985.4	NA	NA		M	NA	NA	NA	NA
2019/11/22 13:11:00	AWS2	3.60	111	4.48	116	M	M	M	NA	NA	985.3	NA	NA		M	NA	NA	NA	NA
2019/11/22 13:12:00	AWS2	3.96	109	4.48	116	M	M	M	NA	NA	984.7	NA	NA		M	NA	NA	NA	NA
2019/11/22 13:13:00	AWS2	4.08	110	4.53	107	M	M	M	NA	NA	984.7	NA	NA		M	NA	NA	NA	NA
2019/11/22 13:14:00	AWS2	4.09	109	4.78	117	M	M	M	NA	NA	985.1	NA	NA		M	NA	NA	NA	NA
2019/11/22 13:15:00	AWS2	4.13	105	4.78	117	M	M	M	NA	NA	985.3	NA	NA		M	NA	NA	NA	NA
2019/11/22 13:16:00	AWS2	3.93	100	4.78	117	M	M	M	NA	NA	985.3	NA	NA		M	NA	NA	NA	NA
2019/11/22 13:17:00	AWS2	3.93	97	4.78	117	M	M	M	NA	NA	985.2	NA	NA		M	NA	NA	NA	NA
2019/11/22 13:18:00	AWS2	3.86	101	4.78	117	M	M	M	NA	NA	985.4	NA	NA		M	NA	NA	NA	NA
2019/11/22 13:19:00	AWS2	3.42	105	4.78	117	M	M	M	NA	NA	985.3	NA	NA		M	NA	NA	NA	NA
2019/11/22 13:20:00	AWS2	3.42	107	4.78	117	M	M	M	NA	NA	985.7	NA	NA		M	NA	NA	NA	NA
2019/11/22 13:21:00	AWS2	3.53	111	4.78	117	M	M	M	NA	NA	985.8	NA	NA		M	NA	NA	NA	NA
2019/11/22 13:22:00	AWS2	3.47	109	4.78	117	M	M	M	NA	NA	985.7	NA	NA		M	NA	NA	NA	NA
2019/11/22 13:23:00	AWS2	3.66	103	4.78	117	M	M	M	NA	NA	985.0	NA	NA		M	NA	NA	NA	NA
2019/11/22 13:24:00	AWS2	3.71	107	4.68	100	M	M	M	NA	NA	984.9	NA	NA		M	NA	NA	NA	NA
2019/11/22 13:25:00	AWS2	3.58	114	4.68	100	M	M	M	NA	NA	985.0	NA	NA		M	NA	NA	NA	NA
2019/11/22 13:26:00	AWS2	4.11	118	5.61	122	M	M	M	NA	NA	985.5	NA	NA		M	NA	NA	NA	NA
2019/11/22 13:27:00	AWS2	4.89	117	5.61	113	M	M	M	NA	NA	985.1	NA	NA		M	NA	NA	NA	NA
2019/11/22 13:28:00	AWS2	4.87	113	5.61	113	M	M	M	NA	NA	985.4	NA	NA		M	NA	NA	NA	NA
2019/11/22 13:29:00	AWS2	4.38	111	5.61	113	M	M	M	NA	NA	985.4	NA	NA		M	NA	NA	NA	NA
2019/11/22 13:30:00	AWS2	4.22	112	5.61	113	M	M	M	NA	NA	984.6	NA	NA		M	NA	NA	NA	NA
2019/11/22 13:31:00	AWS2	4.03	113	5.61	113	M	M	M	NA	NA	984.6	NA	NA		M	NA	NA	NA	NA
2019/11/22 13:32:00	AWS2	3.94	112	5.61	113	M	M	M	NA	NA	985.0	NA	NA		M	NA	NA	NA	NA
2019/11/22 13:33:00	AWS2	4.05	111	5.61	113	M	M	M	NA	NA	984.5	NA	NA		M	NA	NA	NA	NA
2019/11/22 13:34:00	AWS2	3.90	111	5.61	113	M	M	M	NA	NA	985.4	NA	NA		M	NA	NA	NA	NA
2019/11/22 13:35:00	AWS2	4.01	114	5.61	113	M	M	M	NA	NA	984.5	NA	NA		M	NA	NA	NA	NA
2019/11/22 13:36:00	AWS2	4.40	116	5.61	113	M	M	M	NA	NA	984.9	NA	NA		M	NA	NA	NA	NA
2019/11/22 13:37:00	AWS2	4.59	117	5.56	111	M	M	M	NA	NA	985.0	NA	NA		M	NA	NA	NA	NA
2019/11/22 13:38:00	AWS2	4.01	114	5.20	112	M	M	M	NA	NA	985.5	NA	NA		M	NA	NA	NA	NA
2019/11/22 13:39:00	AWS2	3.45	104	5.20	112	M	M	M	NA	NA	984.8	NA	NA		M	NA	NA	NA	NA
2019/11/22 13:40:00	AWS2	3.84	99	5.20	112	M	M	M	NA	NA	985.0	NA	NA		M	NA	NA	NA	NA
2019/11/22 13:41:00	AWS2	4.20	106	5.20	112	M	M	M	NA	NA	984.9	NA	NA		M	NA	NA	NA	NA
2019/11/22 13:42:00	AWS2	4.46	114	5.20	112	M	M	M	NA	NA	984.9	NA	NA		M	NA	NA	NA	NA
2019/11/22 13:43:00	AWS2	4.48	113	5.20	112	M	M	M	NA	NA	985.0	NA	NA		M	NA	NA	NA	NA
2019/11/22 13:44:00	AWS2	4.20	111	5.20	112	M	M	M	NA	NA	984.6	NA	NA		M	NA	NA	NA	NA
2019/11/22 13:45:00	AWS2	4.11	113	5.20	112	M	M	M	NA	NA	986.1	NA	NA		M	NA	NA	NA	NA
2019/11/22 13:46:00	AWS2	3.84	112	5.14	109	M	M	M	NA	NA	985.2	NA	NA		M	NA	NA	NA	NA
2019/11/22 13:47:00	AWS2	3.45	110	5.14	109	M	M	M	NA	NA	984.8	NA	NA		M	NA	NA	NA	NA
2019/11/22 13:48:00	AWS2	3.33	110	5.14	109	M	M	M	NA	NA	985.3	NA	NA		M	NA	NA	NA	NA
2019/11/22 13:49:00	AWS2	3.38	110	5.14	109	M	M	M	NA	NA	985.7	NA	NA		M	NA	NA	NA	NA
2019/11/22 13:50:00	AWS2	3.17	109	5.14	109	M	M	M	NA	NA	985.5	NA	NA		M	NA	NA	NA	NA
2019/11/22 13:51:00	AWS2	3.26	109	5.14	109	M	M	M	NA	NA	985.7	NA	NA		M	NA	NA	NA	NA
2019/11/22 13:52:00	AWS2	3.68	108	4.68	111	M	M	M	NA	NA	985.7	NA	NA		M	NA	NA	NA	NA
2019/11/22 13:53:00	AWS2	3.73	105	4.58	110	M	M	M	NA	NA	985.2	NA	NA		M	NA	NA	NA	NA
2019/11/22 13:54:00	AWS2	3.90	104	4.68	104	M	M	M	NA	NA	985.7	NA	NA		M	NA	NA	NA	NA
2019/11/22 13:55:00	AWS2	4.34	108	4.89	117	M	M	M	NA	NA	985.7	NA	NA		M	NA	NA	NA	NA
2019/11/22 13:56:00	AWS2	4.61	110	5.56	112	M	M	M	NA	NA	986.1	NA	NA		M	NA	NA	NA	NA
2019/11/22 13:57:00	AWS2	4.63	111	5.56	112	M	M	M	NA	NA	985.6	NA	NA		M	NA	NA	NA	NA
2019/11/22 13:58:00	AWS2	4.17	109	5.56	112	M	M	M	NA	NA	984.8	NA	NA		M	NA	NA	NA	NA
2019/11/22 13:59:00	AWS2	4.45	105	5.81	97	M	M	M	NA	NA	985.8	NA	NA		M	NA	NA	NA	NA
2019/11/22 14:00:00	AWS2	5.15	107	5.97	111	M	M	M	NA	NA	985.3	NA	NA		M	NA	NA	NA	NA
2019/11/22 14:01:00	AWS2	5.15	106	5.97	111	M	M	M	NA	NA	985.8	NA	NA		M	NA	NA	NA	NA
2019/11/22 14:02:00	AWS2	5.02	102	5.97	111	M	M	M	NA	NA	985.8	NA	NA		M	NA	NA	NA	NA
2019/11/22 14:03:00	AWS2	5.20	103	6.02	108	M	M	M	NA	NA	985.0	NA	NA		M	NA	NA	NA	NA
2019/11/22 14:04:00	AWS2	5.30	107	6.02	108	M	M	M	NA	NA	985.4	NA	NA		M	NA	NA	NA	NA
2019/11/22 14:05:00	AWS2	5.06	108	6.02	108	M	M	M	NA	NA	985.1	NA	NA		M	NA	NA	NA	NA
2019/11/22 14:06:00	AWS2	4.82	105	6.02	108	M	M	M	NA	NA	985.4	NA	NA		M	NA	NA	NA	NA
2019/11/22 14:07:00	AWS2	4.65	102	6.02	108	M	M	M	NA	NA	985.3	NA	NA		M	NA	NA	NA	NA
2019/11/22 14:08:00	AWS2	4.64	101	6.02	108	M	M	M	NA	NA	985.1	NA	NA		M	NA	NA	NA	NA
2019/11/22 14:09:00	AWS2	4.23	99	6.02	108	M	M	M	NA	NA	985.2	NA	NA		M	NA	NA	NA	NA
2019/11/22 14:10:00	AWS2	3.79	97	6.02	108	M	M	M	NA	NA	985.7	NA	NA		M	NA	NA	NA	NA
2019/11/22 14:11:00	AWS2	4.17	98	6.02	108	M	M	M	NA	NA	985.2	NA	NA		M	NA	NA	NA	NA
2019/11/22 14:12:00	AWS2	4.40	101	6.02	108	M	M	M	NA	NA	985.2	NA	NA		M	NA	NA	NA	NA
2019/11/22 14:13:00	AWS2	3.83	106	5.81	105	M	M	M	NA	NA	985.4	NA	NA		M	NA	NA	NA	NA
2019/11/22 14:14:00	AWS2	3.95	101	5.61	106	M	M	M	NA	NA	985.1	NA	NA		M	NA	NA	NA	NA
2019/11/22 14:15:00	AWS2	4.64	94	5.61	93	M	M	M	NA	NA	985.3	NA	NA		M	NA	NA	NA	NA
2019/11/22 14:16:00	AWS2	5.20	96	6.38	101	M	M	M	NA	NA	985.2	NA	NA		M	NA	NA	NA	NA
2019/11/22 14:17:00	AWS2	5.53	102	6.38	101	M	M	M	NA	NA	985.3	NA	NA		M	NA	NA	NA	NA
2019/11/22 14:18:00	AWS2	5.39	100	6.38	101	M	M	M	NA	NA	985.0	NA	NA		M	NA	NA	NA	NA
2019/11/22 14:19:00	AWS2	5.07	97	6.38	101	M	M	M	NA	NA	985.6	NA	NA		M	NA	NA	NA	NA
2019/11/22 14:20:00	AWS2	4.59	98	6.38	101	M	M	M	NA	NA	984.7	NA	NA		M	NA	NA	NA	NA
2019/11/22 14:21:00	AWS2	4.51	100	6.38	101	M	M	M	NA	NA	985.7	NA	NA		M	NA	NA	NA	NA
2019/11/22 14:22:00	AWS2	4.78	94	6.38	101	M	M	M	NA	NA	986.4	NA	NA		M	NA	NA	NA	NA
2019/11/22 14:23:00	AWS2	4.95	88	6.38	101	M	M	M	NA	NA	986.0	NA	NA		M	NA	NA	NA	NA
2019/11/22 14:24:00	AWS2	5.04	92	6.38	101	M	M	M	NA	NA	985.3	NA	NA		M	NA	NA	NA	NA
2019/11/22 14:25:00	AWS2	5.22	98	6.38	101	M	M	M	NA	NA	985.6	NA	NA		M	NA	NA	NA	NA
2019/11/22 14:26:00	AWS2	5.21	98	6.12	107	M	M	M	NA	NA	985.6	NA	NA		M	NA	NA	NA	NA
2019/11/22 14:27:00	AWS2	5.29	99	6.53	102	M	M	M	NA	NA	985.5	NA	NA		M	NA	NA	NA	NA
2019/11/22 14:28:00	AWS2	5.54	100	7.00	102	M	M	M	NA	NA	985.5	NA	NA		M	NA	NA	NA	NA
2019/11/22 14:29:00	AWS2	5.78	103	7.00	102	M	M	M	NA	NA	985.9	NA	NA		M	NA	NA	NA	NA
2019/11/22 14:30:00	AWS2	5.67	105	7.00	102	M	M	M	NA	NA	985.4	NA	NA		M	NA	NA	NA	NA
2019/11/22 14:31:00	AWS2	5.28	104	7.00	102	M	M	M	NA	NA	985.7	NA	NA		M	NA	NA	NA	NA
2019/11/22 14:32:00	AWS2	5.30	105	7.00	102	M	M	M	NA	NA	985.7	NA	NA		M	NA	NA	NA	NA
2019/11/22 14:33:00	AWS2	5.47	101	7.00	102	M	M	M	NA	NA	985.5	NA	NA		M	NA	NA	NA	NA
2019/11/22 14:34:00	AWS2	5.30	98	7.00	102	M	M	M	NA	NA	985.4	NA	NA		M	NA	NA	NA	NA
2019/11/22 14:35:00	AWS2	4.80	100	7.00	102	M	M	M	NA	NA	985.6	NA	NA		M	NA	NA	NA	NA
2019/11/22 14:36:00	AWS2	4.70	103	7.00	102	M	M	M	NA	NA	985.8	NA	NA		M	NA	NA	NA	NA
2019/11/22 14:37:00	AWS2	4.90	101	7.00	102	M	M	M	NA	NA	985.5	NA	NA		M	NA	NA	NA	NA
2019/11/22 14:38:00	AWS2	5.23	97	6.94	104	M	M	M	NA	NA	984.9	NA	NA		M	NA	NA	NA	NA
2019/11/22 14:39:00	AWS2	5.20	94	6.28	102	M	M	M	NA	NA	985.5	NA	NA		M	NA	NA	NA	NA
2019/11/22 14:40:00	AWS2	4.79	91	6.28	102	M	M	M	NA	NA	985.4	NA	NA		M	NA	NA	NA	NA
2019/11/22 14:41:00	AWS2	4.62	90	6.28	102	M	M	M	NA	NA	985.1	NA	NA		M	NA	NA	NA	NA
2019/11/22 14:42:00	AWS2	4.64	91	6.28	102	M	M	M	NA	NA	985.3	NA	NA		M	NA	NA	NA	NA
2019/11/22 14:43:00	AWS2	4.59	92	6.12	91	M	M	M	NA	NA	985.1	NA	NA		M	NA	NA	NA	NA
2019/11/22 14:44:00	AWS2	4.12	92	6.12	91	M	M	M	NA	NA	985.4	NA	NA		M	NA	NA	NA	NA
2019/11/22 14:45:00	AWS2	3.74	98	6.12	91	M	M	M	NA	NA	985.4	NA	NA		M	NA	NA	NA	NA
2019/11/22 14:46:00	AWS2	3.88	101	6.12	91	M	M	M	NA	NA	985.4	NA	NA		M	NA	NA	NA	NA
2019/11/22 14:47:00	AWS2	3.92	102	6.12	91	M	M	M	NA	NA	985.7	NA	NA		M	NA	NA	NA	NA
2019/11/22 14:48:00	AWS2	3.89	103	5.71	82	M	M	M	NA	NA	986.0	NA	NA		M	NA	NA	NA	NA
2019/11/22 14:49:00	AWS2	4.00	101	5.30	88	M	M	M	NA	NA	986.0	NA	NA		M	NA	NA	NA	NA
2019/11/22 14:50:00	AWS2	4.04	100	5.30	88	M	M	M	NA	NA	986.0	NA	NA		M	NA	NA	NA	NA
2019/11/22 14:51:00	AWS2	4.11	95	5.30	88	M	M	M	NA	NA	985.8	NA	NA		M	NA	NA	NA	NA
2019/11/22 14:52:00	AWS2	4.48	92	5.40	88	M	M	M	NA	NA	985.8	NA	NA		M	NA	NA	NA	NA
2019/11/22 14:53:00	AWS2	5.19	92	6.22	103	M	M	M	NA	NA	985.4	NA	NA		M	NA	NA	NA	NA
2019/11/22 14:54:00	AWS2	5.65	96	6.79	100	M	M	M	NA	NA	985.7	NA	NA		M	NA	NA	NA	NA
2019/11/22 14:55:00	AWS2	4.80	98	6.79	100	M	M	M	NA	NA	985.9	NA	NA		M	NA	NA	NA	NA
2019/11/22 14:56:00	AWS2	4.05	99	6.79	100	M	M	M	NA	NA	985.6	NA	NA		M	NA	NA	NA	NA
2019/11/22 14:57:00	AWS2	4.27	98	6.79	100	M	M	M	NA	NA	985.8	NA	NA		M	NA	NA	NA	NA
2019/11/22 14:58:00	AWS2	4.12	96	6.79	100	M	M	M	NA	NA	985.7	NA	NA		M	NA	NA	NA	NA
2019/11/22 14:59:00	AWS2	3.92	93	6.79	100	M	M	M	NA	NA	985.8	NA	NA		M	NA	NA	NA	NA
2019/11/22 15:00:00	AWS2	4.16	92	6.79	100	M	M	M	NA	NA	985.6	NA	NA		M	NA	NA	NA	NA
2019/11/22 15:01:00	AWS2	4.78	93	6.79	100	M	M	M	NA	NA	985.9	NA	NA		M	NA	NA	NA	NA
2019/11/22 15:02:00	AWS2	5.07	87	6.79	100	M	M	M	NA	NA	986.2	NA	NA		M	NA	NA	NA	NA
2019/11/22 15:03:00	AWS2	5.09	89	6.79	100	M	M	M	NA	NA	986.0	NA	NA		M	NA	NA	NA	NA
2019/11/22 15:04:00	AWS2	5.36	91	6.02	86	M	M	M	NA	NA	986.4	NA	NA		M	NA	NA	NA	NA
2019/11/22 15:05:00	AWS2	5.20	91	6.02	86	M	M	M	NA	NA	986.4	NA	NA		M	NA	NA	NA	NA
2019/11/22 15:06:00	AWS2	5.34	95	6.84	92	M	M	M	NA	NA	986.7	NA	NA		M	NA	NA	NA	NA
2019/11/22 15:07:00	AWS2	5.57	95	6.84	92	M	M	M	NA	NA	986.3	NA	NA		M	NA	NA	NA	NA
2019/11/22 15:08:00	AWS2	4.89	88	6.84	92	M	M	M	NA	NA	986.2	NA	NA		M	NA	NA	NA	NA
2019/11/22 15:09:00	AWS2	4.29	90	6.84	92	M	M	M	NA	NA	986.0	NA	NA		M	NA	NA	NA	NA
2019/11/22 15:10:00	AWS2	3.90	100	6.84	92	M	M	M	NA	NA	986.2	NA	NA		M	NA	NA	NA	NA
2019/11/22 15:11:00	AWS2	3.38	100	6.84	92	M	M	M	NA	NA	986.0	NA	NA		M	NA	NA	NA	NA
2019/11/22 15:12:00	AWS2	2.64	96	6.84	92	M	M	M	NA	NA	986.0	NA	NA		M	NA	NA	NA	NA
2019/11/22 15:13:00	AWS2	2.67	94	6.84	92	M	M	M	NA	NA	985.8	NA	NA		M	NA	NA	NA	NA
2019/11/22 15:14:00	AWS2	3.58	94	6.84	92	M	M	M	NA	NA	986.0	NA	NA		M	NA	NA	NA	NA
2019/11/22 15:15:00	AWS2	4.48	96	6.84	92	M	M	M	NA	NA	985.8	NA	NA		M	NA	NA	NA	NA
2019/11/22 15:16:00	AWS2	5.14	99	6.84	92	M	M	M	NA	NA	986.1	NA	NA		M	NA	NA	NA	NA
2019/11/22 15:17:00	AWS2	4.90	99	6.12	96	M	M	M	NA	NA	985.9	NA	NA		M	NA	NA	NA	NA
2019/11/22 15:18:00	AWS2	4.68	100	6.12	96	M	M	M	NA	NA	985.8	NA	NA		M	NA	NA	NA	NA
2019/11/22 15:19:00	AWS2	4.51	103	6.12	96	M	M	M	NA	NA	986.0	NA	NA		M	NA	NA	NA	NA
2019/11/22 15:20:00	AWS2	4.21	105	6.12	96	M	M	M	NA	NA	986.0	NA	NA		M	NA	NA	NA	NA
2019/11/22 15:21:00	AWS2	4.22	101	6.12	96	M	M	M	NA	NA	985.7	NA	NA		M	NA	NA	NA	NA
2019/11/22 15:22:00	AWS2	4.05	95	6.12	96	M	M	M	NA	NA	986.1	NA	NA		M	NA	NA	NA	NA
2019/11/22 15:23:00	AWS2	4.62	99	6.12	96	M	M	M	NA	NA	986.2	NA	NA		M	NA	NA	NA	NA
2019/11/22 15:24:00	AWS2	5.23	106	6.12	96	M	M	M	NA	NA	986.2	NA	NA		M	NA	NA	NA	NA
2019/11/22 15:25:00	AWS2	4.95	108	6.12	96	M	M	M	NA	NA	986.2	NA	NA		M	NA	NA	NA	NA
2019/11/22 15:26:00	AWS2	4.69	107	5.81	109	M	M	M	NA	NA	985.9	NA	NA		M	NA	NA	NA	NA
2019/11/22 15:27:00	AWS2	4.55	106	5.81	109	M	M	M	NA	NA	986.8	NA	NA		M	NA	NA	NA	NA
2019/11/22 15:28:00	AWS2	4.53	101	5.81	109	M	M	M	NA	NA	986.6	NA	NA		M	NA	NA	NA	NA
2019/11/22 15:29:00	AWS2	4.53	98	5.81	109	M	M	M	NA	NA	986.2	NA	NA		M	NA	NA	NA	NA
2019/11/22 15:30:00	AWS2	4.74	102	5.81	109	M	M	M	NA	NA	986.1	NA	NA		M	NA	NA	NA	NA
2019/11/22 15:31:00	AWS2	5.27	103	6.07	96	M	M	M	NA	NA	985.9	NA	NA		M	NA	NA	NA	NA
2019/11/22 15:32:00	AWS2	5.30	102	6.07	96	M	M	M	NA	NA	986.0	NA	NA		M	NA	NA	NA	NA
2019/11/22 15:33:00	AWS2	5.29	105	6.33	107	M	M	M	NA	NA	986.4	NA	NA		M	NA	NA	NA	NA
2019/11/22 15:34:00	AWS2	5.25	106	6.38	105	M	M	M	NA	NA	986.2	NA	NA		M	NA	NA	NA	NA
2019/11/22 15:35:00	AWS2	5.06	109	6.38	105	M	M	M	NA	NA	986.2	NA	NA		M	NA	NA	NA	NA
2019/11/22 15:36:00	AWS2	4.63	108	6.38	105	M	M	M	NA	NA	985.8	NA	NA		M	NA	NA	NA	NA
2019/11/22 15:37:00	AWS2	4.07	104	6.38	105	M	M	M	NA	NA	986.0	NA	NA		M	NA	NA	NA	NA
2019/11/22 15:38:00	AWS2	4.32	108	6.38	105	M	M	M	NA	NA	986.3	NA	NA		M	NA	NA	NA	NA
2019/11/22 15:39:00	AWS2	4.22	112	6.38	105	M	M	M	NA	NA	986.2	NA	NA		M	NA	NA	NA	NA
2019/11/22 15:40:00	AWS2	3.86	107	6.38	105	M	M	M	NA	NA	985.9	NA	NA		M	NA	NA	NA	NA
2019/11/22 15:41:00	AWS2	4.04	103	6.38	105	M	M	M	NA	NA	986.0	NA	NA		M	NA	NA	NA	NA
2019/11/22 15:42:00	AWS2	4.26	107	6.38	105	M	M	M	NA	NA	985.6	NA	NA		M	NA	NA	NA	NA
2019/11/22 15:43:00	AWS2	4.10	111	6.38	105	M	M	M	NA	NA	985.8	NA	NA		M	NA	NA	NA	NA
2019/11/22 15:44:00	AWS2	3.91	109	6.02	110	M	M	M	NA	NA	986.3	NA	NA		M	NA	NA	NA	NA
2019/11/22 15:45:00	AWS2	3.90	107	5.25	115	M	M	M	NA	NA	985.9	NA	NA		M	NA	NA	NA	NA
2019/11/22 15:46:00	AWS2	3.74	107	5.25	115	M	M	M	NA	NA	986.3	NA	NA		M	NA	NA	NA	NA
2019/11/22 15:47:00	AWS2	3.50	109	5.25	115	M	M	M	NA	NA	985.9	NA	NA		M	NA	NA	NA	NA
2019/11/22 15:48:00	AWS2	3.72	109	5.04	111	M	M	M	NA	NA	986.5	NA	NA		M	NA	NA	NA	NA
2019/11/22 15:49:00	AWS2	4.04	105	5.04	111	M	M	M	NA	NA	986.7	NA	NA		M	NA	NA	NA	NA
2019/11/22 15:50:00	AWS2	3.83	103	5.04	111	M	M	M	NA	NA	986.5	NA	NA		M	NA	NA	NA	NA
2019/11/22 15:51:00	AWS2	3.71	94	5.04	111	M	M	M	NA	NA	986.4	NA	NA		M	NA	NA	NA	NA
2019/11/22 15:52:00	AWS2	3.75	84	4.89	109	M	M	M	NA	NA	986.8	NA	NA		M	NA	NA	NA	NA
2019/11/22 15:53:00	AWS2	3.67	88	4.89	109	M	M	M	NA	NA	986.3	NA	NA		M	NA	NA	NA	NA
2019/11/22 15:54:00	AWS2	3.73	93	4.89	109	M	M	M	NA	NA	986.1	NA	NA		M	NA	NA	NA	NA
2019/11/22 15:55:00	AWS2	3.72	91	4.89	109	M	M	M	NA	NA	986.6	NA	NA		M	NA	NA	NA	NA
2019/11/22 15:56:00	AWS2	3.43	92	4.89	109	M	M	M	NA	NA	986.5	NA	NA		M	NA	NA	NA	NA
2019/11/22 15:57:00	AWS2	3.40	96	4.89	109	M	M	M	NA	NA	986.0	NA	NA		M	NA	NA	NA	NA
2019/11/22 15:58:00	AWS2	3.30	98	4.68	106	M	M	M	NA	NA	986.1	NA	NA		M	NA	NA	NA	NA
2019/11/22 15:59:00	AWS2	3.00	102	4.37	93	M	M	M	NA	NA	986.4	NA	NA		M	NA	NA	NA	NA
2019/11/22 16:00:00	AWS2	2.89	110	4.37	93	M	M	M	NA	NA	986.3	NA	NA		M	NA	NA	NA	NA
2019/11/22 16:01:00	AWS2	2.91	114	4.37	93	M	M	M	NA	NA	985.7	NA	NA		M	NA	NA	NA	NA
2019/11/22 16:02:00	AWS2	2.95	111	4.37	93	M	M	M	NA	NA	985.8	NA	NA		M	NA	NA	NA	NA
2019/11/22 16:03:00	AWS2	3.08	110	4.37	93	M	M	M	NA	NA	986.1	NA	NA		M	NA	NA	NA	NA
2019/11/22 16:04:00	AWS2	3.23	111	4.06	87	M	M	M	NA	NA	985.9	NA	NA		M	NA	NA	NA	NA
2019/11/22 16:05:00	AWS2	3.13	111	4.06	111	M	M	M	NA	NA	985.9	NA	NA		M	NA	NA	NA	NA
2019/11/22 16:06:00	AWS2	3.04	117	4.06	111	M	M	M	NA	NA	985.7	NA	NA		M	NA	NA	NA	NA
2019/11/22 16:07:00	AWS2	3.06	123	4.06	111	M	M	M	NA	NA	985.7	NA	NA		M	NA	NA	NA	NA
2019/11/22 16:08:00	AWS2	3.06	118	4.06	111	M	M	M	NA	NA	985.3	NA	NA		M	NA	NA	NA	NA
2019/11/22 16:09:00	AWS2	3.20	115	4.06	111	M	M	M	NA	NA	986.6	NA	NA		M	NA	NA	NA	NA
2019/11/22 16:10:00	AWS2	3.22	116	4.06	111	M	M	M	NA	NA	985.7	NA	NA		M	NA	NA	NA	NA
2019/11/22 16:11:00	AWS2	3.14	115	4.06	111	M	M	M	NA	NA	985.7	NA	NA		M	NA	NA	NA	NA
2019/11/22 16:12:00	AWS2	3.23	114	4.06	111	M	M	M	NA	NA	986.2	NA	NA		M	NA	NA	NA	NA
2019/11/22 16:13:00	AWS2	3.36	115	4.12	110	M	M	M	NA	NA	985.7	NA	NA		M	NA	NA	NA	NA
2019/11/22 16:14:00	AWS2	3.47	113	4.48	111	M	M	M	NA	NA	986.0	NA	NA		M	NA	NA	NA	NA
2019/11/22 16:15:00	AWS2	3.45	113	4.73	111	M	M	M	NA	NA	986.4	NA	NA		M	NA	NA	NA	NA
2019/11/22 16:16:00	AWS2	3.32	112	4.73	111	M	M	M	NA	NA	986.0	NA	NA		M	NA	NA	NA	NA
2019/11/22 16:17:00	AWS2	3.52	112	4.73	111	M	M	M	NA	NA	986.4	NA	NA		M	NA	NA	NA	NA
2019/11/22 16:18:00	AWS2	4.09	118	4.94	120	M	M	M	NA	NA	986.5	NA	NA		M	NA	NA	NA	NA
2019/11/22 16:19:00	AWS2	3.95	120	4.94	120	M	M	M	NA	NA	985.8	NA	NA		M	NA	NA	NA	NA
2019/11/22 16:20:00	AWS2	3.51	113	4.94	120	M	M	M	NA	NA	985.7	NA	NA		M	NA	NA	NA	NA
2019/11/22 16:21:00	AWS2	4.17	115	5.35	117	M	M	M	NA	NA	985.6	NA	NA		M	NA	NA	NA	NA
2019/11/22 16:22:00	AWS2	4.78	122	5.35	117	M	M	M	NA	NA	985.5	NA	NA		M	NA	NA	NA	NA
2019/11/22 16:23:00	AWS2	4.76	123	5.56	113	M	M	M	NA	NA	986.0	NA	NA		M	NA	NA	NA	NA
2019/11/22 16:24:00	AWS2	4.71	121	5.56	113	M	M	M	NA	NA	986.0	NA	NA		M	NA	NA	NA	NA
2019/11/22 16:25:00	AWS2	4.77	121	5.56	113	M	M	M	NA	NA	986.0	NA	NA		M	NA	NA	NA	NA
2019/11/22 16:26:00	AWS2	4.38	112	5.56	113	M	M	M	NA	NA	986.7	NA	NA		M	NA	NA	NA	NA
2019/11/22 16:27:00	AWS2	3.72	102	5.56	113	M	M	M	NA	NA	986.5	NA	NA		M	NA	NA	NA	NA
2019/11/22 16:28:00	AWS2	3.77	98	5.56	113	M	M	M	NA	NA	986.5	NA	NA		M	NA	NA	NA	NA
2019/11/22 16:29:00	AWS2	4.00	103	5.56	113	M	M	M	NA	NA	986.5	NA	NA		M	NA	NA	NA	NA
2019/11/22 16:30:00	AWS2	3.50	116	5.56	113	M	M	M	NA	NA	986.3	NA	NA		M	NA	NA	NA	NA
2019/11/22 16:31:00	AWS2	3.20	118	5.56	113	M	M	M	NA	NA	986.1	NA	NA		M	NA	NA	NA	NA
2019/11/22 16:32:00	AWS2	3.84	115	5.56	113	M	M	M	NA	NA	986.0	NA	NA		M	NA	NA	NA	NA
2019/11/22 16:33:00	AWS2	4.07	113	5.50	127	M	M	M	NA	NA	986.5	NA	NA		M	NA	NA	NA	NA
2019/11/22 16:34:00	AWS2	3.52	113	5.50	127	M	M	M	NA	NA	986.6	NA	NA		M	NA	NA	NA	NA
2019/11/22 16:35:00	AWS2	2.82	114	5.14	86	M	M	M	NA	NA	986.5	NA	NA		M	NA	NA	NA	NA
2019/11/22 16:36:00	AWS2	2.62	115	5.14	86	M	M	M	NA	NA	986.4	NA	NA		M	NA	NA	NA	NA
2019/11/22 16:37:00	AWS2	2.50	114	5.14	86	M	M	M	NA	NA	986.1	NA	NA		M	NA	NA	NA	NA
2019/11/22 16:38:00	AWS2	2.48	109	4.89	87	M	M	M	NA	NA	986.3	NA	NA		M	NA	NA	NA	NA
2019/11/22 16:39:00	AWS2	3.01	100	4.78	103	M	M	M	NA	NA	986.9	NA	NA		M	NA	NA	NA	NA
2019/11/22 16:40:00	AWS2	2.56	99	4.78	103	M	M	M	NA	NA	986.1	NA	NA		M	NA	NA	NA	NA
2019/11/22 16:41:00	AWS2	1.91	91	4.78	103	M	M	M	NA	NA	986.7	NA	NA		M	NA	NA	NA	NA
2019/11/22 16:42:00	AWS2	1.78	74	4.78	103	M	M	M	NA	NA	986.3	NA	NA		M	NA	NA	NA	NA
2019/11/22 16:43:00	AWS2	1.62	49	4.12	101	M	M	M	NA	NA	986.5	NA	NA		M	NA	NA	NA	NA
2019/11/22 16:44:00	AWS2	1.23	23	4.12	101	M	M	M	NA	NA	985.8	NA	NA		M	NA	NA	NA	NA
2019/11/22 16:45:00	AWS2	0.38	25	4.12	101	M	M	M	NA	NA	986.2	NA	NA		M	NA	NA	NA	NA
2019/11/22 16:46:00	AWS2	0.45	55	4.12	101	M	M	M	NA	NA	986.2	NA	NA		M	NA	NA	NA	NA
2019/11/22 16:47:00	AWS2	0.80	47	4.12	101	M	M	M	NA	NA	986.3	NA	NA		M	NA	NA	NA	NA
2019/11/22 16:48:00	AWS2	0.71	47	4.12	101	M	M	M	NA	NA	986.5	NA	NA		M	NA	NA	NA	NA
2019/11/22 16:49:00	AWS2	1.06	52	2.57	89	M	M	M	NA	NA	986.3	NA	NA		M	NA	NA	NA	NA
2019/11/22 16:50:00	AWS2	1.19	42	2.52	86	M	M	M	NA	NA	986.3	NA	NA		M	NA	NA	NA	NA
2019/11/22 16:51:00	AWS2	1.34	44	2.42	26	M	M	M	NA	NA	986.5	NA	NA		M	NA	NA	NA	NA
2019/11/22 16:52:00	AWS2	3.20	32	5.92	16	M	M	M	NA	NA	986.2	NA	NA		M	NA	NA	NA	NA
2019/11/22 16:53:00	AWS2	5.16	28	6.84	32	M	M	M	NA	NA	986.6	NA	NA		M	NA	NA	NA	NA
2019/11/22 16:54:00	AWS2	6.53	30	9.31	18	M	M	M	NA	NA	986.8	NA	NA		M	NA	NA	NA	NA
2019/11/22 16:55:00	AWS2	6.50	31	9.31	18	M	M	M	NA	NA	986.5	NA	NA		M	NA	NA	NA	NA
2019/11/22 16:56:00	AWS2	6.57	27	9.31	18	M	M	M	NA	NA	986.5	NA	NA		M	NA	NA	NA	NA
2019/11/22 16:57:00	AWS2	6.87	20	9.31	18	M	M	M	NA	NA	986.4	NA	NA		M	NA	NA	NA	NA
2019/11/22 16:58:00	AWS2	6.47	23	9.31	18	M	M	M	NA	NA	986.9	NA	NA		M	NA	NA	NA	NA
2019/11/22 16:59:00	AWS2	6.77	25	9.31	18	M	M	M	NA	NA	986.6	NA	NA		M	NA	NA	NA	NA
2019/11/22 17:00:00	AWS2	7.40	23	9.72	28	M	M	M	NA	NA	986.5	NA	NA		M	NA	NA	NA	NA
2019/11/22 17:01:00	AWS2	8.32	21	9.72	28	M	M	M	NA	NA	986.8	NA	NA		M	NA	NA	NA	NA
2019/11/22 17:02:00	AWS2	8.85	17	10.34	10	M	M	M	NA	NA	986.9	NA	NA		M	NA	NA	NA	NA
2019/11/22 17:03:00	AWS2	8.91	16	10.34	10	M	M	M	NA	NA	986.6	NA	NA		M	NA	NA	NA	NA
2019/11/22 17:04:00	AWS2	8.52	19	10.34	10	M	M	M	NA	NA	986.7	NA	NA		M	NA	NA	NA	NA
2019/11/22 17:05:00	AWS2	8.34	20	10.34	10	M	M	M	NA	NA	986.7	NA	NA		M	NA	NA	NA	NA
2019/11/22 17:06:00	AWS2	8.00	17	10.34	10	M	M	M	NA	NA	987.1	NA	NA		M	NA	NA	NA	NA
2019/11/22 17:07:00	AWS2	8.41	16	11.73	14	M	M	M	NA	NA	987.1	NA	NA		M	NA	NA	NA	NA
2019/11/22 17:08:00	AWS2	8.76	19	11.73	14	M	M	M	NA	NA	986.7	NA	NA		M	NA	NA	NA	NA
2019/11/22 17:09:00	AWS2	8.73	21	11.73	14	M	M	M	NA	NA	987.0	NA	NA		M	NA	NA	NA	NA
2019/11/22 17:10:00	AWS2	8.69	20	11.73	14	M	M	M	NA	NA	987.1	NA	NA		M	NA	NA	NA	NA
2019/11/22 17:11:00	AWS2	8.80	18	11.73	14	M	M	M	NA	NA	986.8	NA	NA		M	NA	NA	NA	NA
2019/11/22 17:12:00	AWS2	9.30	17	11.73	14	M	M	M	NA	NA	986.9	NA	NA		M	NA	NA	NA	NA
2019/11/22 17:13:00	AWS2	8.60	19	11.73	14	M	M	M	NA	NA	987.1	NA	NA		M	NA	NA	NA	NA
2019/11/22 17:14:00	AWS2	7.85	21	11.73	14	M	M	M	NA	NA	987.2	NA	NA		M	NA	NA	NA	NA
2019/11/22 17:15:00	AWS2	7.72	23	11.73	14	M	M	M	NA	NA	987.1	NA	NA		M	NA	NA	NA	NA
2019/11/22 17:16:00	AWS2	8.44	20	11.73	14	M	M	M	NA	NA	987.0	NA	NA		M	NA	NA	NA	NA
2019/11/22 17:17:00	AWS2	8.82	19	11.42	26	M	M	M	NA	NA	986.8	NA	NA		M	NA	NA	NA	NA
2019/11/22 17:18:00	AWS2	8.13	21	11.42	26	M	M	M	NA	NA	987.3	NA	NA		M	NA	NA	NA	NA
2019/11/22 17:19:00	AWS2	8.17	18	11.42	26	M	M	M	NA	NA	987.3	NA	NA		M	NA	NA	NA	NA
2019/11/22 17:20:00	AWS2	7.69	20	11.42	26	M	M	M	NA	NA	987.1	NA	NA		M	NA	NA	NA	NA
2019/11/22 17:21:00	AWS2	7.94	20	10.65	28	M	M	M	NA	NA	986.9	NA	NA		M	NA	NA	NA	NA
2019/11/22 17:22:00	AWS2	8.87	18	10.65	28	M	M	M	NA	NA	987.2	NA	NA		M	NA	NA	NA	NA
2019/11/22 17:23:00	AWS2	8.25	20	10.65	28	M	M	M	NA	NA	987.2	NA	NA		M	NA	NA	NA	NA
2019/11/22 17:24:00	AWS2	8.53	16	10.65	28	M	M	M	NA	NA	987.0	NA	NA		M	NA	NA	NA	NA
2019/11/22 17:25:00	AWS2	9.93	18	11.42	16	M	M	M	NA	NA	986.9	NA	NA		M	NA	NA	NA	NA
2019/11/22 17:26:00	AWS2	9.86	19	11.42	16	M	M	M	NA	NA	986.9	NA	NA		M	NA	NA	NA	NA
2019/11/22 17:27:00	AWS2	9.36	17	11.42	16	M	M	M	NA	NA	987.2	NA	NA		M	NA	NA	NA	NA
2019/11/22 17:28:00	AWS2	9.06	13	11.42	16	M	M	M	NA	NA	987.3	NA	NA		M	NA	NA	NA	NA
2019/11/22 17:29:00	AWS2	8.78	11	11.47	23	M	M	M	NA	NA	987.2	NA	NA		M	NA	NA	NA	NA
2019/11/22 17:30:00	AWS2	9.33	15	11.47	23	M	M	M	NA	NA	987.0	NA	NA		M	NA	NA	NA	NA
2019/11/22 17:31:00	AWS2	9.15	16	11.47	23	M	M	M	NA	NA	987.1	NA	NA		M	NA	NA	NA	NA
2019/11/22 17:32:00	AWS2	8.84	17	11.47	23	M	M	M	NA	NA	987.2	NA	NA		M	NA	NA	NA	NA
2019/11/22 17:33:00	AWS2	9.84	14	12.96	13	M	M	M	NA	NA	987.1	NA	NA		M	NA	NA	NA	NA
2019/11/22 17:34:00	AWS2	10.73	12	12.96	13	M	M	M	NA	NA	986.9	NA	NA		M	NA	NA	NA	NA
2019/11/22 17:35:00	AWS2	11.47	14	13.48	29	M	M	M	NA	NA	986.6	NA	NA		M	NA	NA	NA	NA
2019/11/22 17:36:00	AWS2	11.71	15	13.48	29	M	M	M	NA	NA	986.7	NA	NA		M	NA	NA	NA	NA
2019/11/22 17:37:00	AWS2	11.34	14	13.48	29	M	M	M	NA	NA	986.8	NA	NA		M	NA	NA	NA	NA
2019/11/22 17:38:00	AWS2	11.48	14	13.48	29	M	M	M	NA	NA	986.7	NA	NA		M	NA	NA	NA	NA
2019/11/22 17:39:00	AWS2	11.52	13	13.48	29	M	M	M	NA	NA	986.6	NA	NA		M	NA	NA	NA	NA
2019/11/22 17:40:00	AWS2	11.72	12	13.99	3	M	M	M	NA	NA	986.4	NA	NA		M	NA	NA	NA	NA
2019/11/22 17:41:00	AWS2	12.58	10	15.07	3	M	M	M	NA	NA	986.4	NA	NA		M	NA	NA	NA	NA
2019/11/22 17:42:00	AWS2	12.39	10	15.07	3	M	M	M	NA	NA	986.5	NA	NA		M	NA	NA	NA	NA
2019/11/22 17:43:00	AWS2	11.74	14	15.07	3	M	M	M	NA	NA	986.4	NA	NA		M	NA	NA	NA	NA
2019/11/22 17:44:00	AWS2	12.24	13	15.07	3	M	M	M	NA	NA	986.4	NA	NA		M	NA	NA	NA	NA
2019/11/22 17:45:00	AWS2	12.44	12	15.07	3	M	M	M	NA	NA	986.5	NA	NA		M	NA	NA	NA	NA
2019/11/22 17:46:00	AWS2	11.89	14	15.07	3	M	M	M	NA	NA	986.3	NA	NA		M	NA	NA	NA	NA
2019/11/22 17:47:00	AWS2	11.36	15	15.07	3	M	M	M	NA	NA	986.4	NA	NA		M	NA	NA	NA	NA
2019/11/22 17:48:00	AWS2	10.99	13	15.07	3	M	M	M	NA	NA	986.3	NA	NA		M	NA	NA	NA	NA
2019/11/22 17:49:01	AWS2	10.80	8	15.07	3	M	M	M	NA	NA	986.6	NA	NA		M	NA	NA	NA	NA
2019/11/22 17:50:00	AWS2	11.87	7	15.07	3	M	M	M	NA	NA	986.3	NA	NA		M	NA	NA	NA	NA
2019/11/22 17:51:00	AWS2	12.82	12	14.82	8	M	M	M	NA	NA	986.6	NA	NA		M	NA	NA	NA	NA
2019/11/22 17:52:00	AWS2	13.17	13	15.28	7	M	M	M	NA	NA	986.3	NA	NA		M	NA	NA	NA	NA
2019/11/22 17:53:00	AWS2	13.15	11	15.28	7	M	M	M	NA	NA	986.4	NA	NA		M	NA	NA	NA	NA
2019/11/22 17:54:00	AWS2	12.14	10	15.28	7	M	M	M	NA	NA	986.3	NA	NA		M	NA	NA	NA	NA
2019/11/22 17:55:00	AWS2	11.71	9	15.28	7	M	M	M	NA	NA	986.1	NA	NA		M	NA	NA	NA	NA
2019/11/22 17:56:00	AWS2	12.36	10	15.64	15	M	M	M	NA	NA	986.3	NA	NA		M	NA	NA	NA	NA
2019/11/22 17:57:00	AWS2	12.54	8	15.64	15	M	M	M	NA	NA	986.5	NA	NA		M	NA	NA	NA	NA
2019/11/22 17:58:00	AWS2	12.26	6	15.64	15	M	M	M	NA	NA	986.4	NA	NA		M	NA	NA	NA	NA
2019/11/22 17:59:00	AWS2	12.01	10	15.64	15	M	M	M	NA	NA	986.0	NA	NA		M	NA	NA	NA	NA
2019/11/22 18:00:00	AWS2	12.29	10	15.64	15	M	M	M	NA	NA	986.4	NA	NA		M	NA	NA	NA	NA
2019/11/22 18:01:00	AWS2	13.17	9	15.64	15	M	M	M	NA	NA	986.3	NA	NA		M	NA	NA	NA	NA
2019/11/22 18:02:00	AWS2	14.05	10	17.18	142	M	M	M	NA	NA	985.4	NA	NA		M	NA	NA	NA	NA
2019/11/22 18:03:00	AWS2	14.58	11	17.18	142	M	M	M	NA	NA	986.2	NA	NA		M	NA	NA	NA	NA
2019/11/22 18:04:00	AWS2	14.12	8	17.18	142	M	M	M	NA	NA	986.3	NA	NA		M	NA	NA	NA	NA
2019/11/22 18:05:00	AWS2	13.46	9	17.18	142	M	M	M	NA	NA	986.2	NA	NA		M	NA	NA	NA	NA
2019/11/22 18:06:00	AWS2	13.38	11	17.18	142	M	M	M	NA	NA	985.9	NA	NA		M	NA	NA	NA	NA
2019/11/22 18:07:00	AWS2	13.81	9	17.18	142	M	M	M	NA	NA	985.9	NA	NA		M	NA	NA	NA	NA
2019/11/22 18:08:00	AWS2	13.91	8	17.18	142	M	M	M	NA	NA	985.7	NA	NA		M	NA	NA	NA	NA
2019/11/22 18:09:00	AWS2	13.92	9	17.18	142	M	M	M	NA	NA	985.9	NA	NA		M	NA	NA	NA	NA
2019/11/22 18:10:00	AWS2	14.22	10	17.18	142	M	M	M	NA	NA	986.3	NA	NA		M	NA	NA	NA	NA
2019/11/22 18:11:00	AWS2	14.38	9	17.18	142	M	M	M	NA	NA	986.2	NA	NA		M	NA	NA	NA	NA
2019/11/22 18:12:00	AWS2	14.47	9	16.20	7	M	M	M	NA	NA	985.8	NA	NA		M	NA	NA	NA	NA
2019/11/22 18:13:00	AWS2	13.88	11	16.20	7	M	M	M	NA	NA	985.4	NA	NA		M	NA	NA	NA	NA
2019/11/22 18:14:00	AWS2	13.08	10	16.20	7	M	M	M	NA	NA	986.0	NA	NA		M	NA	NA	NA	NA
2019/11/22 18:15:00	AWS2	12.79	10	16.20	7	M	M	M	NA	NA	986.0	NA	NA		M	NA	NA	NA	NA
2019/11/22 18:16:00	AWS2	12.84	11	16.20	7	M	M	M	NA	NA	986.1	NA	NA		M	NA	NA	NA	NA
2019/11/22 18:17:00	AWS2	13.13	8	16.20	7	M	M	M	NA	NA	985.8	NA	NA		M	NA	NA	NA	NA
2019/11/22 18:18:00	AWS2	12.70	10	16.20	7	M	M	M	NA	NA	985.5	NA	NA		M	NA	NA	NA	NA
2019/11/22 18:19:00	AWS2	12.51	12	16.20	7	M	M	M	NA	NA	985.8	NA	NA		M	NA	NA	NA	NA
2019/11/22 18:20:00	AWS2	13.04	9	16.15	2	M	M	M	NA	NA	985.8	NA	NA		M	NA	NA	NA	NA
2019/11/22 18:21:00	AWS2	12.33	7	15.84	11	M	M	M	NA	NA	986.4	NA	NA		M	NA	NA	NA	NA
2019/11/22 18:22:00	AWS2	11.72	7	15.43	3	M	M	M	NA	NA	986.0	NA	NA		M	NA	NA	NA	NA
2019/11/22 18:23:00	AWS2	11.85	12	15.43	3	M	M	M	NA	NA	985.7	NA	NA		M	NA	NA	NA	NA
2019/11/22 18:24:00	AWS2	11.96	14	15.43	3	M	M	M	NA	NA	985.7	NA	NA		M	NA	NA	NA	NA
2019/11/22 18:25:00	AWS2	12.45	12	15.43	3	M	M	M	NA	NA	986.1	NA	NA		M	NA	NA	NA	NA
2019/11/22 18:26:00	AWS2	12.11	13	15.43	3	M	M	M	NA	NA	986.3	NA	NA		M	NA	NA	NA	NA
2019/11/22 18:27:00	AWS2	11.74	13	15.43	3	M	M	M	NA	NA	985.7	NA	NA		M	NA	NA	NA	NA
2019/11/22 18:28:00	AWS2	11.76	9	15.43	3	M	M	M	NA	NA	986.4	NA	NA		M	NA	NA	NA	NA
2019/11/22 18:29:00	AWS2	12.57	4	14.82	294	M	M	M	NA	NA	986.3	NA	NA		M	NA	NA	NA	NA
2019/11/22 18:30:00	AWS2	12.78	1	14.82	294	M	M	M	NA	NA	986.9	NA	NA		M	NA	NA	NA	NA
2019/11/22 18:31:00	AWS2	11.43	1	14.82	294	M	M	M	NA	NA	986.5	NA	NA		M	NA	NA	NA	NA
2019/11/22 18:32:00	AWS2	11.07	3	14.82	294	M	M	M	NA	NA	986.3	NA	NA		M	NA	NA	NA	NA
2019/11/22 18:33:00	AWS2	11.01	8	14.82	294	M	M	M	NA	NA	986.6	NA	NA		M	NA	NA	NA	NA
2019/11/22 18:34:00	AWS2	11.34	11	14.82	294	M	M	M	NA	NA	986.2	NA	NA		M	NA	NA	NA	NA
2019/11/22 18:35:00	AWS2	11.99	10	14.82	294	M	M	M	NA	NA	987.2	NA	NA		M	NA	NA	NA	NA
2019/11/22 18:36:00	AWS2	12.14	11	14.82	294	M	M	M	NA	NA	986.8	NA	NA		M	NA	NA	NA	NA
2019/11/22 18:37:00	AWS2	12.21	11	14.82	294	M	M	M	NA	NA	986.3	NA	NA		M	NA	NA	NA	NA
2019/11/22 18:38:00	AWS2	11.81	8	14.82	294	M	M	M	NA	NA	986.9	NA	NA		M	NA	NA	NA	NA
2019/11/22 18:39:00	AWS2	10.30	1	14.20	354	M	M	M	NA	NA	987.6	NA	NA		M	NA	NA	NA	NA
2019/11/22 18:40:00	AWS2	9.04	356	13.68	8	M	M	M	NA	NA	987.2	NA	NA		M	NA	NA	NA	NA
2019/11/22 18:41:00	AWS2	9.61	2	13.68	8	M	M	M	NA	NA	987.0	NA	NA		M	NA	NA	NA	NA
2019/11/22 18:42:00	AWS2	11.08	11	13.68	8	M	M	M	NA	NA	986.4	NA	NA		M	NA	NA	NA	NA
2019/11/22 18:43:00	AWS2	11.45	13	13.68	8	M	M	M	NA	NA	986.8	NA	NA		M	NA	NA	NA	NA
2019/11/22 18:44:01	AWS2	11.59	14	13.68	8	M	M	M	NA	NA	986.7	NA	NA		M	NA	NA	NA	NA
2019/11/22 18:45:00	AWS2	11.97	13	13.53	13	M	M	M	NA	NA	986.6	NA	NA		M	NA	NA	NA	NA
2019/11/22 18:46:00	AWS2	11.01	10	13.53	13	M	M	M	NA	NA	986.5	NA	NA		M	NA	NA	NA	NA
2019/11/22 18:47:00	AWS2	10.49	7	13.53	13	M	M	M	NA	NA	986.7	NA	NA		M	NA	NA	NA	NA
2019/11/22 18:48:00	AWS2	10.26	8	13.53	13	M	M	M	NA	NA	986.9	NA	NA		M	NA	NA	NA	NA
2019/11/22 18:49:00	AWS2	9.86	12	13.53	13	M	M	M	NA	NA	986.7	NA	NA		M	NA	NA	NA	NA
2019/11/22 18:50:00	AWS2	10.23	13	13.53	13	M	M	M	NA	NA	986.8	NA	NA		M	NA	NA	NA	NA
2019/11/22 18:51:00	AWS2	10.33	12	13.53	13	M	M	M	NA	NA	986.2	NA	NA		M	NA	NA	NA	NA
2019/11/22 18:52:00	AWS2	9.86	9	13.53	13	M	M	M	NA	NA	987.1	NA	NA		M	NA	NA	NA	NA
2019/11/22 18:53:00	AWS2	9.19	11	13.53	13	M	M	M	NA	NA	986.5	NA	NA		M	NA	NA	NA	NA
2019/11/22 18:54:00	AWS2	9.23	13	13.53	13	M	M	M	NA	NA	986.4	NA	NA		M	NA	NA	NA	NA
2019/11/22 18:55:00	AWS2	9.64	10	11.73	7	M	M	M	NA	NA	986.2	NA	NA		M	NA	NA	NA	NA
2019/11/22 18:56:00	AWS2	9.76	7	11.73	9	M	M	M	NA	NA	986.6	NA	NA		M	NA	NA	NA	NA
2019/11/22 18:57:00	AWS2	9.51	9	11.73	9	M	M	M	NA	NA	986.9	NA	NA		M	NA	NA	NA	NA
2019/11/22 18:58:00	AWS2	9.10	8	11.73	9	M	M	M	NA	NA	987.4	NA	NA		M	NA	NA	NA	NA
2019/11/22 18:59:00	AWS2	9.99	9	12.86	19	M	M	M	NA	NA	987.3	NA	NA		M	NA	NA	NA	NA
2019/11/22 19:00:00	AWS2	11.16	11	12.86	19	M	M	M	NA	NA	986.9	NA	NA		M	NA	NA	NA	NA
2019/11/22 19:01:00	AWS2	11.57	10	13.99	10	M	M	M	NA	NA	987.3	NA	NA		M	NA	NA	NA	NA
2019/11/22 19:02:00	AWS2	12.24	10	14.35	14	M	M	M	NA	NA	987.5	NA	NA		M	NA	NA	NA	NA
2019/11/22 19:03:00	AWS2	13.17	10	15.23	10	M	M	M	NA	NA	986.9	NA	NA		M	NA	NA	NA	NA
2019/11/22 19:04:00	AWS2	13.63	9	15.23	10	M	M	M	NA	NA	986.9	NA	NA		M	NA	NA	NA	NA
2019/11/22 19:05:00	AWS2	13.09	9	15.23	10	M	M	M	NA	NA	987.1	NA	NA		M	NA	NA	NA	NA
2019/11/22 19:06:00	AWS2	12.25	10	15.23	10	M	M	M	NA	NA	987.6	NA	NA		M	NA	NA	NA	NA
2019/11/22 19:07:00	AWS2	11.45	10	15.23	10	M	M	M	NA	NA	987.4	NA	NA		M	NA	NA	NA	NA
2019/11/22 19:08:00	AWS2	11.00	9	15.23	10	M	M	M	NA	NA	987.5	NA	NA		M	NA	NA	NA	NA
2019/11/22 19:09:00	AWS2	11.29	9	15.23	10	M	M	M	NA	NA	987.3	NA	NA		M	NA	NA	NA	NA
2019/11/22 19:10:00	AWS2	11.46	10	15.23	10	M	M	M	NA	NA	987.5	NA	NA		M	NA	NA	NA	NA
2019/11/22 19:11:00	AWS2	11.35	9	15.23	10	M	M	M	NA	NA	987.3	NA	NA		M	NA	NA	NA	NA
2019/11/22 19:12:00	AWS2	11.38	5	15.23	10	M	M	M	NA	NA	987.4	NA	NA		M	NA	NA	NA	NA
2019/11/22 19:13:00	AWS2	11.17	5	14.25	3	M	M	M	NA	NA	987.2	NA	NA		M	NA	NA	NA	NA
2019/11/22 19:14:00	AWS2	10.66	7	13.79	7	M	M	M	NA	NA	987.5	NA	NA		M	NA	NA	NA	NA
2019/11/22 19:15:00	AWS2	10.59	8	13.22	8	M	M	M	NA	NA	987.5	NA	NA		M	NA	NA	NA	NA
2019/11/22 19:16:00	AWS2	11.30	7	13.53	6	M	M	M	NA	NA	987.3	NA	NA		M	NA	NA	NA	NA
2019/11/22 19:17:00	AWS2	11.87	7	13.53	6	M	M	M	NA	NA	987.2	NA	NA		M	NA	NA	NA	NA
2019/11/22 19:18:00	AWS2	11.76	7	13.53	6	M	M	M	NA	NA	987.4	NA	NA		M	NA	NA	NA	NA
2019/11/22 19:19:00	AWS2	11.56	8	13.53	6	M	M	M	NA	NA	987.0	NA	NA		M	NA	NA	NA	NA
2019/11/22 19:20:00	AWS2	11.30	9	13.53	6	M	M	M	NA	NA	987.3	NA	NA		M	NA	NA	NA	NA
2019/11/22 19:21:00	AWS2	11.17	8	13.53	6	M	M	M	NA	NA	986.7	NA	NA		M	NA	NA	NA	NA
2019/11/22 19:22:00	AWS2	11.16	9	13.53	6	M	M	M	NA	NA	987.1	NA	NA		M	NA	NA	NA	NA
2019/11/22 19:23:00	AWS2	11.39	9	13.53	6	M	M	M	NA	NA	987.4	NA	NA		M	NA	NA	NA	NA
2019/11/22 19:24:00	AWS2	12.13	9	13.58	8	M	M	M	NA	NA	986.9	NA	NA		M	NA	NA	NA	NA
2019/11/22 19:25:00	AWS2	12.38	8	13.58	6	M	M	M	NA	NA	986.8	NA	NA		M	NA	NA	NA	NA
2019/11/22 19:26:00	AWS2	11.95	8	13.58	6	M	M	M	NA	NA	986.8	NA	NA		M	NA	NA	NA	NA
2019/11/22 19:27:00	AWS2	11.91	9	13.58	6	M	M	M	NA	NA	987.1	NA	NA		M	NA	NA	NA	NA
2019/11/22 19:28:00	AWS2	11.75	8	13.58	6	M	M	M	NA	NA	986.9	NA	NA		M	NA	NA	NA	NA
2019/11/22 19:29:00	AWS2	10.66	7	13.58	6	M	M	M	NA	NA	986.8	NA	NA		M	NA	NA	NA	NA
2019/11/22 19:30:00	AWS2	10.19	8	13.58	6	M	M	M	NA	NA	986.6	NA	NA		M	NA	NA	NA	NA
2019/11/22 19:31:00	AWS2	10.44	10	13.58	6	M	M	M	NA	NA	985.7	NA	NA		M	NA	NA	NA	NA
2019/11/22 19:32:00	AWS2	10.90	9	13.58	6	M	M	M	NA	NA	986.8	NA	NA		M	NA	NA	NA	NA
2019/11/22 19:33:00	AWS2	11.12	6	13.58	6	M	M	M	NA	NA	986.8	NA	NA		M	NA	NA	NA	NA
2019/11/22 19:34:00	AWS2	10.66	6	13.58	6	M	M	M	NA	NA	986.6	NA	NA		M	NA	NA	NA	NA
2019/11/22 19:35:00	AWS2	10.58	6	12.86	6	M	M	M	NA	NA	986.9	NA	NA		M	NA	NA	NA	NA
2019/11/22 19:36:00	AWS2	10.65	5	12.81	18	M	M	M	NA	NA	986.9	NA	NA		M	NA	NA	NA	NA
2019/11/22 19:37:00	AWS2	10.48	5	12.35	10	M	M	M	NA	NA	986.7	NA	NA		M	NA	NA	NA	NA
2019/11/22 19:38:00	AWS2	10.32	6	11.99	2	M	M	M	NA	NA	986.5	NA	NA		M	NA	NA	NA	NA
2019/11/22 19:39:00	AWS2	10.30	8	11.99	2	M	M	M	NA	NA	986.6	NA	NA		M	NA	NA	NA	NA
2019/11/22 19:40:00	AWS2	10.56	9	11.99	2	M	M	M	NA	NA	985.9	NA	NA		M	NA	NA	NA	NA
2019/11/22 19:41:00	AWS2	10.55	11	12.24	19	M	M	M	NA	NA	985.7	NA	NA		M	NA	NA	NA	NA
2019/11/22 19:42:00	AWS2	10.70	10	12.24	19	M	M	M	NA	NA	985.8	NA	NA		M	NA	NA	NA	NA
2019/11/22 19:43:00	AWS2	10.95	8	12.24	19	M	M	M	NA	NA	985.5	NA	NA		M	NA	NA	NA	NA
2019/11/22 19:44:00	AWS2	11.20	8	12.24	19	M	M	M	NA	NA	985.1	NA	NA		M	NA	NA	NA	NA
2019/11/22 19:45:00	AWS2	11.21	8	12.24	19	M	M	M	NA	NA	986.0	NA	NA		M	NA	NA	NA	NA
2019/11/22 19:46:00	AWS2	10.31	10	12.24	19	M	M	M	NA	NA	985.5	NA	NA		M	NA	NA	NA	NA
2019/11/22 19:47:00	AWS2	9.71	11	12.24	19	M	M	M	NA	NA	986.6	NA	NA		M	NA	NA	NA	NA
2019/11/22 19:48:00	AWS2	9.76	6	12.24	19	M	M	M	NA	NA	987.0	NA	NA		M	NA	NA	NA	NA
2019/11/22 19:49:00	AWS2	9.90	5	12.24	19	M	M	M	NA	NA	986.4	NA	NA		M	NA	NA	NA	NA
2019/11/22 19:50:00	AWS2	10.04	8	12.24	19	M	M	M	NA	NA	987.3	NA	NA		M	NA	NA	NA	NA
2019/11/22 19:51:00	AWS2	9.93	10	11.99	15	M	M	M	NA	NA	986.5	NA	NA		M	NA	NA	NA	NA
2019/11/22 19:52:00	AWS2	10.34	10	12.66	5	M	M	M	NA	NA	987.5	NA	NA		M	NA	NA	NA	NA
2019/11/22 19:53:00	AWS2	10.45	9	12.66	5	M	M	M	NA	NA	986.5	NA	NA		M	NA	NA	NA	NA
2019/11/22 19:54:00	AWS2	10.75	10	12.81	11	M	M	M	NA	NA	986.2	NA	NA		M	NA	NA	NA	NA
2019/11/22 19:55:00	AWS2	11.37	10	12.81	11	M	M	M	NA	NA	986.1	NA	NA		M	NA	NA	NA	NA
2019/11/22 19:56:00	AWS2	10.91	7	12.81	11	M	M	M	NA	NA	986.6	NA	NA		M	NA	NA	NA	NA
2019/11/22 19:57:00	AWS2	10.30	8	12.81	11	M	M	M	NA	NA	986.8	NA	NA		M	NA	NA	NA	NA
2019/11/22 19:58:00	AWS2	10.49	7	12.81	11	M	M	M	NA	NA	986.3	NA	NA		M	NA	NA	NA	NA
2019/11/22 19:59:00	AWS2	11.24	5	12.81	11	M	M	M	NA	NA	986.4	NA	NA		M	NA	NA	NA	NA
2019/11/22 20:00:00	AWS2	11.62	5	12.91	6	M	M	M	NA	NA	986.6	NA	NA		M	NA	NA	NA	NA
2019/11/22 20:01:00	AWS2	11.39	4	12.91	6	M	M	M	NA	NA	985.8	NA	NA		M	NA	NA	NA	NA
2019/11/22 20:02:00	AWS2	11.64	8	13.22	6	M	M	M	NA	NA	986.2	NA	NA		M	NA	NA	NA	NA
2019/11/22 20:03:00	AWS2	11.63	11	13.22	6	M	M	M	NA	NA	985.8	NA	NA		M	NA	NA	NA	NA
2019/11/22 20:04:01	AWS2	10.93	10	13.22	6	M	M	M	NA	NA	986.0	NA	NA		M	NA	NA	NA	NA
2019/11/22 20:05:00	AWS2	11.06	10	13.22	6	M	M	M	NA	NA	985.8	NA	NA		M	NA	NA	NA	NA
2019/11/22 20:06:00	AWS2	11.41	9	13.22	6	M	M	M	NA	NA	985.8	NA	NA		M	NA	NA	NA	NA
2019/11/22 20:07:00	AWS2	11.47	7	13.22	6	M	M	M	NA	NA	986.1	NA	NA		M	NA	NA	NA	NA
2019/11/22 20:08:00	AWS2	11.41	3	13.22	6	M	M	M	NA	NA	985.9	NA	NA		M	NA	NA	NA	NA
2019/11/22 20:09:00	AWS2	10.80	1	13.22	6	M	M	M	NA	NA	985.7	NA	NA		M	NA	NA	NA	NA
2019/11/22 20:10:00	AWS2	10.57	3	13.22	6	M	M	M	NA	NA	986.3	NA	NA		M	NA	NA	NA	NA
2019/11/22 20:11:00	AWS2	11.23	7	13.22	6	M	M	M	NA	NA	985.6	NA	NA		M	NA	NA	NA	NA
2019/11/22 20:12:00	AWS2	11.63	8	13.07	18	M	M	M	NA	NA	986.4	NA	NA		M	NA	NA	NA	NA
2019/11/22 20:13:00	AWS2	11.79	5	13.02	9	M	M	M	NA	NA	986.0	NA	NA		M	NA	NA	NA	NA
2019/11/22 20:14:00	AWS2	11.50	4	13.02	9	M	M	M	NA	NA	986.8	NA	NA		M	NA	NA	NA	NA
2019/11/22 20:15:00	AWS2	11.27	1	13.02	9	M	M	M	NA	NA	986.1	NA	NA		M	NA	NA	NA	NA
2019/11/22 20:16:00	AWS2	11.84	360	13.27	1	M	M	M	NA	NA	985.7	NA	NA		M	NA	NA	NA	NA
2019/11/22 20:17:00	AWS2	11.52	1	13.27	1	M	M	M	NA	NA	985.9	NA	NA		M	NA	NA	NA	NA
2019/11/22 20:18:00	AWS2	10.90	4	13.27	1	M	M	M	NA	NA	985.9	NA	NA		M	NA	NA	NA	NA
2019/11/22 20:19:00	AWS2	11.20	6	13.27	1	M	M	M	NA	NA	985.8	NA	NA		M	NA	NA	NA	NA
2019/11/22 20:20:00	AWS2	11.13	8	13.27	1	M	M	M	NA	NA	985.8	NA	NA		M	NA	NA	NA	NA
2019/11/22 20:21:00	AWS2	11.02	9	13.27	1	M	M	M	NA	NA	985.0	NA	NA		M	NA	NA	NA	NA
2019/11/22 20:22:00	AWS2	11.47	6	13.27	1	M	M	M	NA	NA	985.9	NA	NA		M	NA	NA	NA	NA
2019/11/22 20:23:00	AWS2	11.57	1	13.27	1	M	M	M	NA	NA	986.6	NA	NA		M	NA	NA	NA	NA
2019/11/22 20:24:00	AWS2	11.16	359	13.27	1	M	M	M	NA	NA	986.7	NA	NA		M	NA	NA	NA	NA
2019/11/22 20:25:00	AWS2	11.38	2	13.27	1	M	M	M	NA	NA	986.4	NA	NA		M	NA	NA	NA	NA
2019/11/22 20:26:00	AWS2	11.34	6	12.76	6	M	M	M	NA	NA	986.9	NA	NA		M	NA	NA	NA	NA
2019/11/22 20:27:00	AWS2	10.53	8	12.76	6	M	M	M	NA	NA	986.9	NA	NA		M	NA	NA	NA	NA
2019/11/22 20:28:00	AWS2	10.78	6	12.76	6	M	M	M	NA	NA	987.1	NA	NA		M	NA	NA	NA	NA
2019/11/22 20:29:00	AWS2	11.30	5	12.76	6	M	M	M	NA	NA	987.2	NA	NA		M	NA	NA	NA	NA
2019/11/22 20:30:00	AWS2	11.08	2	12.81	6	M	M	M	NA	NA	986.2	NA	NA		M	NA	NA	NA	NA
2019/11/22 20:31:00	AWS2	11.19	2	12.91	12	M	M	M	NA	NA	986.3	NA	NA		M	NA	NA	NA	NA
2019/11/22 20:32:00	AWS2	11.38	5	12.91	12	M	M	M	NA	NA	986.7	NA	NA		M	NA	NA	NA	NA
2019/11/22 20:33:00	AWS2	11.75	5	13.17	8	M	M	M	NA	NA	986.5	NA	NA		M	NA	NA	NA	NA
2019/11/22 20:34:00	AWS2	12.18	8	13.74	12	M	M	M	NA	NA	985.9	NA	NA		M	NA	NA	NA	NA
2019/11/22 20:35:00	AWS2	11.81	9	13.74	12	M	M	M	NA	NA	986.7	NA	NA		M	NA	NA	NA	NA
2019/11/22 20:36:00	AWS2	11.77	6	13.74	12	M	M	M	NA	NA	986.7	NA	NA		M	NA	NA	NA	NA
2019/11/22 20:37:00	AWS2	11.94	5	13.74	12	M	M	M	NA	NA	986.8	NA	NA		M	NA	NA	NA	NA
2019/11/22 20:38:00	AWS2	11.58	5	13.74	12	M	M	M	NA	NA	987.2	NA	NA		M	NA	NA	NA	NA
2019/11/22 20:39:00	AWS2	11.66	10	13.74	12	M	M	M	NA	NA	986.5	NA	NA		M	NA	NA	NA	NA
2019/11/22 20:40:00	AWS2	11.62	12	13.74	12	M	M	M	NA	NA	986.9	NA	NA		M	NA	NA	NA	NA
2019/11/22 20:41:00	AWS2	10.78	9	13.74	12	M	M	M	NA	NA	987.2	NA	NA		M	NA	NA	NA	NA
2019/11/22 20:42:00	AWS2	10.07	10	13.74	12	M	M	M	NA	NA	987.2	NA	NA		M	NA	NA	NA	NA
2019/11/22 20:43:00	AWS2	10.12	10	13.74	12	M	M	M	NA	NA	987.5	NA	NA		M	NA	NA	NA	NA
2019/11/22 20:44:00	AWS2	10.94	9	13.58	9	M	M	M	NA	NA	986.9	NA	NA		M	NA	NA	NA	NA
2019/11/22 20:45:00	AWS2	11.44	8	13.58	9	M	M	M	NA	NA	986.8	NA	NA		M	NA	NA	NA	NA
2019/11/22 20:46:00	AWS2	10.94	8	13.58	9	M	M	M	NA	NA	987.5	NA	NA		M	NA	NA	NA	NA
2019/11/22 20:47:00	AWS2	11.17	9	13.58	9	M	M	M	NA	NA	987.6	NA	NA		M	NA	NA	NA	NA
2019/11/22 20:48:00	AWS2	11.37	10	13.58	9	M	M	M	NA	NA	987.0	NA	NA		M	NA	NA	NA	NA
2019/11/22 20:49:00	AWS2	10.78	10	12.60	14	M	M	M	NA	NA	987.1	NA	NA		M	NA	NA	NA	NA
2019/11/22 20:50:00	AWS2	10.52	10	12.60	14	M	M	M	NA	NA	986.8	NA	NA		M	NA	NA	NA	NA
2019/11/22 20:51:00	AWS2	10.30	12	12.60	14	M	M	M	NA	NA	986.6	NA	NA		M	NA	NA	NA	NA
2019/11/22 20:52:00	AWS2	10.26	11	12.60	14	M	M	M	NA	NA	987.0	NA	NA		M	NA	NA	NA	NA
2019/11/22 20:53:00	AWS2	10.57	10	12.60	14	M	M	M	NA	NA	986.7	NA	NA		M	NA	NA	NA	NA
2019/11/22 20:54:00	AWS2	10.83	10	12.60	14	M	M	M	NA	NA	987.1	NA	NA		M	NA	NA	NA	NA
2019/11/22 20:55:00	AWS2	10.44	7	12.55	9	M	M	M	NA	NA	987.3	NA	NA		M	NA	NA	NA	NA
2019/11/22 20:56:00	AWS2	9.88	5	12.55	9	M	M	M	NA	NA	987.0	NA	NA		M	NA	NA	NA	NA
2019/11/22 20:57:00	AWS2	9.89	5	12.35	11	M	M	M	NA	NA	986.6	NA	NA		M	NA	NA	NA	NA
2019/11/22 20:58:00	AWS2	10.05	6	12.35	11	M	M	M	NA	NA	987.6	NA	NA		M	NA	NA	NA	NA
2019/11/22 20:59:00	AWS2	9.57	6	12.35	11	M	M	M	NA	NA	988.6	NA	NA		M	NA	NA	NA	NA
2019/11/22 21:00:00	AWS2	8.80	7	12.35	11	M	M	M	NA	NA	988.1	NA	NA		M	NA	NA	NA	NA
2019/11/22 21:01:00	AWS2	8.75	11	12.35	11	M	M	M	NA	NA	987.6	NA	NA		M	NA	NA	NA	NA
2019/11/22 21:02:00	AWS2	8.77	11	11.83	19	M	M	M	NA	NA	986.9	NA	NA		M	NA	NA	NA	NA
2019/11/22 21:03:00	AWS2	8.58	7	11.83	19	M	M	M	NA	NA	987.7	NA	NA		M	NA	NA	NA	NA
2019/11/22 21:04:00	AWS2	8.64	9	10.96	7	M	M	M	NA	NA	987.0	NA	NA		M	NA	NA	NA	NA
2019/11/22 21:05:00	AWS2	9.14	14	10.96	7	M	M	M	NA	NA	987.3	NA	NA		M	NA	NA	NA	NA
2019/11/22 21:06:00	AWS2	9.52	12	10.96	7	M	M	M	NA	NA	986.9	NA	NA		M	NA	NA	NA	NA
2019/11/22 21:07:00	AWS2	9.11	9	10.96	7	M	M	M	NA	NA	987.9	NA	NA		M	NA	NA	NA	NA
2019/11/22 21:08:00	AWS2	8.51	11	10.44	18	M	M	M	NA	NA	987.0	NA	NA		M	NA	NA	NA	NA
2019/11/22 21:09:00	AWS2	8.32	13	10.44	18	M	M	M	NA	NA	987.4	NA	NA		M	NA	NA	NA	NA
2019/11/22 21:10:00	AWS2	8.69	11	10.44	18	M	M	M	NA	NA	987.4	NA	NA		M	NA	NA	NA	NA
2019/11/22 21:11:00	AWS2	9.09	12	10.44	18	M	M	M	NA	NA	987.5	NA	NA		M	NA	NA	NA	NA
2019/11/22 21:12:00	AWS2	9.02	13	10.44	18	M	M	M	NA	NA	987.2	NA	NA		M	NA	NA	NA	NA
2019/11/22 21:13:00	AWS2	8.81	9	10.44	18	M	M	M	NA	NA	987.9	NA	NA		M	NA	NA	NA	NA
2019/11/22 21:14:00	AWS2	9.00	9	10.44	18	M	M	M	NA	NA	987.8	NA	NA		M	NA	NA	NA	NA
2019/11/22 21:15:00	AWS2	8.76	10	10.08	21	M	M	M	NA	NA	988.2	NA	NA		M	NA	NA	NA	NA
2019/11/22 21:16:00	AWS2	8.30	9	10.08	21	M	M	M	NA	NA	987.1	NA	NA		M	NA	NA	NA	NA
2019/11/22 21:17:00	AWS2	8.24	9	10.08	21	M	M	M	NA	NA	988.1	NA	NA		M	NA	NA	NA	NA
2019/11/22 21:18:00	AWS2	8.62	9	10.08	21	M	M	M	NA	NA	987.0	NA	NA		M	NA	NA	NA	NA
2019/11/22 21:19:00	AWS2	9.16	11	10.08	21	M	M	M	NA	NA	988.2	NA	NA		M	NA	NA	NA	NA
2019/11/22 21:20:00	AWS2	8.82	13	10.08	21	M	M	M	NA	NA	987.5	NA	NA		M	NA	NA	NA	NA
2019/11/22 21:21:00	AWS2	8.68	13	10.08	21	M	M	M	NA	NA	987.9	NA	NA		M	NA	NA	NA	NA
2019/11/22 21:22:00	AWS2	9.12	13	10.75	12	M	M	M	NA	NA	988.2	NA	NA		M	NA	NA	NA	NA
2019/11/22 21:23:00	AWS2	9.00	15	10.75	12	M	M	M	NA	NA	987.8	NA	NA		M	NA	NA	NA	NA
2019/11/22 21:24:00	AWS2	8.72	17	10.75	12	M	M	M	NA	NA	987.7	NA	NA		M	NA	NA	NA	NA
2019/11/22 21:25:00	AWS2	8.91	18	10.75	12	M	M	M	NA	NA	988.1	NA	NA		M	NA	NA	NA	NA
2019/11/22 21:26:00	AWS2	8.40	16	10.75	12	M	M	M	NA	NA	987.7	NA	NA		M	NA	NA	NA	NA
2019/11/22 21:27:00	AWS2	7.43	16	10.75	12	M	M	M	NA	NA	988.7	NA	NA		M	NA	NA	NA	NA
2019/11/22 21:28:00	AWS2	7.01	20	10.75	12	M	M	M	NA	NA	987.9	NA	NA		M	NA	NA	NA	NA
2019/11/22 21:29:00	AWS2	6.92	23	10.75	12	M	M	M	NA	NA	988.0	NA	NA		M	NA	NA	NA	NA
2019/11/22 21:30:00	AWS2	6.67	22	10.75	12	M	M	M	NA	NA	988.4	NA	NA		M	NA	NA	NA	NA
2019/11/22 21:31:00	AWS2	6.22	22	10.75	12	M	M	M	NA	NA	987.9	NA	NA		M	NA	NA	NA	NA
2019/11/22 21:32:00	AWS2	6.15	27	10.55	25	M	M	M	NA	NA	988.4	NA	NA		M	NA	NA	NA	NA
2019/11/22 21:33:00	AWS2	5.41	36	10.55	25	M	M	M	NA	NA	988.2	NA	NA		M	NA	NA	NA	NA
2019/11/22 21:34:00	AWS2	4.54	38	10.55	25	M	M	M	NA	NA	989.1	NA	NA		M	NA	NA	NA	NA
2019/11/22 21:35:00	AWS2	4.20	34	8.39	18	M	M	M	NA	NA	989.2	NA	NA		M	NA	NA	NA	NA
2019/11/22 21:36:00	AWS2	3.75	37	8.13	10	M	M	M	NA	NA	988.6	NA	NA		M	NA	NA	NA	NA
2019/11/22 21:37:00	AWS2	3.22	42	8.03	31	M	M	M	NA	NA	989.0	NA	NA		M	NA	NA	NA	NA
2019/11/22 21:38:00	AWS2	2.19	51	7.61	15	M	M	M	NA	NA	988.4	NA	NA		M	NA	NA	NA	NA
2019/11/22 21:39:00	AWS2	0.85	60	7.36	27	M	M	M	NA	NA	989.6	NA	NA		M	NA	NA	NA	NA
2019/11/22 21:40:00	AWS2	0.78	93	7.36	27	M	M	M	NA	NA	989.1	NA	NA		M	NA	NA	NA	NA
2019/11/22 21:41:00	AWS2	1.73	110	7.36	27	M	M	M	NA	NA	988.7	NA	NA		M	NA	NA	NA	NA
2019/11/22 21:42:00	AWS2	2.22	79	6.48	38	M	M	M	NA	NA	988.5	NA	NA		M	NA	NA	NA	NA
2019/11/22 21:43:00	AWS2	2.25	73	5.35	37	M	M	M	NA	NA	988.6	NA	NA		M	NA	NA	NA	NA
2019/11/22 21:44:00	AWS2	1.99	99	4.68	34	M	M	M	NA	NA	988.9	NA	NA		M	NA	NA	NA	NA
2019/11/22 21:45:00	AWS2	2.08	113	4.58	17	M	M	M	NA	NA	988.8	NA	NA		M	NA	NA	NA	NA
2019/11/22 21:46:00	AWS2	2.35	122	4.12	97	M	M	M	NA	NA	989.1	NA	NA		M	NA	NA	NA	NA
2019/11/22 21:47:00	AWS2	1.97	116	4.12	97	M	M	M	NA	NA	989.1	NA	NA		M	NA	NA	NA	NA
2019/11/22 21:48:00	AWS2	1.43	112	4.12	97	M	M	M	NA	NA	989.2	NA	NA		M	NA	NA	NA	NA
2019/11/22 21:49:00	AWS2	1.57	112	4.12	97	M	M	M	NA	NA	989.1	NA	NA		M	NA	NA	NA	NA
2019/11/22 21:50:00	AWS2	2.55	110	4.27	132	M	M	M	NA	NA	988.7	NA	NA		M	NA	NA	NA	NA
2019/11/22 21:51:00	AWS2	3.63	117	4.48	117	M	M	M	NA	NA	988.1	NA	NA		M	NA	NA	NA	NA
2019/11/22 21:52:00	AWS2	3.74	116	4.48	117	M	M	M	NA	NA	989.1	NA	NA		M	NA	NA	NA	NA
2019/11/22 21:53:00	AWS2	3.25	111	4.48	117	M	M	M	NA	NA	989.0	NA	NA		M	NA	NA	NA	NA
2019/11/22 21:54:00	AWS2	3.47	100	4.53	74	M	M	M	NA	NA	988.9	NA	NA		M	NA	NA	NA	NA
2019/11/22 21:55:00	AWS2	3.61	95	4.53	74	M	M	M	NA	NA	989.6	NA	NA		M	NA	NA	NA	NA
2019/11/22 21:56:00	AWS2	3.33	101	4.53	74	M	M	M	NA	NA	988.8	NA	NA		M	NA	NA	NA	NA
2019/11/22 21:57:00	AWS2	3.12	99	4.53	74	M	M	M	NA	NA	988.8	NA	NA		M	NA	NA	NA	NA
2019/11/22 21:58:00	AWS2	2.86	104	4.53	74	M	M	M	NA	NA	988.6	NA	NA		M	NA	NA	NA	NA
2019/11/22 21:59:00	AWS2	3.01	112	4.53	74	M	M	M	NA	NA	988.7	NA	NA		M	NA	NA	NA	NA
2019/11/22 22:00:00	AWS2	3.13	109	4.53	74	M	M	M	NA	NA	989.6	NA	NA		M	NA	NA	NA	NA
2019/11/22 22:01:00	AWS2	2.99	107	4.53	74	M	M	M	NA	NA	988.5	NA	NA		M	NA	NA	NA	NA
2019/11/22 22:02:00	AWS2	2.72	114	4.53	74	M	M	M	NA	NA	988.2	NA	NA		M	NA	NA	NA	NA
2019/11/22 22:03:00	AWS2	2.39	103	4.53	74	M	M	M	NA	NA	988.5	NA	NA		M	NA	NA	NA	NA
2019/11/22 22:04:00	AWS2	2.15	92	4.22	97	M	M	M	NA	NA	988.3	NA	NA		M	NA	NA	NA	NA
2019/11/22 22:05:00	AWS2	2.09	102	3.70	96	M	M	M	NA	NA	989.1	NA	NA		M	NA	NA	NA	NA
2019/11/22 22:06:00	AWS2	2.03	109	3.70	96	M	M	M	NA	NA	988.4	NA	NA		M	NA	NA	NA	NA
2019/11/22 22:07:00	AWS2	2.01	106	3.70	96	M	M	M	NA	NA	988.0	NA	NA		M	NA	NA	NA	NA
2019/11/22 22:08:00	AWS2	2.30	102	3.70	96	M	M	M	NA	NA	988.3	NA	NA		M	NA	NA	NA	NA
2019/11/22 22:09:00	AWS2	2.73	101	3.70	96	M	M	M	NA	NA	988.4	NA	NA		M	NA	NA	NA	NA
2019/11/22 22:10:00	AWS2	2.50	101	3.70	96	M	M	M	NA	NA	988.8	NA	NA		M	NA	NA	NA	NA
2019/11/22 22:11:00	AWS2	2.31	99	3.70	96	M	M	M	NA	NA	988.3	NA	NA		M	NA	NA	NA	NA
2019/11/22 22:12:00	AWS2	2.62	98	3.70	96	M	M	M	NA	NA	989.0	NA	NA		M	NA	NA	NA	NA
2019/11/22 22:13:00	AWS2	2.84	105	3.55	104	M	M	M	NA	NA	988.6	NA	NA		M	NA	NA	NA	NA
2019/11/22 22:14:00	AWS2	2.92	110	3.55	104	M	M	M	NA	NA	988.5	NA	NA		M	NA	NA	NA	NA
2019/11/22 22:15:00	AWS2	2.93	119	3.55	104	M	M	M	NA	NA	988.7	NA	NA		M	NA	NA	NA	NA
2019/11/22 22:16:00	AWS2	2.64	118	3.55	104	M	M	M	NA	NA	987.8	NA	NA		M	NA	NA	NA	NA
2019/11/22 22:17:00	AWS2	2.09	103	3.55	104	M	M	M	NA	NA	989.2	NA	NA		M	NA	NA	NA	NA
2019/11/22 22:18:00	AWS2	1.82	88	3.55	104	M	M	M	NA	NA	989.1	NA	NA		M	NA	NA	NA	NA
2019/11/22 22:19:00	AWS2	1.67	44	3.55	104	M	M	M	NA	NA	988.9	NA	NA		M	NA	NA	NA	NA
2019/11/22 22:20:00	AWS2	1.68	341	3.55	104	M	M	M	NA	NA	988.7	NA	NA		M	NA	NA	NA	NA
2019/11/22 22:21:00	AWS2	2.12	336	3.91	354	M	M	M	NA	NA	988.2	NA	NA		M	NA	NA	NA	NA
2019/11/22 22:22:00	AWS2	2.88	7	4.27	24	M	M	M	NA	NA	988.0	NA	NA		M	NA	NA	NA	NA
2019/11/22 22:23:00	AWS2	2.87	77	4.27	24	M	M	M	NA	NA	989.2	NA	NA		M	NA	NA	NA	NA
2019/11/22 22:24:00	AWS2	1.92	97	4.27	24	M	M	M	NA	NA	988.5	NA	NA		M	NA	NA	NA	NA
2019/11/22 22:25:00	AWS2	2.72	53	6.48	5	M	M	M	NA	NA	989.1	NA	NA		M	NA	NA	NA	NA
2019/11/22 22:26:00	AWS2	3.29	46	6.48	5	M	M	M	NA	NA	988.8	NA	NA		M	NA	NA	NA	NA
2019/11/22 22:27:00	AWS2	2.08	78	6.48	5	M	M	M	NA	NA	989.5	NA	NA		M	NA	NA	NA	NA
2019/11/22 22:28:00	AWS2	1.17	87	6.48	5	M	M	M	NA	NA	989.5	NA	NA		M	NA	NA	NA	NA
2019/11/22 22:29:00	AWS2	1.34	73	6.48	5	M	M	M	NA	NA	989.4	NA	NA		M	NA	NA	NA	NA
2019/11/22 22:30:00	AWS2	3.14	60	6.48	5	M	M	M	NA	NA	989.2	NA	NA		M	NA	NA	NA	NA
2019/11/22 22:31:00	AWS2	4.31	80	6.48	5	M	M	M	NA	NA	989.0	NA	NA		M	NA	NA	NA	NA
2019/11/22 22:32:00	AWS2	4.23	86	6.48	5	M	M	M	NA	NA	989.9	NA	NA		M	NA	NA	NA	NA
2019/11/22 22:33:00	AWS2	3.91	68	6.48	5	M	M	M	NA	NA	989.4	NA	NA		M	NA	NA	NA	NA
2019/11/22 22:34:00	AWS2	4.05	63	6.48	5	M	M	M	NA	NA	989.6	NA	NA		M	NA	NA	NA	NA
2019/11/22 22:35:00	AWS2	4.71	74	6.33	84	M	M	M	NA	NA	989.9	NA	NA		M	NA	NA	NA	NA
2019/11/22 22:36:00	AWS2	4.69	79	6.33	84	M	M	M	NA	NA	989.5	NA	NA		M	NA	NA	NA	NA
2019/11/22 22:37:00	AWS2	4.90	88	6.64	85	M	M	M	NA	NA	989.0	NA	NA		M	NA	NA	NA	NA
2019/11/22 22:38:00	AWS2	5.61	88	6.64	85	M	M	M	NA	NA	988.7	NA	NA		M	NA	NA	NA	NA
2019/11/22 22:39:00	AWS2	5.47	73	6.64	85	M	M	M	NA	NA	988.9	NA	NA		M	NA	NA	NA	NA
2019/11/22 22:40:00	AWS2	5.81	68	10.08	59	M	M	M	NA	NA	988.9	NA	NA		M	NA	NA	NA	NA
2019/11/22 22:41:00	AWS2	6.27	69	10.08	59	M	M	M	NA	NA	989.0	NA	NA		M	NA	NA	NA	NA
2019/11/22 22:42:00	AWS2	5.49	68	10.08	59	M	M	M	NA	NA	988.5	NA	NA		M	NA	NA	NA	NA
2019/11/22 22:43:00	AWS2	4.97	69	10.08	59	M	M	M	NA	NA	988.3	NA	NA		M	NA	NA	NA	NA
2019/11/22 22:44:00	AWS2	4.80	65	10.08	59	M	M	M	NA	NA	989.3	NA	NA		M	NA	NA	NA	NA
2019/11/22 22:45:00	AWS2	5.10	58	10.08	59	M	M	M	NA	NA	988.6	NA	NA		M	NA	NA	NA	NA
2019/11/22 22:46:00	AWS2	5.55	54	10.08	59	M	M	M	NA	NA	988.7	NA	NA		M	NA	NA	NA	NA
2019/11/22 22:47:00	AWS2	5.11	46	10.08	59	M	M	M	NA	NA	987.4	NA	NA		M	NA	NA	NA	NA
2019/11/22 22:48:00	AWS2	4.96	48	10.08	59	M	M	M	NA	NA	988.9	NA	NA		M	NA	NA	NA	NA
2019/11/22 22:49:00	AWS2	5.63	53	10.08	59	M	M	M	NA	NA	987.4	NA	NA		M	NA	NA	NA	NA
2019/11/22 22:50:00	AWS2	5.98	49	7.15	51	M	M	M	NA	NA	987.8	NA	NA		M	NA	NA	NA	NA
2019/11/22 22:51:00	AWS2	6.12	51	7.15	51	M	M	M	NA	NA	986.9	NA	NA		M	NA	NA	NA	NA
2019/11/22 22:52:00	AWS2	6.12	51	7.15	51	M	M	M	NA	NA	988.2	NA	NA		M	NA	NA	NA	NA
2019/11/22 22:53:00	AWS2	5.40	43	7.15	51	M	M	M	NA	NA	987.9	NA	NA		M	NA	NA	NA	NA
2019/11/22 22:54:00	AWS2	4.79	36	7.15	51	M	M	M	NA	NA	988.4	NA	NA		M	NA	NA	NA	NA
2019/11/22 22:55:00	AWS2	4.77	32	7.15	51	M	M	M	NA	NA	987.6	NA	NA		M	NA	NA	NA	NA
2019/11/22 22:56:00	AWS2	5.27	28	7.15	51	M	M	M	NA	NA	988.3	NA	NA		M	NA	NA	NA	NA
2019/11/22 22:57:00	AWS2	5.35	33	7.15	51	M	M	M	NA	NA	987.7	NA	NA		M	NA	NA	NA	NA
2019/11/22 22:58:00	AWS2	6.39	42	8.80	53	M	M	M	NA	NA	987.8	NA	NA		M	NA	NA	NA	NA
2019/11/22 22:59:00	AWS2	6.29	46	8.80	53	M	M	M	NA	NA	987.2	NA	NA		M	NA	NA	NA	NA
2019/11/22 23:00:00	AWS2	4.26	72	8.80	53	M	M	M	NA	NA	988.4	NA	NA		M	NA	NA	NA	NA
2019/11/22 23:01:00	AWS2	3.99	85	8.80	53	M	M	M	NA	NA	988.0	NA	NA		M	NA	NA	NA	NA
2019/11/22 23:02:00	AWS2	4.14	78	8.80	53	M	M	M	NA	NA	987.8	NA	NA		M	NA	NA	NA	NA
2019/11/22 23:03:00	AWS2	4.23	80	8.80	53	M	M	M	NA	NA	987.5	NA	NA		M	NA	NA	NA	NA
2019/11/22 23:04:00	AWS2	4.68	68	8.80	53	M	M	M	NA	NA	987.2	NA	NA		M	NA	NA	NA	NA
2019/11/22 23:05:00	AWS2	4.91	47	8.80	53	M	M	M	NA	NA	987.9	NA	NA		M	NA	NA	NA	NA
2019/11/22 23:06:00	AWS2	4.60	44	8.80	53	M	M	M	NA	NA	987.2	NA	NA		M	NA	NA	NA	NA
2019/11/22 23:07:00	AWS2	4.54	41	8.80	53	M	M	M	NA	NA	987.0	NA	NA		M	NA	NA	NA	NA
2019/11/22 23:08:00	AWS2	4.60	38	7.25	47	M	M	M	NA	NA	988.2	NA	NA		M	NA	NA	NA	NA
2019/11/22 23:09:00	AWS2	4.51	44	6.43	70	M	M	M	NA	NA	987.4	NA	NA		M	NA	NA	NA	NA
2019/11/22 23:10:00	AWS2	4.84	39	6.43	70	M	M	M	NA	NA	988.3	NA	NA		M	NA	NA	NA	NA
2019/11/22 23:11:00	AWS2	4.86	29	6.43	70	M	M	M	NA	NA	987.7	NA	NA		M	NA	NA	NA	NA
2019/11/22 23:12:00	AWS2	4.84	26	6.43	70	M	M	M	NA	NA	988.2	NA	NA		M	NA	NA	NA	NA
2019/11/22 23:13:00	AWS2	5.21	29	5.97	33	M	M	M	NA	NA	988.6	NA	NA		M	NA	NA	NA	NA
2019/11/22 23:14:00	AWS2	5.65	33	7.05	36	M	M	M	NA	NA	988.7	NA	NA		M	NA	NA	NA	NA
2019/11/22 23:15:00	AWS2	6.10	35	7.46	29	M	M	M	NA	NA	987.6	NA	NA		M	NA	NA	NA	NA
2019/11/22 23:16:00	AWS2	6.43	32	7.72	30	M	M	M	NA	NA	988.1	NA	NA		M	NA	NA	NA	NA
2019/11/22 23:17:00	AWS2	6.63	33	7.97	31	M	M	M	NA	NA	987.3	NA	NA		M	NA	NA	NA	NA
2019/11/22 23:18:00	AWS2	6.57	36	7.97	31	M	M	M	NA	NA	987.8	NA	NA		M	NA	NA	NA	NA
2019/11/22 23:19:00	AWS2	6.17	37	7.97	31	M	M	M	NA	NA	988.2	NA	NA		M	NA	NA	NA	NA
2019/11/22 23:20:00	AWS2	5.99	41	7.97	31	M	M	M	NA	NA	988.4	NA	NA		M	NA	NA	NA	NA
2019/11/22 23:21:00	AWS2	6.20	44	7.97	31	M	M	M	NA	NA	988.6	NA	NA		M	NA	NA	NA	NA
2019/11/22 23:22:00	AWS2	6.03	42	7.97	31	M	M	M	NA	NA	987.9	NA	NA		M	NA	NA	NA	NA
2019/11/22 23:23:00	AWS2	6.12	38	8.08	28	M	M	M	NA	NA	988.3	NA	NA		M	NA	NA	NA	NA
2019/11/22 23:24:00	AWS2	6.74	33	8.08	28	M	M	M	NA	NA	988.0	NA	NA		M	NA	NA	NA	NA
2019/11/22 23:25:00	AWS2	6.97	33	8.08	28	M	M	M	NA	NA	987.4	NA	NA		M	NA	NA	NA	NA
2019/11/22 23:26:00	AWS2	7.40	33	8.85	33	M	M	M	NA	NA	988.1	NA	NA		M	NA	NA	NA	NA
2019/11/22 23:27:00	AWS2	8.04	27	8.85	33	M	M	M	NA	NA	986.8	NA	NA		M	NA	NA	NA	NA
2019/11/22 23:28:00	AWS2	7.96	23	8.85	33	M	M	M	NA	NA	989.5	NA	NA		M	NA	NA	NA	NA
2019/11/22 23:29:00	AWS2	7.65	23	8.85	33	M	M	M	NA	NA	989.6	NA	NA		M	NA	NA	NA	NA
2019/11/22 23:30:00	AWS2	7.67	22	8.85	33	M	M	M	NA	NA	987.2	NA	NA		M	NA	NA	NA	NA
2019/11/22 23:31:00	AWS2	7.41	22	8.85	33	M	M	M	NA	NA	988.6	NA	NA		M	NA	NA	NA	NA
2019/11/22 23:32:00	AWS2	7.06	21	8.85	33	M	M	M	NA	NA	988.9	NA	NA		M	NA	NA	NA	NA
2019/11/22 23:33:00	AWS2	6.78	21	8.85	33	M	M	M	NA	NA	987.9	NA	NA		M	NA	NA	NA	NA
2019/11/22 23:34:00	AWS2	6.73	19	8.85	33	M	M	M	NA	NA	988.2	NA	NA		M	NA	NA	NA	NA
2019/11/22 23:35:00	AWS2	6.93	16	8.85	33	M	M	M	NA	NA	988.9	NA	NA		M	NA	NA	NA	NA
2019/11/22 23:36:00	AWS2	6.90	15	8.75	24	M	M	M	NA	NA	989.7	NA	NA		M	NA	NA	NA	NA
2019/11/22 23:37:00	AWS2	6.68	13	8.59	32	M	M	M	NA	NA	989.4	NA	NA		M	NA	NA	NA	NA
2019/11/22 23:38:00	AWS2	6.52	14	8.59	32	M	M	M	NA	NA	988.3	NA	NA		M	NA	NA	NA	NA
2019/11/22 23:39:00	AWS2	6.89	17	8.13	15	M	M	M	NA	NA	989.2	NA	NA		M	NA	NA	NA	NA
2019/11/22 23:40:00	AWS2	7.22	20	8.54	23	M	M	M	NA	NA	988.2	NA	NA		M	NA	NA	NA	NA
2019/11/22 23:41:00	AWS2	7.89	21	10.08	18	M	M	M	NA	NA	989.0	NA	NA		M	NA	NA	NA	NA
2019/11/22 23:42:00	AWS2	8.81	24	10.49	20	M	M	M	NA	NA	987.1	NA	NA		M	NA	NA	NA	NA
2019/11/22 23:43:00	AWS2	8.49	26	10.49	20	M	M	M	NA	NA	987.6	NA	NA		M	NA	NA	NA	NA
2019/11/22 23:44:00	AWS2	8.28	28	10.49	20	M	M	M	NA	NA	987.0	NA	NA		M	NA	NA	NA	NA
2019/11/22 23:45:00	AWS2	8.35	27	10.49	20	M	M	M	NA	NA	986.6	NA	NA		M	NA	NA	NA	NA
2019/11/22 23:46:00	AWS2	7.68	27	10.49	20	M	M	M	NA	NA	987.5	NA	NA		M	NA	NA	NA	NA
2019/11/22 23:47:00	AWS2	7.21	29	10.49	20	M	M	M	NA	NA	988.6	NA	NA		M	NA	NA	NA	NA
2019/11/22 23:48:00	AWS2	7.39	25	10.49	20	M	M	M	NA	NA	988.1	NA	NA		M	NA	NA	NA	NA
2019/11/22 23:49:00	AWS2	7.71	20	10.49	20	M	M	M	NA	NA	988.7	NA	NA		M	NA	NA	NA	NA
2019/11/22 23:50:00	AWS2	7.95	19	10.49	20	M	M	M	NA	NA	988.4	NA	NA		M	NA	NA	NA	NA
2019/11/22 23:51:00	AWS2	8.13	15	10.49	20	M	M	M	NA	NA	988.4	NA	NA		M	NA	NA	NA	NA
2019/11/22 23:52:00	AWS2	8.10	15	9.62	6	M	M	M	NA	NA	989.3	NA	NA		M	NA	NA	NA	NA
2019/11/22 23:53:00	AWS2	8.27	18	9.98	24	M	M	M	NA	NA	990.3	NA	NA		M	NA	NA	NA	NA
2019/11/22 23:54:00	AWS2	8.65	16	9.98	24	M	M	M	NA	NA	990.0	NA	NA		M	NA	NA	NA	NA
2019/11/22 23:55:00	AWS2	8.09	15	9.98	24	M	M	M	NA	NA	989.7	NA	NA		M	NA	NA	NA	NA
2019/11/22 23:56:00	AWS2	7.72	17	9.98	24	M	M	M	NA	NA	987.8	NA	NA		M	NA	NA	NA	NA
2019/11/22 23:57:00	AWS2	8.66	16	10.44	9	M	M	M	NA	NA	987.9	NA	NA		M	NA	NA	NA	NA
2019/11/22 23:58:00	AWS2	9.90	14	11.73	16	M	M	M	NA	NA	989.0	NA	NA		M	NA	NA	NA	NA
2019/11/22 23:59:00	AWS2	10.27	14	11.73	16	M	M	M	NA	NA	989.5	NA	NA		M	NA	NA	NA	NA